[[{"header":{"parameterUnit":"m.s-1","parameterCategory":1,"la1":30.6,"la2":29.2853,"lo1":-89.7004,"lo2":-87.6739,"dy":0.0162,"dx":0.0183,"nx":112,"ny":82,"refTime":"2024-03-23T12:00:00:Z","depth":0,"parameterNumber":2,"parameterNumberName":"U-component_of_WINDS"},"data":[0.0,0.0,0.0,0.0,0.0,0.0,0.0,0.0,0.0,0.0,0.0,0.0,0.0,0.0,0.0,0.0,0.0,0.0,0.0,0.0,0.0,0.0,0.0,0.0,0.0,0.0,0.0,0.0,0.0,0.0,0.0,0.0,0.0,0.0,0.0,0.0,0.0,0.0,0.0,0.0,0.0,0.0,0.0,0.0,0.0,0.0,0.0,0.0,0.0,0.0,0.0,0.0,0.0,0.0,0.0,0.0,0.0,0.0,0.0,0.0,0.0,0.0,0.0,0.0,0.0,0.0,0.0,0.0,0.0,0.0,0.0,0.0,0.0,0.0,0.0,0.0,0.0,0.0,0.0,0.0,0.0,0.0,0.0,0.0,0.0,0.0,0.0,0.0,0.0,0.0,-3.8907,-4.0684,-4.2289,-4.2507,-4.0748,-3.9907,-3.8134,-3.494,0.0,0.0,0.0,0.0,0.0,0.0,0.0,0.0,0.0,0.0,0.0,0.0,0.0,0.0,0.0,0.0,0.0,0.0,0.0,0.0,0.0,0.0,0.0,0.0,0.0,0.0,0.0,0.0,0.0,0.0,0.0,0.0,0.0,0.0,0.0,0.0,0.0,0.0,0.0,0.0,0.0,0.0,0.0,0.0,0.0,0.0,0.0,0.0,0.0,0.0,0.0,0.0,0.0,0.0,0.0,0.0,0.0,0.0,0.0,0.0,0.0,0.0,0.0,0.0,0.0,0.0,0.0,0.0,0.0,0.0,0.0,0.0,0.0,0.0,0.0,0.0,0.0,0.0,0.0,0.0,0.0,0.0,0.0,0.0,0.0,0.0,0.0,0.0,0.0,0.0,0.0,0.0,0.0,0.0,0.0,0.0,0.0,0.0,0.0,0.0,0.0,0.0,0.0,0.0,-4.0584,-4.2705,-4.3491,-4.3306,-4.1923,-4.0408,-3.8227,-3.5149,0.0,0.0,0.0,0.0,0.0,0.0,0.0,0.0,0.0,0.0,0.0,0.0,0.0,0.0,0.0,0.0,0.0,0.0,0.0,0.0,0.0,0.0,0.0,0.0,0.0,0.0,0.0,0.0,0.0,0.0,0.0,0.0,0.0,0.0,0.0,0.0,0.0,0.0,0.0,0.0,0.0,0.0,0.0,0.0,0.0,0.0,0.0,0.0,0.0,0.0,0.0,0.0,0.0,0.0,0.0,0.0,0.0,0.0,0.0,0.0,0.0,0.0,0.0,0.0,0.0,0.0,0.0,0.0,0.0,0.0,0.0,0.0,0.0,0.0,0.0,0.0,0.0,0.0,0.0,0.0,0.0,0.0,0.0,0.0,0.0,0.0,0.0,0.0,0.0,0.0,0.0,0.0,0.0,0.0,0.0,0.0,0.0,0.0,0.0,0.0,0.0,0.0,0.0,-4.0891,-4.2438,-4.4032,-4.4682,-4.4401,-4.2747,-4.1533,-3.9386,-3.578,-3.4527,0.0,0.0,0.0,0.0,0.0,0.0,0.0,0.0,0.0,0.0,0.0,0.0,0.0,0.0,0.0,0.0,0.0,0.0,0.0,0.0,0.0,0.0,0.0,0.0,0.0,0.0,0.0,0.0,0.0,0.0,0.0,0.0,0.0,0.0,0.0,0.0,0.0,0.0,0.0,0.0,0.0,0.0,0.0,0.0,0.0,0.0,0.0,0.0,0.0,0.0,0.0,0.0,0.0,0.0,0.0,0.0,0.0,0.0,0.0,0.0,0.0,0.0,0.0,0.0,0.0,0.0,0.0,0.0,0.0,0.0,0.0,0.0,0.0,0.0,0.0,0.0,0.0,0.0,0.0,0.0,0.0,0.0,0.0,0.0,0.0,0.0,0.0,0.0,0.0,0.0,0.0,0.0,0.0,0.0,0.0,0.0,0.0,0.0,0.0,0.0,0.0,0.0,-4.2938,-4.405,-4.5036,-4.5602,-4.5172,-4.3439,-4.2518,-4.0518,-3.7006,-3.58,0.0,0.0,0.0,0.0,0.0,0.0,0.0,0.0,0.0,0.0,0.0,0.0,0.0,0.0,0.0,0.0,0.0,0.0,0.0,0.0,0.0,0.0,0.0,0.0,0.0,0.0,0.0,0.0,0.0,0.0,0.0,0.0,0.0,0.0,0.0,0.0,0.0,0.0,0.0,0.0,0.0,0.0,0.0,0.0,0.0,0.0,0.0,0.0,0.0,0.0,0.0,0.0,0.0,0.0,0.0,0.0,0.0,0.0,0.0,0.0,0.0,0.0,0.0,0.0,0.0,0.0,0.0,0.0,0.0,0.0,0.0,0.0,0.0,0.0,0.0,0.0,0.0,0.0,0.0,0.0,0.0,0.0,0.0,0.0,0.0,0.0,0.0,0.0,0.0,0.0,0.0,0.0,0.0,0.0,0.0,0.0,0.0,0.0,0.0,0.0,0.0,0.0,-4.4207,-4.4997,-4.5735,-4.5832,-4.5387,-4.4307,-4.2681,-4.0946,-3.918,-3.6601,0.0,0.0,0.0,0.0,0.0,0.0,0.0,0.0,0.0,0.0,0.0,0.0,0.0,0.0,0.0,0.0,0.0,0.0,0.0,0.0,0.0,0.0,0.0,0.0,0.0,0.0,0.0,0.0,0.0,0.0,0.0,0.0,0.0,0.0,0.0,0.0,0.0,0.0,0.0,0.0,0.0,0.0,0.0,0.0,0.0,0.0,0.0,0.0,0.0,0.0,0.0,0.0,0.0,0.0,0.0,0.0,0.0,0.0,0.0,0.0,0.0,0.0,0.0,0.0,0.0,0.0,0.0,0.0,0.0,0.0,0.0,0.0,0.0,0.0,0.0,0.0,0.0,0.0,0.0,0.0,0.0,0.0,0.0,0.0,0.0,0.0,0.0,0.0,0.0,0.0,0.0,0.0,0.0,0.0,0.0,0.0,0.0,0.0,0.0,0.0,0.0,0.0,-4.5881,-4.6833,-4.7724,-4.7173,-4.6149,-4.4696,-4.3176,-4.1256,-3.8977,0.0,0.0,0.0,0.0,0.0,0.0,0.0,0.0,0.0,0.0,0.0,0.0,0.0,0.0,0.0,0.0,0.0,0.0,0.0,0.0,0.0,0.0,0.0,0.0,0.0,0.0,0.0,0.0,0.0,0.0,0.0,0.0,0.0,0.0,0.0,0.0,0.0,0.0,0.0,0.0,0.0,0.0,0.0,0.0,0.0,0.0,0.0,0.0,0.0,0.0,0.0,0.0,0.0,0.0,0.0,0.0,0.0,0.0,0.0,0.0,0.0,0.0,0.0,0.0,0.0,0.0,0.0,0.0,0.0,0.0,0.0,0.0,0.0,0.0,0.0,0.0,0.0,0.0,0.0,0.0,0.0,0.0,0.0,0.0,0.0,0.0,0.0,0.0,0.0,0.0,0.0,0.0,0.0,0.0,0.0,0.0,0.0,0.0,0.0,0.0,0.0,0.0,-4.5729,-4.6954,-4.7887,-4.8782,-4.8076,-4.6921,-4.5262,-4.3755,-4.1802,-3.9317,0.0,0.0,0.0,0.0,0.0,0.0,0.0,0.0,0.0,0.0,0.0,0.0,0.0,0.0,0.0,0.0,0.0,0.0,0.0,0.0,0.0,0.0,0.0,0.0,0.0,0.0,0.0,0.0,0.0,0.0,0.0,0.0,0.0,0.0,0.0,0.0,0.0,0.0,0.0,0.0,0.0,0.0,0.0,0.0,0.0,0.0,0.0,0.0,0.0,0.0,0.0,0.0,0.0,0.0,0.0,0.0,0.0,0.0,0.0,0.0,0.0,0.0,0.0,0.0,0.0,0.0,0.0,0.0,0.0,0.0,0.0,0.0,0.0,0.0,0.0,0.0,0.0,0.0,0.0,0.0,0.0,0.0,0.0,0.0,0.0,0.0,0.0,0.0,0.0,0.0,0.0,0.0,0.0,0.0,0.0,0.0,0.0,0.0,0.0,0.0,0.0,0.0,-4.6203,-4.7197,-4.7941,-4.857,-4.8355,-4.7621,-4.6132,-4.4485,-4.2628,0.0,0.0,0.0,0.0,0.0,0.0,0.0,0.0,0.0,0.0,0.0,0.0,0.0,0.0,0.0,0.0,0.0,0.0,0.0,0.0,0.0,0.0,0.0,0.0,0.0,0.0,0.0,0.0,0.0,0.0,0.0,0.0,0.0,0.0,0.0,0.0,0.0,0.0,0.0,0.0,0.0,0.0,0.0,0.0,0.0,0.0,0.0,0.0,0.0,0.0,0.0,0.0,0.0,0.0,0.0,0.0,0.0,0.0,0.0,0.0,0.0,0.0,0.0,0.0,0.0,0.0,0.0,0.0,0.0,0.0,0.0,0.0,0.0,0.0,0.0,0.0,0.0,0.0,0.0,0.0,0.0,0.0,0.0,0.0,0.0,0.0,0.0,0.0,0.0,0.0,0.0,0.0,0.0,0.0,0.0,0.0,0.0,0.0,0.0,0.0,0.0,0.0,0.0,-4.8054,-4.842,-4.8872,-5.0349,-4.9465,-4.8162,-4.6484,-4.4978,-4.3227,-4.126,0.0,0.0,0.0,0.0,0.0,0.0,0.0,0.0,0.0,0.0,0.0,0.0,0.0,0.0,0.0,0.0,0.0,0.0,0.0,0.0,0.0,0.0,0.0,0.0,0.0,0.0,0.0,0.0,0.0,0.0,0.0,0.0,0.0,0.0,0.0,0.0,0.0,0.0,0.0,0.0,0.0,0.0,0.0,0.0,0.0,0.0,0.0,0.0,0.0,0.0,0.0,0.0,0.0,0.0,0.0,0.0,0.0,0.0,0.0,0.0,0.0,0.0,0.0,0.0,0.0,0.0,0.0,0.0,0.0,0.0,0.0,0.0,0.0,0.0,0.0,0.0,0.0,0.0,0.0,0.0,0.0,0.0,0.0,0.0,0.0,0.0,0.0,0.0,0.0,0.0,0.0,0.0,0.0,0.0,0.0,0.0,0.0,0.0,0.0,0.0,0.0,0.0,-4.9085,-4.9392,-4.9963,-5.1625,-5.0565,-4.9158,-4.7613,-4.6033,-4.4291,-4.2304,0.0,0.0,0.0,0.0,0.0,0.0,0.0,0.0,0.0,0.0,0.0,0.0,0.0,0.0,0.0,0.0,0.0,0.0,0.0,0.0,0.0,0.0,0.0,0.0,0.0,0.0,0.0,0.0,0.0,0.0,0.0,0.0,0.0,0.0,0.0,0.0,0.0,0.0,0.0,0.0,0.0,0.0,0.0,0.0,0.0,0.0,0.0,0.0,0.0,0.0,0.0,0.0,0.0,0.0,0.0,0.0,0.0,0.0,0.0,0.0,0.0,0.0,0.0,0.0,0.0,0.0,0.0,0.0,0.0,0.0,0.0,0.0,0.0,0.0,0.0,0.0,0.0,0.0,0.0,0.0,0.0,0.0,0.0,0.0,0.0,0.0,0.0,0.0,0.0,0.0,0.0,0.0,0.0,0.0,0.0,0.0,0.0,0.0,0.0,0.0,0.0,0.0,-4.961,-5.0281,-5.1046,-5.2623,-5.1742,-5.0487,-4.9225,-4.7675,-4.5834,-4.366,0.0,0.0,0.0,0.0,0.0,0.0,0.0,0.0,0.0,0.0,0.0,0.0,0.0,0.0,0.0,0.0,0.0,0.0,0.0,0.0,0.0,0.0,0.0,0.0,0.0,0.0,0.0,0.0,0.0,0.0,0.0,0.0,0.0,0.0,0.0,0.0,0.0,0.0,0.0,0.0,0.0,0.0,0.0,0.0,0.0,0.0,0.0,0.0,0.0,0.0,0.0,0.0,0.0,0.0,0.0,0.0,0.0,0.0,0.0,0.0,-4.0419,-3.8721,0.0,0.0,0.0,0.0,0.0,0.0,0.0,0.0,0.0,0.0,0.0,0.0,0.0,0.0,0.0,0.0,0.0,0.0,0.0,0.0,0.0,0.0,0.0,0.0,0.0,0.0,0.0,0.0,0.0,0.0,0.0,0.0,0.0,0.0,0.0,0.0,0.0,0.0,0.0,0.0,-5.0513,-5.0658,-5.1436,-5.4137,-5.3704,-5.2387,-5.0276,-4.9687,-4.8069,-4.4852,-4.3836,0.0,0.0,0.0,0.0,0.0,0.0,0.0,0.0,0.0,0.0,0.0,0.0,0.0,0.0,0.0,0.0,0.0,0.0,0.0,0.0,0.0,0.0,0.0,0.0,0.0,0.0,0.0,0.0,0.0,0.0,0.0,0.0,0.0,0.0,0.0,0.0,0.0,0.0,0.0,0.0,0.0,0.0,0.0,0.0,0.0,0.0,0.0,0.0,0.0,0.0,0.0,0.0,0.0,0.0,0.0,0.0,0.0,0.0,0.0,-4.3828,-4.2073,0.0,0.0,0.0,0.0,0.0,0.0,0.0,0.0,0.0,0.0,0.0,0.0,0.0,0.0,0.0,0.0,0.0,0.0,0.0,0.0,0.0,0.0,0.0,0.0,0.0,0.0,0.0,0.0,0.0,0.0,0.0,0.0,0.0,0.0,0.0,0.0,0.0,0.0,0.0,0.0,-5.1452,-5.1757,-5.2704,-5.5386,-5.4666,-5.3569,-5.2491,-5.1624,-5.009,-4.7692,-4.6547,0.0,0.0,0.0,0.0,0.0,0.0,0.0,0.0,0.0,0.0,0.0,0.0,0.0,0.0,0.0,0.0,0.0,0.0,0.0,0.0,0.0,0.0,0.0,0.0,0.0,0.0,0.0,0.0,0.0,0.0,0.0,0.0,0.0,0.0,0.0,0.0,0.0,0.0,0.0,0.0,0.0,0.0,0.0,0.0,0.0,0.0,0.0,0.0,0.0,0.0,0.0,0.0,0.0,-4.9662,-4.9707,-4.9706,-4.9814,-4.9671,-4.9143,-4.7348,-4.6006,-4.4929,-4.3018,0.0,0.0,0.0,0.0,0.0,0.0,0.0,0.0,0.0,0.0,0.0,0.0,0.0,0.0,0.0,0.0,0.0,0.0,0.0,0.0,0.0,0.0,-4.5274,-4.5494,-4.6007,-4.5959,-4.4493,0.0,0.0,0.0,0.0,0.0,0.0,0.0,0.0,0.0,0.0,0.0,-5.2106,-5.2917,-5.4059,-5.6438,-5.5484,-5.4692,-5.4712,-5.3374,-5.196,-5.0592,-4.9455,-4.7932,0.0,0.0,0.0,0.0,0.0,0.0,0.0,0.0,0.0,0.0,0.0,0.0,0.0,0.0,0.0,0.0,0.0,0.0,0.0,0.0,0.0,0.0,0.0,0.0,0.0,0.0,0.0,0.0,0.0,0.0,0.0,0.0,-3.8421,-3.8972,0.0,0.0,0.0,0.0,0.0,0.0,0.0,0.0,0.0,0.0,0.0,0.0,0.0,-4.8137,-4.8762,-4.9729,-5.009,-4.9823,-5.0654,-5.0891,-5.0644,-5.115,-5.1003,-5.0254,-5.0646,0.0,-4.7607,-4.6228,0.0,0.0,0.0,0.0,0.0,0.0,0.0,0.0,0.0,0.0,0.0,0.0,0.0,0.0,0.0,0.0,0.0,0.0,0.0,0.0,0.0,0.0,-4.7855,-4.8846,-4.8906,-4.8855,-4.917,-4.6976,-4.4559,-4.3436,-4.3727,-4.4017,0.0,0.0,0.0,0.0,0.0,0.0,-5.2063,-5.3165,-5.4728,-5.709,-5.7062,-5.6404,-5.5125,-5.4797,-5.3725,-5.1486,-5.1257,-5.0052,-4.7545,-4.6422,0.0,0.0,0.0,0.0,0.0,0.0,0.0,0.0,0.0,0.0,0.0,0.0,0.0,0.0,0.0,0.0,0.0,0.0,0.0,0.0,0.0,0.0,0.0,0.0,0.0,0.0,0.0,0.0,0.0,-4.0168,-4.0865,-4.0765,-4.0355,-3.9907,0.0,0.0,0.0,0.0,0.0,0.0,0.0,0.0,0.0,-4.9218,-5.0195,-5.0972,-5.1475,-5.1951,-5.2135,-5.2086,-5.2006,-5.2077,-5.226,-5.2497,-5.2434,-5.2098,-5.247,-5.2035,-5.0935,-4.8677,-4.7237,-4.6347,0.0,0.0,0.0,0.0,-4.5891,-4.5891,-4.64,-4.6104,-4.5404,-4.5262,0.0,0.0,0.0,0.0,0.0,0.0,0.0,-4.6502,-4.7632,-4.8349,-4.8997,-5.0143,-5.0394,-5.0417,-5.0538,-4.9501,-4.8155,-4.6866,-4.6078,-4.5844,-4.6402,-4.6728,0.0,0.0,0.0,-5.0883,-5.25,-5.3684,-5.5089,-5.6927,-5.6965,-5.6762,-5.6578,-5.6249,-5.546,-5.4074,-5.3427,-5.2244,-5.0359,-4.8559,-4.656,0.0,0.0,0.0,0.0,0.0,0.0,0.0,0.0,0.0,0.0,0.0,0.0,0.0,0.0,0.0,0.0,0.0,0.0,0.0,0.0,0.0,0.0,0.0,0.0,0.0,0.0,0.0,0.0,-4.2391,-4.3085,-4.2658,-4.2457,-4.2133,0.0,0.0,0.0,0.0,0.0,0.0,-4.79,-4.8693,-4.9993,-5.1949,-5.2836,-5.3382,-5.3618,-5.3608,-5.3631,-5.367,-5.3057,-5.2955,-5.34,-5.34,-5.34,-5.34,-5.3465,-5.34,-5.3049,-5.0739,-4.9415,-4.8756,-4.8575,-4.854,-4.8629,-4.914,-4.9094,-4.8746,-4.9552,-4.8884,-4.7834,-4.8035,-4.7398,-4.644,-4.6287,0.0,0.0,0.0,0.0,-4.7851,-4.8971,-4.9368,-4.9785,-5.0922,-5.1497,-5.1666,-5.157,-5.1469,-5.1071,-4.9732,-4.8378,-4.7794,-4.9042,-4.878,0.0,-5.0122,-5.1126,-5.2032,-5.3123,-5.4299,-5.551,-5.6778,-5.6941,-5.722,-5.7678,-5.7268,-5.6771,-5.617,-5.5267,-5.4204,-5.3012,-5.0703,-4.8573,-4.6724,0.0,0.0,0.0,0.0,0.0,0.0,0.0,0.0,0.0,0.0,0.0,0.0,0.0,0.0,0.0,0.0,0.0,0.0,0.0,0.0,0.0,0.0,0.0,0.0,0.0,0.0,0.0,0.0,0.0,-4.5288,-4.4654,0.0,0.0,0.0,0.0,-4.6625,-4.6861,-4.7784,-4.9881,-5.1029,-5.2325,-5.3831,-5.4485,-5.4646,-5.432,-5.4028,-5.3734,-5.34,-5.3373,-5.3373,-5.34,-5.34,-5.34,-5.3426,-5.3621,-5.3346,-5.2802,-5.2308,-5.1987,-5.1741,-5.1061,-5.0729,-5.0624,-5.1226,-5.1252,-5.1127,-5.175,-5.2253,-5.2408,-5.0942,-4.981,-4.8937,-4.8404,-4.8303,0.0,0.0,-4.8272,-4.8976,-5.0082,-5.0318,-5.0619,-5.1749,-5.2452,-5.2898,-5.3283,-5.3078,-5.2329,-5.0857,-5.046,-5.0498,-5.0991,0.0,-5.1439,-5.1528,-5.2329,-5.315,-5.3757,-5.4984,-5.6201,-5.7198,-5.7948,-5.8183,-5.7782,-5.7704,-5.7373,-5.6798,-5.6349,-5.5719,-5.4834,-5.2953,-5.0938,-4.9013,-4.7333,0.0,0.0,0.0,0.0,0.0,0.0,0.0,0.0,0.0,0.0,0.0,0.0,0.0,0.0,0.0,0.0,0.0,0.0,0.0,0.0,0.0,0.0,0.0,0.0,0.0,0.0,0.0,0.0,-4.7514,-4.8026,0.0,-4.8097,-4.7611,-4.766,-4.8615,-4.94,-5.0393,-5.1723,-5.2917,-5.4036,-5.5122,-5.5618,-5.5757,-5.5723,-5.5881,-5.5802,-5.5595,-5.5595,-5.5595,-5.5569,-5.5203,-5.5229,-5.5569,-5.4887,-5.4898,-5.5315,-5.4159,-5.3214,-5.2518,-5.2258,-5.2285,-5.2452,-5.2708,-5.2447,-5.2071,-5.226,-5.2365,-5.2372,-5.227,-5.1904,-5.1372,-5.143,-5.1314,-5.0977,-5.0558,-5.0583,-5.0948,-5.1817,-5.2161,-5.2497,-5.3023,-5.3488,-5.3746,-5.3554,-5.3204,-5.2883,-5.2813,-5.2006,-5.1586,-5.2169,-5.2271,-5.2464,-5.2682,-5.3372,-5.4013,-5.4617,-5.5375,-5.6343,-5.745,-5.7782,-5.8026,-5.8209,-5.8209,-5.8131,-5.7921,-5.7206,-5.6545,-5.5919,-5.4359,-5.2732,-5.1022,-4.9721,-4.8309,0.0,0.0,0.0,0.0,0.0,0.0,0.0,0.0,0.0,0.0,0.0,0.0,0.0,0.0,0.0,0.0,0.0,0.0,0.0,0.0,0.0,0.0,0.0,0.0,0.0,-4.6662,-4.8382,-4.9351,-5.032,-5.0963,-5.0976,-5.0654,-5.0725,-5.1476,-5.2077,-5.2877,-5.3877,-5.4681,-5.5591,-5.6526,-5.6773,-5.6908,-5.6968,-5.717,-5.7153,-5.6798,-5.6798,-5.6798,-5.6798,-5.6405,-5.6432,-5.6771,-5.6013,-5.6118,-5.6745,-5.5689,-5.4842,-5.4141,-5.3593,-5.3595,-5.3975,-5.3975,-5.3713,-5.3373,-5.3373,-5.3153,-5.2932,-5.3443,-5.3366,-5.3071,-5.3135,-5.3145,-5.302,-5.2638,-5.2689,-5.2979,-5.3645,-5.4036,-5.425,-5.4328,-5.4543,-5.4625,-5.409,-5.3757,-5.3612,-5.3954,-5.2979,-5.2479,-5.3524,-5.355,-5.3708,-5.417,-5.4733,-5.5151,-5.536,-5.604,-5.6798,-5.7651,-5.7843,-5.8034,-5.8258,-5.831,-5.831,-5.831,-5.752,-5.6932,-5.679,-5.5426,-5.4163,-5.2955,-5.1514,-4.9981,-4.8405,0.0,0.0,0.0,0.0,0.0,0.0,0.0,0.0,0.0,0.0,0.0,0.0,0.0,0.0,0.0,0.0,0.0,0.0,0.0,0.0,0.0,0.0,0.0,-4.5121,-4.7204,-4.9255,-5.0827,-5.1557,-5.2615,-5.4413,-5.3483,-5.3537,-5.5274,-5.4867,-5.5057,-5.6224,-5.6332,-5.6848,-5.8042,-5.8069,-5.8037,-5.7916,-5.7916,-5.7535,-5.685,-5.685,-5.685,-5.685,-5.685,-5.685,-5.685,-5.6824,-5.6824,-5.685,-5.6824,-5.6824,-5.665,-5.5138,-5.479,-5.5151,-5.5151,-5.5151,-5.5125,-5.5125,-5.4898,-5.4537,-5.4562,-5.4386,-5.4039,-5.3474,-5.3679,-5.4048,-5.4022,-5.4501,-5.5065,-5.5604,-5.5732,-5.5732,-5.5732,-5.5688,-5.5534,-5.5039,-5.4817,-5.4637,-5.4125,-5.341,-5.345,-5.5082,-5.5143,-5.5169,-5.5799,-5.6432,0.0,-5.604,-5.6954,-5.773,-5.7686,-5.8183,-5.8284,-5.7927,-5.7856,-5.7927,-5.7856,-5.7235,-5.7019,-5.7379,-5.6125,-5.5139,-5.4587,-5.261,-5.09,-4.9503,0.0,0.0,0.0,0.0,0.0,0.0,0.0,0.0,0.0,0.0,0.0,0.0,0.0,0.0,0.0,0.0,0.0,0.0,0.0,0.0,0.0,-4.6708,-4.8009,-4.8296,-4.9886,-5.1536,-5.3057,-5.4358,-5.5304,-5.5799,-5.5333,-5.5238,-5.5757,-5.578,-5.5952,-5.6278,-5.6712,-5.7282,-5.8042,-5.7806,-5.8026,-5.8912,-5.8366,-5.826,-5.8473,-5.8193,-5.8052,-5.8026,-5.7608,-5.766,-5.8,-5.7163,-5.7268,-5.7974,-5.7137,-5.7059,-5.7346,-5.6477,-5.6259,-5.6327,-5.6327,-5.6066,-5.5674,-5.5674,-5.5606,-5.5669,-5.6529,-5.6583,-5.6279,-5.6401,-5.6055,-5.5469,-5.5125,-5.5125,-5.5315,-5.563,-5.5923,-5.6062,-5.5758,-5.5589,-5.5332,-5.4738,-5.4405,-5.4304,-5.456,-5.4474,-5.4551,-5.5297,-5.5659,-5.6012,-5.6494,-5.6693,-5.6902,-5.7137,-5.7451,-5.7747,-5.7785,-5.7992,-5.7927,-5.7595,-5.7784,-5.7784,-5.7523,-5.7379,-5.7163,-5.6946,-5.6359,-5.5541,-5.4658,-5.3358,-5.2169,0.0,0.0,0.0,0.0,0.0,0.0,0.0,0.0,0.0,0.0,0.0,0.0,0.0,0.0,0.0,0.0,0.0,0.0,0.0,0.0,0.0,0.0,-4.907,-5.0571,-5.1376,-5.2149,-5.3199,-5.4534,-5.5955,-5.6845,-5.7093,-5.6961,-5.6836,-5.6836,-5.7039,-5.7041,-5.6913,-5.7486,-5.802,-5.8449,-5.8494,-5.8887,-5.9666,-5.9046,-5.8884,-5.9114,-5.8664,-5.8523,-5.8497,-5.8183,-5.8209,-5.847,-5.7817,-5.7895,-5.847,-5.7791,-5.7712,-5.7948,0.0,0.0,0.0,0.0,-5.6588,-5.6275,-5.6275,-5.6432,-5.6745,-5.7425,-5.752,-5.7354,-5.766,-5.7129,-5.6427,-5.6418,-5.6392,-5.6453,-5.6744,-5.6858,-5.6842,-5.6607,-5.6055,-5.5543,-5.5465,-5.5122,-5.4986,-5.5555,-5.5753,0.0,-5.6323,-5.6444,-5.6721,-5.7094,-5.7373,-5.7556,-5.7634,-5.7869,-5.806,-5.8115,-5.8141,-5.7999,-5.7667,-5.7667,0.0,0.0,0.0,-5.6903,-5.6912,-5.6644,0.0,0.0,0.0,-5.4251,-5.3492,-5.2767,0.0,0.0,-4.8532,-4.7927,0.0,0.0,0.0,0.0,0.0,0.0,0.0,0.0,0.0,0.0,0.0,0.0,0.0,0.0,0.0,0.0,-5.1618,-5.2575,-5.3941,-5.4127,-5.4477,-5.5524,-5.6741,-5.7744,-5.827,-5.8262,-5.8262,-5.8262,-5.8253,-5.8154,-5.7752,-5.8382,0.0,0.0,0.0,-5.9954,-6.0246,-5.9857,-5.9508,-5.9228,-5.8806,-5.8567,-5.8594,-5.8523,-5.8523,-5.8523,-5.8523,-5.8523,-5.8523,-5.8523,-5.8523,-5.8418,-5.7399,-5.7007,-5.7007,-5.7007,-5.7033,-5.7085,-5.7085,0.0,0.0,-5.7948,-5.7895,-5.7913,-5.7913,-5.7399,-5.7007,-5.7529,-5.773,-5.7791,-5.8287,-5.8052,-5.773,-5.773,-5.6824,-5.617,-5.6693,-5.6379,-5.6196,-5.6729,-5.7016,-5.731,-5.7669,-5.7388,-5.7318,-5.7765,-5.8183,-5.834,-5.7817,-5.8209,-5.8549,-5.853,-5.853,0.0,-5.7965,-5.7703,-5.7584,-5.744,-5.676,-5.662,-5.7123,-5.7123,-5.7374,-5.7901,-5.712,-5.6493,-5.6001,-5.4759,-5.4066,-5.3966,-5.1939,-5.0865,0.0,0.0,0.0,0.0,0.0,0.0,0.0,0.0,0.0,0.0,0.0,0.0,0.0,0.0,0.0,-5.0906,-5.2715,-5.4175,-5.4483,-5.5771,-5.6688,-5.6637,-5.7908,-5.8905,-5.9017,-5.8767,-5.8578,-5.8578,-5.8768,-5.8723,-5.8162,-5.8924,-5.9385,-5.939,-5.9427,-5.9791,-6.0687,-6.0246,-6.0039,-5.9969,-5.9621,0.0,-5.8947,-5.8664,-5.8523,-5.8523,-5.8523,-5.8523,-5.8523,-5.8523,-5.8523,-5.8497,-5.8261,-5.8183,-5.8183,-5.8183,-5.847,-5.8862,-5.8862,-5.9255,-5.9725,-5.9725,-5.9411,-5.9117,-5.9117,-5.8384,0.0,-5.7704,-5.773,-5.7756,-5.7791,-5.7808,-5.773,-5.773,-5.7137,-5.6667,-5.6771,-5.6719,-5.6729,-5.7024,-5.7372,-5.7651,-5.7837,-5.7772,-5.7914,-5.8269,-5.8444,-5.847,-5.8366,-5.8444,-5.8537,-5.8693,-5.8745,-5.8636,-5.8391,-5.8664,-5.8516,-5.7873,-5.7649,-5.7625,-5.7725,-5.7725,-5.7775,-5.7901,-5.775,-5.7222,-5.6491,-5.6165,-5.571,-5.5049,-5.3411,-5.2851,0.0,0.0,0.0,0.0,0.0,0.0,0.0,0.0,0.0,0.0,0.0,-4.9301,-4.9874,0.0,-5.2882,-5.3216,-5.4788,-5.5973,-5.5973,-5.7069,-5.7655,-5.7253,-5.8351,-5.9205,-5.9205,-5.9298,-5.9431,-5.9431,-5.9863,-5.9893,-5.9395,-5.9624,-5.983,-5.9933,-5.9697,-6.0022,-6.0755,-6.0411,-6.0177,-6.0177,-5.9761,-5.9482,-5.9368,-5.8947,-5.8806,-5.8806,-5.8594,-5.8523,-5.8523,-5.8523,-5.8523,-5.8523,-5.8523,-5.8523,-5.8549,-5.8836,-5.9124,-5.9411,-5.9699,-6.0169,-6.0614,-6.0326,-6.0013,-5.9751,-5.9437,-5.8758,-5.8078,-5.8078,-5.8078,-5.8078,-5.8078,-5.7869,-5.773,-5.773,-5.7216,-5.6876,-5.719,-5.7242,-5.7329,-5.7763,-5.7937,-5.8112,-5.816,-5.8212,-5.8284,-5.8452,-5.8523,-5.8523,-5.8523,-5.8523,-5.8661,-5.9091,-5.9071,-5.9087,-5.9068,-5.8897,-5.855,-5.7976,-5.7901,-5.8027,-5.8303,-5.8303,-5.8428,-5.8704,-5.8475,-5.8169,-5.7759,-5.7257,-5.6871,-5.6492,-5.5428,-5.4904,0.0,0.0,0.0,0.0,0.0,0.0,0.0,-4.939,-5.0464,-5.1266,-5.1516,-5.1848,-5.2659,-5.389,-5.501,-5.5491,-5.6648,-5.7378,-5.7378,-5.779,-5.7986,-5.7631,-5.8531,-5.9261,-5.9373,-5.9823,-6.0125,-6.0301,-6.0919,-6.1099,-6.07,-6.057,-6.0518,-6.0544,-6.0374,-6.0471,-6.0961,-6.0728,-6.0591,-6.0522,-6.0177,-5.9969,-5.9787,-5.9438,-5.9228,-5.9158,-5.8876,-5.8735,-5.8735,-5.8735,-5.8664,-5.8594,-5.8594,-5.8594,-5.8575,-5.915,-5.9516,-5.9777,-6.0222,-6.0797,-6.1215,-6.0718,-6.0405,-6.0143,-5.9745,-5.9188,-5.8664,-5.8735,-5.8664,-5.8594,-5.8594,-5.8253,-5.7817,-5.7817,-5.7477,-5.7268,-5.7878,-5.7957,-5.8114,-5.863,-5.8664,-5.8594,-5.8594,-5.8523,-5.8523,-5.8523,-5.8523,-5.8523,-5.8523,-5.8601,-5.8889,-5.9464,-5.9647,-5.9789,-5.9821,-5.9154,-5.8554,-5.8202,-5.8202,-5.8403,-5.8855,-5.888,-5.9056,-5.9483,-5.9198,-5.9014,-5.9036,-5.8278,-5.7962,-5.8027,-5.7485,-5.6776,-4.2825,-4.3892,-4.5481,-4.5841,-4.7294,-4.8845,0.0,-5.051,-5.1285,-5.1679,-5.3063,-5.3951,-5.3299,-5.532,-5.6781,-5.6037,-5.6721,-5.7378,-5.7378,-5.7422,-5.7598,-5.8132,-5.8812,-5.943,-5.9992,-6.0104,-6.0357,-6.0947,-6.1565,-6.1678,-6.1051,-6.1733,-6.1897,-6.133,-6.1497,-6.1599,-6.1681,-6.2018,-6.1951,-6.1586,-6.1586,-6.1207,-6.0591,-6.0246,-5.99,-5.9508,-5.9508,-5.9508,-5.9508,-5.9508,-5.9298,-5.9017,-5.9017,-5.8806,-5.8575,-5.915,-6.0013,-6.0927,-6.1006,-6.1398,-6.1868,-6.179,-6.1058,-6.0295,-6.0533,-5.9887,-5.9088,-5.9368,-5.9228,-5.9017,-5.9017,-5.8683,-5.8418,-5.8418,-5.8366,-5.841,-5.8841,-5.8938,-5.9008,-5.9438,-5.9228,-5.9017,-5.9017,-5.8735,-5.8523,-5.8523,-5.8523,-5.8523,-5.8523,-5.8967,-5.949,-6.0065,-6.0614,-6.084,-6.0582,-6.0151,-5.9768,-5.9332,-5.9307,-5.9332,-5.9408,-5.9408,-5.9433,-5.9483,-5.9508,-5.9501,-5.9607,-5.9533,-5.9544,-5.9607,-5.9179,-5.8241,-4.5014,-4.5575,-4.6462,-4.6921,-4.8543,-5.0179,-5.0908,-5.1734,-5.263,-5.3511,-5.4599,-5.5528,-5.5892,-5.7479,-5.864,-5.8508,-5.905,-5.9333,-5.881,-5.8733,-5.8575,-5.8334,-5.884,-5.9317,-5.957,-6.0273,-6.0807,-6.1088,-6.1987,-6.2436,-6.2183,-6.1967,-6.1908,-6.1991,-6.1547,-6.143,-6.1789,-6.1951,-6.1951,-6.1789,-6.1789,-6.1546,-6.1029,-6.066,-6.0177,-5.9578,-5.9368,-5.9438,-5.9578,-5.9158,-5.9017,-5.914,-5.9483,-5.9729,-5.983,-5.985,-6.0169,-6.0692,-6.1372,-6.1764,-6.1921,-6.1581,-6.1136,-6.0766,-6.079,-6.0486,-6.0109,-6.012,-6.0013,-5.9793,-5.9264,-5.8947,-5.8806,-5.8594,-5.8523,-5.8594,-5.9017,-5.9378,-5.9731,-6.0084,-6.0279,-6.0447,-6.0447,-6.009,-5.9804,-5.9804,-5.9084,-5.8627,-5.8967,-5.9202,-5.9725,-6.064,-6.1044,-6.1111,-6.0711,-6.0355,-5.9971,-5.9508,-5.9483,-5.9483,-5.9483,-5.9483,-5.9483,-5.9483,-5.9809,-6.0007,-6.0076,-6.0426,-6.0463,-6.0261,-5.9827,-5.9179,-4.635,-4.6732,-4.7324,-4.7993,-4.9502,-5.1022,-5.1647,-5.2447,-5.3402,-5.4603,-5.5539,-5.6512,-5.7793,-5.9168,-6.0176,-6.0451,-6.0965,-6.1103,-6.0228,-5.9894,-5.9488,-5.8636,-5.8671,-5.8806,-5.8851,-6.0224,-6.1172,-6.134,-6.2324,-6.2942,-6.2942,-6.2257,-6.2068,-6.2515,-6.1803,-6.1642,-6.2086,-6.2086,-6.2086,-6.2086,-6.2086,-6.1884,-6.1574,-6.107,-6.0522,-5.9927,-5.9648,-5.9868,-6.0307,-5.9721,-5.9757,-6.0225,-6.0651,-6.0935,-6.1118,-6.0988,-6.0927,-6.097,-6.1577,-6.1842,-6.1894,-6.1327,-6.1167,-6.1032,-6.0881,-6.0935,-6.0914,-6.0758,-6.0598,-6.0323,-5.9457,-5.9088,-5.8876,-5.8594,-5.8627,-5.8829,-5.9254,-5.9845,-6.0482,-6.0811,-6.1229,-6.1595,-6.1595,-6.1092,-6.0829,-6.0829,-5.9732,-5.9124,-5.9542,-5.9751,-6.0248,-6.1241,-6.1487,-6.1344,-6.0737,-6.0431,-6.0048,-5.9483,-5.9483,-5.9483,-5.9483,-5.9483,-5.9483,-5.9483,-6.0035,-6.0387,-6.0563,-6.114,-6.1306,-6.1135,-6.057,-6.0188,-4.5954,-4.6894,-4.7967,-4.8836,-4.9951,-5.099,-5.1576,-5.2162,-5.2994,-5.4263,-5.5538,-5.6759,-5.8015,-5.982,-6.1079,-6.1079,-6.1594,-6.1856,-6.1165,-6.0517,-5.9877,-5.9273,-5.8339,-5.7808,-5.7825,-5.9843,-6.134,-6.1931,-6.2577,-6.2942,-6.2942,-6.2848,-6.2848,-6.2848,-6.2848,-6.2848,-6.2876,-6.2876,-6.2876,-6.2876,-6.2876,-6.2648,-6.2315,-6.1641,-6.1098,-6.0755,-6.0755,-6.1288,-6.2109,-6.2109,-6.2437,-6.3,-6.3,-6.2606,-6.2006,-6.2624,-6.2705,-6.2391,-6.1468,-6.1502,-6.1973,-6.1495,-6.1256,-6.111,-6.0984,-6.1179,-6.1345,-6.1112,-6.081,-6.0367,-5.9711,-5.9088,-5.8523,-5.8523,-5.8941,-5.9477,-5.9834,-6.0641,-6.1496,-6.1756,-6.1952,-6.1979,-6.1979,-6.1334,-6.0829,-6.0829,-6.0414,-6.0169,-6.0195,-6.0718,-6.1293,-6.1894,-6.1973,-6.1672,-6.0737,-6.066,-6.0355,-5.9585,-5.9483,-5.9483,-5.9483,-5.9483,-5.9483,-5.9483,-6.0035,-6.0588,-6.1165,-6.1718,-6.2245,-6.269,-6.1845,-6.1432,-4.6625,-4.7616,-4.8782,-4.9234,-5.0412,-5.1542,-5.2162,-5.2666,-5.3281,-5.4534,-5.5478,-5.6572,-5.8301,-5.9833,-6.1081,-6.1668,-6.2336,-6.262,-6.2141,-6.1924,-6.1046,-5.9119,-5.9168,-5.8904,-5.7644,-5.9295,-6.0554,-6.075,-6.2099,-6.2942,-6.2942,-6.2942,-6.2942,-6.2942,-6.2942,-6.2942,-6.2942,-6.2942,-6.2942,-6.2942,-6.2648,-6.2515,-6.2381,-6.1884,-6.1834,-6.211,-6.1808,-6.2302,-6.3156,-6.2668,-6.268,-6.3082,-6.3281,-6.316,-6.2902,-6.293,-6.3097,-6.3212,-6.236,-6.204,-6.1973,-6.1823,-6.1767,-6.176,-6.2254,-6.2465,-6.2565,-6.2624,-6.2263,-6.17,-6.0989,-6.0022,-5.9343,-5.9921,-5.9732,-5.9679,-6.0721,-6.1251,-6.1675,-6.2012,-6.2404,-6.2844,-6.3062,-6.2505,-6.1917,-6.1621,-6.1132,-6.0823,-6.0823,-6.1319,-6.1764,-6.1947,-6.1973,-6.1672,-6.0737,-6.0737,-6.0355,-5.9585,-5.9483,-5.9483,-5.9483,-5.9483,-5.9659,-6.0035,-6.0588,-6.1165,-6.1743,-6.2295,-6.2647,-6.2822,-6.2249,-6.1837,-4.7054,-4.8086,-4.9346,-4.9693,-5.0756,-5.1768,-5.2139,-5.2492,-5.3105,-5.4199,-5.5039,-5.6052,-5.7654,-5.9155,-6.0401,-6.1128,-6.1968,-6.2571,-6.2616,-6.2318,-6.1528,-5.999,-5.9957,-5.9428,-5.7982,-5.9239,-6.0216,-6.0469,-6.179,-6.2802,-6.3223,-6.3251,-6.3335,-6.3588,-6.3588,-6.3588,-6.3588,-6.3588,-6.3476,-6.3251,-6.276,-6.2515,-6.2381,-6.2403,-6.2505,-6.2824,-6.2743,-6.3252,-6.418,-6.3691,-6.3801,-6.4372,-6.4477,-6.4473,-6.4286,-6.4099,-6.3984,-6.3773,-6.2851,-6.2338,-6.2198,-6.2048,-6.1973,-6.2123,-6.2518,-6.289,-6.3152,-6.3145,-6.2786,-6.2319,-6.1747,-6.0847,-6.019,-6.0645,-6.048,-6.0454,-6.1113,-6.1668,-6.2091,-6.2285,-6.2724,-6.3185,-6.3433,-6.3017,-6.2422,-6.2048,-6.1659,-6.1424,-6.1424,-6.1738,-6.1973,-6.1973,-6.1973,-6.1672,-6.0737,-6.0813,-6.0508,-5.9585,-5.9637,-5.9663,-5.9508,-5.9684,-5.996,-6.0311,-6.109,-6.1642,-6.1994,-6.2546,-6.2822,-6.2822,-6.2413,-6.2002,-4.7264,-4.8281,-4.9528,-5.0168,-5.0926,-5.1518,-5.1518,-5.1855,-5.2377,-5.3275,-5.4236,-5.5239,-5.6079,-5.7859,-5.9335,-5.9646,-6.0796,-6.192,-6.2645,-6.1901,-6.1375,-6.1628,-6.0589,-5.956,-5.8847,-5.9617,-6.0413,-6.1088,-6.1678,-6.2549,-6.3729,-6.3785,-6.4094,-6.4809,-6.4837,-6.4837,-6.4837,-6.4837,-6.4431,-6.3785,-6.3223,-6.2771,-6.2504,-6.3022,-6.3193,-6.3003,-6.3584,-6.4333,-6.5168,-6.5168,-6.5712,-6.6595,-6.6595,-6.6314,-6.6031,-6.596,-6.5319,-6.4156,-6.289,-6.2565,-6.2571,-6.2097,-6.2022,-6.2048,-6.2022,-6.2518,-6.3078,-6.2928,-6.2649,-6.2324,-6.2149,-6.1433,-6.0829,-6.0882,-6.1304,-6.1553,-6.1237,-6.1905,-6.2598,-6.2598,-6.2842,-6.3037,-6.3037,-6.2794,-6.2422,-6.2048,-6.1973,-6.1973,-6.1973,-6.1973,-6.1973,-6.1973,-6.1973,-6.1672,-6.0737,-6.1117,-6.0889,-5.961,-5.9919,-6.0021,-5.9661,-6.0164,-6.0465,-6.049,-6.1466,-6.2019,-6.2044,-6.2571,-6.2822,-6.2822,-6.2413,-6.2274,-4.6616,-4.7268,-4.8289,-4.8662,-4.9539,-5.0376,-5.0646,-5.1448,-5.2239,-5.2787,-5.3605,-5.446,-5.519,-5.7079,-5.8929,-5.9885,-6.1565,-6.3101,-6.4231,-6.4167,-6.3578,-6.25,-6.2083,-6.1427,-6.0302,-6.0341,-6.0836,-6.1706,-6.1931,-6.2549,-6.3729,-6.3785,-6.4094,-6.4809,-6.4837,-6.4837,-6.4837,-6.4837,-6.4431,-6.3785,-6.3645,-6.3521,-6.3454,-6.3594,-6.4115,-6.4943,-6.5083,-6.5572,-6.6202,-6.6202,-6.6384,-6.6595,-6.6243,-6.6102,-6.596,-6.5704,-6.5419,-6.5176,-6.4824,-6.3911,-6.299,-6.2815,-6.2815,-6.2916,-6.3138,-6.3359,-6.3626,-6.383,-6.3551,-6.3136,-6.3216,-6.2263,-6.1449,-6.2326,-6.1885,-6.1463,-6.2058,-6.2168,-6.2123,-6.2123,-6.2422,-6.2646,-6.2347,-6.2422,-6.2422,-6.2048,-6.1973,-6.1973,-6.1973,-6.1973,-6.1973,-6.1973,-6.1973,-6.1672,-6.0737,-6.1117,-6.1145,-6.0656,-6.0991,-6.1402,-6.1759,-6.1834,-6.2114,-6.2522,-6.2484,-6.2678,-6.3109,-6.291,-6.2822,-6.2822,-6.2659,-6.272,-4.6895,-4.7066,-4.7643,-4.7786,-4.8786,-4.9752,-4.9784,-5.0714,-5.158,-5.1792,-5.2211,-5.2845,-5.3579,-5.5461,-5.7309,-5.8754,-6.069,-6.2604,-6.4138,-6.4243,-6.3971,-6.3475,-6.329,-6.2807,-6.1832,-6.1522,-6.1614,-6.2191,-6.2182,-6.2793,-6.415,-6.437,-6.4832,-6.5527,-6.5555,-6.5555,-6.5555,-6.5302,-6.4993,-6.4628,-6.4347,-6.4207,-6.4235,-6.4488,-6.4993,-6.5696,-6.5949,-6.6286,-6.6595,-6.6595,-6.6764,-6.696,-6.6468,-6.6579,-6.6998,-6.6254,-6.6084,-6.6064,-6.5672,-6.4916,-6.4165,-6.3919,-6.3626,-6.3406,-6.3873,-6.38,-6.38,-6.4165,-6.3921,-6.3541,-6.3646,-6.3097,-6.2458,-6.2857,-6.2455,-6.2001,-6.2295,-6.2123,-6.1973,-6.1973,-6.2198,-6.2273,-6.2048,-6.2198,-6.2273,-6.2048,-6.1973,-6.1973,-6.1973,-6.1973,-6.1973,-6.1973,-6.1973,-6.1747,-6.1041,-6.1653,-6.1785,-6.1273,-6.189,-6.2328,-6.2506,-6.2763,-6.2966,-6.3274,-6.3105,-6.3143,-6.3473,-6.3319,-6.3199,-6.3224,-6.345,-6.356,-4.7162,-4.6939,-4.6996,-4.7074,-4.82,-4.9176,-4.8908,-4.9828,-5.0732,-5.0567,-5.0719,-5.1095,-5.189,-5.3683,-5.5584,-5.7254,-5.9324,-6.1434,-6.3423,-6.352,-6.3744,-6.472,-6.4461,-6.398,-6.3343,-6.2907,-6.262,-6.262,-6.2705,-6.3367,-6.4752,-6.5109,-6.5674,-6.6539,-6.6595,-6.6595,-6.6595,-6.6061,-6.5752,-6.5668,-6.5134,-6.4949,-6.4977,-6.5443,-6.5724,-6.5836,-6.637,-6.6595,-6.6595,-6.6595,-6.6904,-6.7354,-6.6876,-6.7382,-6.8225,-6.7213,-6.6972,-6.7078,-6.6219,-6.5827,-6.5672,-6.506,-6.441,-6.4027,-6.4346,-6.4208,-6.4088,-6.4373,-6.4127,-6.3907,-6.3827,-6.3726,-6.3433,-6.2794,-6.2768,-6.2768,-6.2123,-6.1973,-6.1973,-6.1973,-6.1973,-6.1973,-6.1973,-6.1973,-6.1973,-6.1973,-6.1973,-6.1973,-6.1973,-6.1973,-6.1973,-6.1973,-6.1973,-6.1823,-6.142,-6.2268,-6.2556,-6.1839,-6.2716,-6.3155,-6.2894,-6.3304,-6.3561,-6.3561,-6.3542,-6.3554,-6.3554,-6.3647,-6.3701,-6.3701,-6.4228,-6.4505,-4.5613,-4.5111,-4.5297,-4.607,-4.698,-4.7766,-4.8241,-4.9419,-5.0241,-4.9816,-5.0469,-5.1265,-5.1699,-5.3737,-5.5945,-5.7829,-5.9798,-6.1974,-6.441,-6.4694,-6.5129,-6.6353,-6.5679,-6.5109,-6.4994,-6.3948,-6.3243,-6.3243,-6.3753,-6.43,-6.478,-6.4837,-6.5399,-6.6539,-6.6595,-6.6595,-6.6595,-6.6483,-6.6173,-6.5668,-6.5555,-6.5527,-6.5527,-6.564,-6.5949,-6.6426,-6.6539,-6.6595,-6.6595,-6.6595,-6.6651,-6.6792,-6.7185,-6.7494,-6.7719,-6.8028,-6.8225,-6.8237,-6.8053,-6.7589,-6.6843,-6.4953,-6.4854,-6.5363,-6.5116,-6.5322,-6.562,-6.5178,-6.4969,-6.4861,-6.4373,-6.3726,-6.3185,-6.3037,-6.2619,-6.2198,-6.2048,-6.1973,-6.1973,-6.1973,-6.1973,-6.1973,-6.1973,-6.1973,-6.1973,-6.1973,-6.1973,-6.1973,-6.1973,-6.1973,-6.1973,-6.1973,-6.1973,-6.1823,-6.142,-6.2268,-6.2789,-6.2819,-6.3779,-6.443,-6.4925,-6.503,-6.5082,-6.5082,-6.4309,-6.3958,-6.3958,-6.3811,-6.3701,-6.3701,-6.4228,-6.4705,-4.5718,-4.4903,-4.4855,-4.5415,-4.6352,-4.7189,-4.7431,-4.8259,-4.9001,-4.9136,-4.9285,-4.976,-5.1202,-5.2958,-5.4883,-5.7052,-5.8987,-6.1046,-6.3444,-6.4144,-6.4851,-6.578,-6.5766,-6.5521,-6.5203,-6.4303,-6.3675,-6.3675,-6.3942,-6.4296,-6.478,-6.5221,-6.5698,-6.6286,-6.6314,-6.6384,-6.6595,-6.6595,-6.6426,-6.6145,-6.6145,-6.6145,-6.6145,-6.6354,-6.6523,-6.6595,-6.6805,-6.6805,-6.6595,-6.6595,-6.6792,-6.7073,-6.7045,-6.7635,-6.845,-6.8112,-6.8393,-6.8899,-6.8373,-6.7913,-6.7252,-6.5898,-6.5864,-6.6402,-6.6156,-6.645,-6.6586,-6.5737,-6.5472,-6.5263,-6.4254,-6.3726,-6.3286,-6.2916,-6.2422,-6.2051,-6.2365,-6.2182,-6.2156,-6.2731,-6.2391,-6.2077,-6.2365,-6.2417,-6.2417,-6.2417,-6.2679,-6.2862,-6.2862,-6.2862,-6.2626,-6.2025,-6.1973,-6.1898,-6.1747,-6.2681,-6.3307,-6.344,-6.443,-6.5109,-6.5371,-6.5371,-6.5371,-6.5371,-6.4521,-6.4273,-6.4555,-6.4215,-6.4254,-6.453,-6.5082,-6.5459,-4.6432,-4.543,-4.5042,-4.5206,-4.6116,-4.6919,-4.6983,-4.7308,-4.7864,-4.8631,-4.8198,-4.8389,-5.0781,-5.2151,-5.3765,-5.6135,-5.7945,-5.9914,-6.2394,-6.3444,-6.4386,-6.5414,-6.5851,-6.5786,-6.5356,-6.4605,-6.416,-6.403,-6.3989,-6.4291,-6.5005,-6.5698,-6.6173,-6.6173,-6.6173,-6.6314,-6.6595,-6.6595,-6.6595,-6.6595,-6.6595,-6.6595,-6.6595,-6.6945,-6.6945,-6.6735,-6.7084,-6.7014,-6.6735,-6.6735,-6.6946,-6.7269,-6.6932,-6.7775,-6.9096,-6.8225,-6.8618,-6.9489,-6.8507,-6.8037,-6.7619,-6.6863,-6.6918,-6.7174,-6.7101,-6.7311,-6.7313,-6.6249,-6.5911,-6.5527,-6.4208,-6.3726,-6.3533,-6.2821,-6.2378,-6.2287,-6.2807,-6.265,-6.2676,-6.3643,-6.3016,-6.2469,-6.294,-6.3018,-6.3018,-6.3018,-6.3384,-6.3672,-6.3672,-6.3672,-6.3332,-6.2443,-6.2339,-6.2339,-6.2339,-6.328,-6.3855,-6.3855,-6.4822,-6.5449,-6.558,-6.558,-6.5632,-6.5737,-6.5043,-6.4845,-6.5282,-6.4938,-6.5025,-6.5478,-6.586,-6.6112,-4.7242,-4.6365,-4.584,-4.5635,-4.6219,-4.6955,-4.7212,-4.723,-4.7481,-4.8368,-4.8247,-4.8636,-5.0781,-5.196,-5.3448,-5.6029,-5.7508,-5.948,-6.2583,-6.3569,-6.4769,-6.6925,-6.6698,-6.6347,-6.6289,-6.5443,-6.4676,-6.403,-6.448,-6.4937,-6.5555,-6.623,-6.6525,-6.6525,-6.6525,-6.6595,-6.6595,-6.6595,-6.6595,-6.6595,-6.6595,-6.6595,-6.6595,-6.6665,-6.6805,-6.7154,-6.7154,-6.7154,-6.7154,-6.7154,-6.6973,-6.6735,-6.7213,-6.7888,-6.8618,-6.9068,-6.9658,-7.0135,-6.9444,-6.8899,-6.8281,-6.7619,-6.7629,-6.7742,-6.7349,-6.7808,-6.8168,-6.6942,-6.6317,-6.5775,-6.4535,-6.3946,-6.3533,-6.2821,-6.2667,-6.2833,-6.3238,-6.3481,-6.3695,-6.4157,-6.3901,-6.3541,-6.3593,-6.3593,-6.3593,-6.3593,-6.3646,-6.3672,-6.3672,-6.3672,-6.3646,-6.3541,-6.3515,-6.3515,-6.3515,-6.409,-6.4456,-6.4456,-6.5031,-6.5632,-6.6181,-6.6207,-6.6442,-6.6913,-6.6559,-6.634,-6.6391,-6.6022,-6.5909,-6.5985,-6.6032,-6.6112,-4.7102,-4.6245,-4.5794,-4.5822,-4.635,-4.6977,-4.7442,-4.7047,-4.6961,-4.7978,-4.7775,-4.7998,-4.9766,-5.1143,-5.2665,-5.4649,-5.6023,-5.7734,-6.0202,-6.1718,-6.3185,-6.4919,-6.5533,-6.6065,-6.6731,-6.5693,-6.4929,-6.4785,-6.5301,-6.5831,-6.6202,-6.6061,-6.5917,-6.5917,-6.5917,-6.6173,-6.6595,-6.6595,-6.6595,-6.6595,-6.6595,-6.6595,-6.6595,-6.7084,-6.7223,-6.7223,-6.7667,-6.7598,-6.7223,-6.7223,-6.6945,-6.6623,-6.6848,-6.7354,-6.7972,-6.8618,-6.8983,-6.9292,-6.977,-6.9292,-6.8506,-6.859,-6.8524,-6.8372,-6.8155,-6.8734,-6.9234,-6.7571,-6.7414,-6.7266,-6.5372,-6.4802,-6.4578,-6.3827,-6.3683,-6.387,-6.4392,-6.4289,-6.4421,-6.552,-6.4839,-6.4239,-6.4889,-6.4737,-6.4582,-6.4582,-6.4872,-6.503,-6.477,-6.4691,-6.4691,-6.4691,-6.4323,-6.398,-6.3749,-6.4428,-6.4769,-6.4534,-6.5083,-6.5501,-6.5737,-6.6103,-6.639,-6.6599,-6.6533,-6.665,-6.6987,-6.6637,-6.6416,-6.6467,-6.6525,-6.6197,-4.7433,-4.6705,-4.625,-4.6249,-4.6669,-4.7236,-4.7596,-4.7051,-4.6732,-4.7547,-4.7243,-4.7339,-4.8989,-5.0319,-5.1809,-5.3584,-5.5093,-5.677,-5.8784,-6.047,-6.208,-6.3703,-6.4758,-6.5761,-6.6753,-6.6026,-6.56,-6.5659,-6.5986,-6.6336,-6.6567,-6.596,-6.5704,-6.5846,-6.5846,-6.6031,-6.6595,-6.6595,-6.6595,-6.6595,-6.6595,-6.6595,-6.6595,-6.7125,-6.7333,-6.7362,-6.7805,-6.7736,-6.7362,-6.7223,-6.6945,-6.6595,-6.6595,-6.696,-6.755,-6.8028,-6.8421,-6.8843,-6.9517,-6.9248,-6.8642,-6.8894,-6.8797,-6.8558,-6.8434,-6.9021,-6.9486,-6.8013,-6.7976,-6.7949,-6.6285,-6.5627,-6.5324,-6.4794,-6.4622,-6.4759,-6.5522,-6.531,-6.5414,-6.689,-6.5967,-6.5228,-6.5962,-6.581,-6.5655,-6.5655,-6.5947,-6.6186,-6.6002,-6.6029,-6.6029,-6.6029,-6.5841,-6.5312,-6.4298,-6.503,-6.5372,-6.5057,-6.558,-6.5972,-6.6155,-6.6573,-6.6861,-6.7044,-6.7108,-6.7333,-6.7722,-6.7332,-6.7202,-6.7222,-6.6797,-6.6187,-4.8679,-4.8192,-4.7647,-4.7028,-4.7311,-4.7647,-4.762,-4.7292,-4.6995,-4.6995,-4.6538,-4.6776,-4.8931,-4.9873,-5.0991,-5.3158,-5.5126,-5.7183,-5.9362,-6.0529,-6.202,-6.4247,-6.4805,-6.5394,-6.6384,-6.6709,-6.6751,-6.645,-6.6258,-6.6336,-6.6567,-6.6243,-6.6173,-6.6595,-6.6595,-6.6595,-6.6595,-6.6595,-6.6595,-6.6595,-6.6595,-6.6595,-6.6595,-6.6595,-6.7014,-6.7679,-6.7362,-6.7431,-6.7679,-6.7362,-6.6945,-6.6595,-6.6595,-6.696,-6.7494,-6.7522,-6.8309,-6.9292,-6.8702,-6.8653,-6.8678,-6.8093,-6.8096,-6.8197,-6.8197,-6.8311,-6.8442,-6.8288,-6.7755,-6.7313,-6.7285,-6.6399,-6.5501,-6.5501,-6.5349,-6.5471,-6.6495,-6.6655,-6.6997,-6.7977,-6.7367,-6.6681,-6.6681,-6.6681,-6.6681,-6.6681,-6.6681,-6.6868,-6.7427,-6.7507,-6.7507,-6.7507,-6.841,-6.8039,-6.5634,-6.592,-6.6259,-6.6259,-6.6782,-6.7331,-6.7932,-6.7958,-6.8246,-6.8711,-6.8738,-6.8738,-6.8764,-6.8345,-6.8203,-6.8119,-6.6737,-6.5893,-4.9033,-4.8562,-4.7889,-4.7567,-4.7838,-4.8094,-4.7443,-4.7059,-4.6642,-4.6215,-4.5941,-4.6234,-4.752,-4.9198,-5.0962,-5.3158,-5.5504,-5.7508,-5.8863,-6.1233,-6.3031,-6.3803,-6.6153,-6.773,-6.7876,-6.8484,-6.8547,-6.7447,-6.7322,-6.7134,-6.7014,-6.6988,-6.6733,-6.6173,-6.6173,-6.6314,-6.6595,-6.6595,-6.6595,-6.6595,-6.6595,-6.682,-6.7213,-6.7496,-6.7707,-6.7987,-6.8405,-6.8107,-6.7362,-6.75,-6.7154,-6.6595,-6.6595,-6.696,-6.755,-6.8,-6.8421,-6.8843,-6.9196,-6.9058,-6.8744,-6.8771,-6.8592,-6.8456,-6.8456,-6.8641,-6.8978,-6.916,-6.839,-6.7557,-6.8044,-6.7852,-6.7322,-6.6507,-6.6487,-6.6752,-6.7017,-6.7443,-6.787,-6.85,-6.8481,-6.8273,-6.8182,-6.8217,-6.8194,-6.7792,-6.8087,-6.833,-6.8146,-6.8093,-6.8093,-6.8093,-6.8439,-6.8146,-6.6899,-6.7403,-6.7586,-6.7319,-6.7153,-6.7174,-6.7357,-6.7775,-6.8063,-6.8246,-6.8638,-6.8764,-6.8764,-6.868,-6.8469,-6.8237,-6.6891,-6.6197,-4.9038,-4.8861,-4.8392,-4.8112,-4.8274,-4.8261,-4.749,-4.7311,-4.709,-4.6187,-4.6187,-4.6624,-4.7568,-4.9231,-5.102,-5.2646,-5.4879,-5.6912,-5.8414,-6.0671,-6.2765,-6.4486,-6.7232,-6.8877,-6.85,-6.9364,-6.9406,-6.8136,-6.7949,-6.7776,-6.7431,-6.7382,-6.7059,-6.6243,-6.6467,-6.6608,-6.6595,-6.6595,-6.6595,-6.6595,-6.6595,-6.6792,-6.7157,-6.7439,-6.7608,-6.7819,-6.8326,-6.8139,0.0,-6.752,-6.7282,-6.6833,-6.6918,-6.7185,-6.7578,-6.8225,-6.8618,-6.8927,-6.9392,-6.9263,-6.891,-6.9046,-6.8731,-6.8274,-6.8274,-6.8655,-6.9184,-6.9634,-6.9057,-6.8461,-6.8847,-6.8579,-6.8045,-6.738,-6.7225,-6.741,-6.7867,-6.8212,-6.8611,-6.9384,-6.9417,-6.9259,-6.9194,-6.9203,-6.918,-6.8802,-6.9072,-6.929,-6.9266,-6.9213,-6.9213,-6.9213,-6.9401,-6.9294,-6.8704,-6.8519,-6.8329,-6.8087,-6.789,-6.7749,-6.7749,-6.8115,-6.8324,-6.8324,-6.8664,-6.8764,-6.8764,-6.8889,-6.8584,-6.7979,-6.7053,-6.6561,0.0,-4.8928,-4.8921,-4.869,-4.8629,-4.8361,-4.7716,-4.7938,0.0,-4.68,-4.7001,-4.7701,-4.874,-4.9892,-5.0988,-5.2025,-5.3802,-5.5864,-5.8018,-5.9411,-6.1792,-6.6058,-6.8068,-6.8937,-6.8589,-6.9394,-6.9501,-6.8584,-6.8374,-6.8148,-6.7747,-6.739,-6.7071,-6.6595,-6.7185,-6.7213,-6.6595,-6.6595,-6.6595,-6.6595,-6.6623,-6.6651,-6.6651,-6.6707,-6.6918,-6.7267,-6.7482,-6.758,-6.7598,-6.7496,-6.7341,-6.7226,-6.7439,-6.755,-6.7719,-6.8309,-6.8927,-6.9461,-6.9461,-6.9309,-6.9108,-6.9108,-6.8579,-6.7968,-6.7968,-6.8503,-6.9184,-6.9559,-6.9634,-6.9634,-6.9634,-6.8806,-6.7892,-6.7946,-6.7665,-6.773,-6.8887,-6.9041,-6.9249,-7.0443,-7.0225,-6.9846,-6.9846,-6.9846,-6.9818,-6.9791,-6.9818,-7.0036,-7.0578,-7.066,-7.066,-7.066,-7.1148,-7.1257,-7.0714,-6.9507,-6.8667,-6.8667,-6.8782,-6.8764,-6.8764,-6.8764,-6.8764,-6.8764,-6.8764,-6.879,-6.8816,-6.8968,-6.8656,-6.7761,-6.7354,-6.7012,-4.8335,0.0,-4.8636,-4.9073,-4.9272,-4.9153,0.0,-4.8113,-4.8105,-4.7186,-4.7081,-4.7798,-4.9872,-5.0324,-5.1222,-5.3779,-5.5624,-5.7202,-5.8505,-6.185,-6.4958,-6.7011,-6.8724,-6.9594,-6.9243,-6.9595,-6.981,-6.9597,-6.8741,-6.8148,-6.7747,-6.7817,-6.7495,-6.6595,-6.7185,-6.7213,-6.6595,-6.6595,-6.6595,-6.6595,-6.7073,-6.7297,-6.7297,-6.7803,-6.7846,-6.7439,-6.7792,-6.751,-6.6875,-6.7184,-6.7368,-6.7439,-6.7466,-6.8084,-6.8955,-6.9124,-6.9573,-7.0005,-6.9709,-6.957,-6.9484,-6.8882,-6.8503,-6.8351,-6.8351,-6.8503,-6.8731,-6.9108,-6.9259,-6.9184,-6.8882,-6.8579,-6.8307,-6.8152,-6.826,-6.8632,-6.939,-6.9875,-7.0388,-7.1121,-7.1148,-7.1067,-7.1067,-7.1067,-7.0904,-7.047,-7.0768,-7.1121,-7.1257,-7.1284,-7.1284,-7.1284,-7.1392,-7.1419,-7.1284,-7.0366,-6.9794,-6.9794,-6.9184,-6.8764,-6.8764,-6.8764,-6.8764,-6.8764,-6.8764,-6.9056,-6.9501,-6.965,-6.9566,-6.948,-6.9041,-6.8378,-4.7844,-4.8258,-4.8644,-4.9161,-4.9404,-4.928,-4.8353,-4.8258,-4.824,-4.7923,-4.8067,-4.8817,-5.0543,-5.1453,-5.2668,-5.4749,-5.6182,-5.797,-6.0499,-6.3385,-6.6085,-6.8422,-6.9257,-6.9794,-7.0092,-7.0123,-7.0068,-6.9936,-6.9232,-6.8557,-6.7982,-6.8119,-6.787,-6.7154,-6.7255,-6.7143,-6.6595,-6.6595,-6.6595,-6.6595,-6.6932,-6.7101,-6.7101,-6.7466,-6.741,-6.7101,-6.7594,-6.7439,-6.6931,-6.7496,-6.7778,-6.7863,-6.8427,-6.9076,-6.9725,-7.0007,-7.0317,-7.0526,-7.0082,-6.9858,-6.9559,-6.8731,-6.8503,-6.8503,-6.8503,-6.8655,-6.8806,-6.9033,-6.8958,-6.8806,-6.8806,-6.8503,-6.8334,-6.8652,-6.8943,-6.9397,-7.0569,-7.0869,-7.1169,-7.2041,-7.2043,-7.1881,-7.1881,-7.2125,-7.2206,-7.1881,-7.1935,-7.196,-7.196,-7.196,-7.196,-7.196,-7.2233,-7.2315,-7.2315,-7.1467,-7.0731,-7.0198,-6.9346,-6.8764,-6.8764,-6.8764,-6.8764,-6.8764,-6.9108,-6.9396,-6.9684,-7.0118,-7.0168,-6.9951,-6.9598,-6.9039,-4.7502,-4.8227,-4.8982,-4.9548,-4.9585,-4.9355,-4.8807,-4.8663,-4.8711,-4.8982,-4.9524,-5.0319,-5.1412,-5.2953,-5.4439,-5.5589,-5.664,-5.8662,-6.2705,-6.4384,-6.6251,-6.9202,-6.9635,-6.9992,-7.058,-7.0558,-7.0318,-6.9936,-6.947,-6.8963,-6.8313,-6.8313,-6.8148,-6.7679,-6.7431,-6.7084,-6.6735,-6.6665,-6.6595,-6.6595,-6.6679,-6.6679,-6.6595,-6.6707,-6.6679,-6.6553,-6.7129,-6.727,-6.7241,-6.803,-6.8327,-6.8414,-6.949,-6.9971,-7.0113,-7.0651,-7.082,-7.0747,-7.0452,-7.0007,-6.9559,-6.8806,-6.871,-6.8792,-6.8716,-6.8999,-6.946,-6.9385,-6.9075,-6.8792,-6.9171,-6.8694,-6.843,-6.9471,-6.979,-7.0255,-7.1791,-7.1763,-7.1816,-7.2857,-7.2668,-7.2423,-7.2613,-7.2993,-7.3292,-7.3209,-7.296,-7.2683,-7.26,-7.2683,-7.2683,-7.2683,-7.3043,-7.3292,-7.3292,-7.2433,-7.156,-7.0656,-6.9609,-6.9108,-6.9108,-6.9108,-6.9108,-6.9108,-6.9579,-6.9866,-6.9945,-7.0481,-7.0591,-7.0079,-6.9828,-6.927,-4.7698,-4.8787,-4.9882,-5.0948,-5.0867,-5.0461,-5.0345,-5.0316,-5.0316,-5.0365,-5.0888,-5.1948,-5.3896,-5.4586,-5.5445,-5.7416,-5.881,-6.0508,-6.3132,-6.4818,-6.623,-6.7343,-6.9613,-7.0694,-6.9719,-7.0341,-7.0555,-6.9965,-6.927,-6.8692,-6.8313,-6.8313,-6.8148,-6.7679,-6.761,-6.75,-6.7084,-6.6735,-6.6595,-6.6595,-6.7129,-6.7101,-6.6623,-6.7129,-6.686,-6.6102,-6.6539,-6.6847,-6.7054,-6.7436,-6.8225,-6.9197,-6.9394,-6.9787,-7.0266,-7.035,-7.0378,-7.0378,-7.0304,-7.0007,-6.9634,-6.9184,-6.9591,-7.0158,-6.9472,-7.0164,-7.1144,-7.0809,-7.0269,-6.9778,-6.9854,-6.9653,-6.971,-7.0875,-7.144,-7.1791,-7.2287,-7.2558,-7.2857,-7.3185,-7.2804,-7.2695,-7.3726,-7.3563,-7.3126,-7.2766,-7.296,-7.3043,-7.2683,-7.296,-7.3209,-7.3209,-7.3292,-7.3292,-7.3292,-7.2433,-7.1991,-7.2248,-7.099,-7.0337,-7.0337,-7.0337,-7.0337,-7.0337,-7.0415,-7.0677,-7.1147,-7.1218,-7.1122,-7.0757,-7.0745,-6.9948,-4.7949,-4.9316,-5.0755,-5.2491,-5.2324,-5.1644,-5.1328,-5.1084,-5.1208,-5.1822,-5.2063,-5.2652,-5.4357,-5.5546,-5.7006,-5.9422,-6.0863,-6.2485,-6.4764,-6.5566,-6.6591,-6.836,-7.0061,-7.0822,-7.004,-7.1007,-7.1162,-7.0024,-6.9726,-6.9312,-6.8586,-6.8557,-6.8489,-6.8324,-6.8119,-6.7942,-6.7805,-6.7223,-6.6805,-6.6595,-6.6876,-6.6876,-6.6595,-6.6664,-6.6566,-6.6314,-6.6465,-6.67,-6.7006,-6.7892,-6.858,-6.9112,-6.9889,-7.0521,-7.0996,-7.0996,-7.082,-7.06,-7.0378,-7.038,-7.0408,-7.0032,-7.0477,-7.1054,-7.0671,-7.1018,-7.1652,-7.1652,-7.1123,-7.0517,-7.049,-7.0493,-7.0785,-7.1898,-7.2576,-7.3232,-7.4195,-7.414,-7.4114,-7.4801,-7.4331,-7.3995,-7.4635,-7.4723,-7.4534,-7.411,-7.3756,-7.3483,-7.3229,-7.3398,-7.3617,-7.3998,-7.4179,-7.435,-7.4676,-7.3814,-7.2765,-7.1561,-7.1169,-7.0828,-7.0598,-7.0598,-7.0598,-7.0598,-7.0886,-7.1147,-7.1409,-7.1722,-7.1553,-7.0936,-7.0936,-7.027,-4.8289,-4.9819,-5.1366,-5.3288,-5.3292,-5.273,-5.2505,-5.2287,-5.2497,-5.3675,-5.3777,-5.4081,-5.5387,-5.7247,-5.9248,-6.1513,-6.2782,-6.4115,-6.6008,-6.6396,-6.7276,-6.9494,-7.0472,-7.0842,-7.0562,-7.1325,-7.1242,-6.9892,-6.9872,-6.9593,-6.8857,-6.8828,-6.8828,-6.8828,-6.8557,-6.8381,-6.8313,-6.7736,-6.7223,-6.6735,-6.6665,-6.6595,-6.6595,-6.6314,-6.6243,-6.6342,-6.6485,-6.6674,-6.694,-6.827,-6.8873,-6.9142,-7.0283,-7.0996,-7.1361,-7.1434,-7.1301,-7.1047,-7.0751,-7.0997,-7.1381,-7.0975,-7.1346,-7.1924,-7.1848,-7.1959,-7.2225,-7.2532,-7.2259,-7.1823,-7.1363,-7.1548,-7.2027,-7.2923,-7.3719,-7.4627,-7.5954,-7.5679,-7.5405,-7.6317,-7.5923,-7.5408,-7.5429,-7.5769,-7.5915,-7.5175,-7.46,-7.4079,-7.3774,-7.3967,-7.4406,-7.4688,-7.5138,-7.554,-7.5915,-7.5256,-7.3844,-7.1682,-7.1729,-7.1649,-7.1162,-7.1162,-7.1076,-7.099,-7.1409,-7.1618,-7.1618,-7.2062,-7.1879,-7.1138,-7.1138,-7.0606,-4.8799,-5.0318,-5.1559,-5.2832,-5.3295,-5.3661,-5.4547,-5.4912,-5.5275,-5.6,-5.6607,-5.7361,-5.8726,-6.075,-6.2592,-6.3656,-6.4303,-6.4933,-6.5441,-6.6998,-6.8451,-6.927,-7.0516,-7.1151,-7.0813,-7.0573,-7.0165,-6.9395,-6.9059,-6.8886,-6.8828,-6.8828,-6.8828,-6.8828,-6.876,-6.8625,-6.8313,-6.8245,-6.7873,-6.7154,-6.6805,-6.6595,-6.6595,-6.6595,-6.6173,-6.5589,-6.6457,-6.6823,-6.6844,-6.8216,-6.9124,-6.9653,-7.0128,-7.06,-7.0996,-7.1361,-7.1585,-7.1772,-7.1698,-7.1898,-7.2026,-7.1645,-7.2218,-7.2876,-7.2567,-7.3113,-7.3795,-7.3901,-7.4216,-7.4227,-7.2768,-7.296,-7.3694,-7.4301,-7.5263,-7.6119,-7.6318,-7.6705,-7.6872,-7.6642,-7.6497,-7.6375,-7.6108,-7.6417,-7.6228,-7.4821,-7.5181,-7.5224,-7.3827,-7.4917,-7.5612,-7.5262,-7.6066,-7.6537,-7.6129,-7.5937,-7.5386,-7.4354,-7.3847,-7.3296,-7.2837,-7.2837,-7.2603,-7.2167,-7.2219,-7.2245,-7.2245,-7.2271,-7.2056,-7.1615,-7.1615,-7.12,-4.8239,-4.9859,-5.1384,-5.3665,-5.5083,-5.58,-5.5388,-5.6132,-5.7108,-5.7743,-5.8263,-5.8958,-6.0235,-6.1932,-6.3515,-6.4468,-6.5304,-6.6087,-6.6888,-6.7901,-6.8837,-6.9554,-7.0926,-7.1512,-7.0593,-7.1073,-7.0887,-6.9387,-6.938,-6.9234,-6.8857,-6.8828,-6.8828,-6.8828,-6.8828,-6.876,-6.8625,-6.8381,-6.8176,-6.7873,-6.7223,-6.6805,-6.6595,-6.6314,-6.6297,-6.643,-6.6678,-6.7065,-6.7671,-6.8575,-6.9262,-6.9784,-7.0452,-7.0747,-7.0951,-7.1495,-7.1705,-7.1811,-7.1982,-7.2395,-7.2749,-7.2595,-7.3016,-7.3676,-7.3803,-7.3894,-7.4097,-7.4776,-7.4901,-7.467,-7.38,-7.4421,-7.5344,-7.5983,-7.6759,-7.7537,-7.8207,-7.8095,-7.7868,-7.8108,-7.7875,-7.7634,-7.7294,-7.6958,-7.6586,-7.6162,-7.5223,-7.4579,-7.4653,-7.5214,-7.5435,-7.5348,-7.5882,-7.6326,-7.6531,-7.6163,-7.5887,-7.5947,-7.4826,-7.3946,-7.3402,-7.3142,-7.304,-7.3234,-7.297,-7.2617,-7.2378,-7.2742,-7.2373,-7.1307,-7.1293,-7.1031,-4.7925,-4.9467,-5.1005,-5.3949,-5.5863,-5.6901,-5.6478,-5.7686,-5.9101,-5.9707,-6.0378,-6.1017,-6.1797,-6.3063,-6.4214,-6.4978,-6.5926,-6.6851,-6.7783,-6.8596,-6.935,-6.9989,-7.1039,-7.1353,-7.0478,-7.1003,-7.0769,-6.9252,-6.9341,-6.9224,-6.8654,-6.876,-6.8692,-6.846,-6.8692,-6.876,-6.8625,-6.8489,-6.8421,-6.8421,-6.7707,-6.7154,-6.6805,-6.658,-6.6604,-6.6907,-6.723,-6.7662,-6.8252,-6.901,-6.9559,-6.9933,-7.06,-7.1036,-7.1262,-7.1807,-7.2158,-7.2406,-7.2783,-7.3167,-7.3598,-7.3675,-7.4063,-7.4402,-7.4683,-7.467,-7.4613,-7.5505,-7.5729,-7.5732,-7.5652,-7.6107,-7.6809,-7.7451,-7.7899,-7.8457,-7.9436,-7.9129,-7.8816,-7.9227,-7.9245,-7.8912,-7.8262,-7.7817,-7.7443,-7.7071,-7.5813,-7.5115,-7.5504,-7.5893,-7.6141,-7.633,-7.6591,-7.6841,-7.7099,-7.6559,-7.6315,-7.6384,-7.5294,-7.4552,-7.448,-7.4047,-7.3804,-7.384,-7.3373,-7.2841,-7.2422,-7.281,-7.2448,-7.1519,-7.1711,-7.141,-4.8001,-4.9291,-5.0554,-5.3341,-5.5227,-5.6752,-5.8029,-5.9829,-6.1367,-6.1977,-6.3138,-6.3912,-6.3567,-6.4306,-6.5071,-6.5354,-6.628,-6.7144,-6.7783,-6.8973,-7.0018,-7.0657,-7.0715,-7.0744,-7.0715,-7.0163,-6.9525,-6.8886,-6.8828,-6.8625,-6.8284,-6.8625,-6.846,-6.7747,-6.8392,-6.8625,-6.8313,-6.8625,-6.8799,-6.877,-6.809,-6.7569,-6.7182,-6.7453,-6.7309,-6.7062,-6.826,-6.8568,-6.8327,-6.9309,-6.9933,-7.0378,-7.0775,-7.1291,-7.1829,-7.2273,-7.2922,-7.3727,-7.4184,-7.4402,-7.4683,-7.5067,-7.5249,-7.5249,-7.5249,-7.5369,-7.5619,-7.6114,-7.6901,-7.7776,-7.8321,-7.8077,-7.7863,-7.8481,-7.8621,-7.879,-7.9436,-7.9577,-7.9689,-7.9769,-8.0296,-8.0253,-7.8876,-7.8937,-7.8747,-7.7206,-7.7363,-7.7322,-7.629,-7.7072,-7.7932,-7.8529,-7.8583,-7.8432,-7.7897,-7.7359,-7.6502,-7.5473,-7.5323,-7.5504,-7.6068,-7.5657,-7.4889,-7.3893,-7.3399,-7.2868,-7.2448,-7.2448,-7.2476,-7.2657,-7.312,-7.2656,-4.761,-4.9005,-5.0881,-5.4524,-5.6445,-5.7974,-5.9886,-6.1106,-6.2151,-6.3225,-6.4125,-6.4497,-6.3999,-6.5599,-6.6941,-6.652,-6.7455,-6.8334,-6.8509,-6.9263,-7.0018,-7.0657,-7.1121,-7.1208,-7.0773,-7.0541,-6.9989,-6.8915,-6.8828,-6.8422,-6.7622,-6.8364,-6.8422,-6.7458,-6.8325,-6.876,-6.8625,-6.8963,-6.9136,-6.9136,-6.8905,-6.8363,-6.7569,-6.7496,-6.7676,-6.8053,-6.8894,-6.9556,-7.0125,-7.0441,-7.06,-7.073,-7.1005,-7.1212,-7.1569,-7.2792,-7.3511,-7.3832,-7.4668,-7.5001,-7.4991,-7.5173,-7.5249,-7.5335,-7.5792,-7.5972,-7.6215,-7.7395,-7.7921,-7.8441,-7.9574,-7.9996,-8.0136,-7.997,-7.9914,-8.0083,-8.0729,-8.0585,-8.0384,-8.0408,-8.0315,-7.9991,-7.9202,-7.8583,-7.804,-7.769,-7.7017,-7.6735,-7.7153,-7.7139,-7.7471,-7.8502,-7.785,-7.7539,-7.7843,-7.7359,-7.6877,-7.6671,-7.6601,-7.628,-7.5531,-7.4668,-7.4426,-7.4977,-7.376,-7.2871,-7.2527,-7.2887,-7.2788,-7.2098,-7.2664,-7.247,-4.7582,-4.9122,-5.1088,-5.5013,-5.7081,-5.8926,-6.153,-6.2728,-6.3545,-6.459,-6.5286,-6.557,-6.5065,-6.6382,-6.7434,-6.7091,-6.7861,-6.8538,-6.8799,-6.9147,-6.9641,-7.0279,-7.0686,-7.0773,-7.0366,-7.0337,-6.9931,-6.8915,-6.8963,-6.8721,-6.7978,-6.8596,-6.8557,-6.768,-6.8422,-6.8828,-6.8799,-6.9136,-6.947,-6.9737,-6.9441,-6.9088,-6.8699,-6.8427,-6.8513,-6.8909,-6.9814,-7.0554,-7.1142,-7.1142,-7.1069,-7.0979,-7.1277,-7.1522,-7.1737,-7.3026,-7.3688,-7.4172,-7.4953,-7.5297,-7.545,-7.5707,-7.5879,-7.6138,-7.654,-7.694,-7.7535,-7.8517,-7.8994,-7.9515,-8.0532,-8.1012,-8.1181,-8.0926,-8.0842,-8.0843,-8.1039,-8.0867,-8.0582,-8.0582,-8.0461,-8.0078,-7.9641,-7.8901,-7.8264,-7.82,-7.7544,-7.7309,-7.7687,-7.7593,-7.7796,-7.8529,-7.7959,-7.7559,-7.7574,-7.7306,-7.6814,-7.6317,-7.6497,-7.6199,-7.5374,-7.5038,-7.5021,-7.5499,-7.4149,-7.3367,-7.291,-7.3217,-7.3257,-7.2966,-7.3646,-7.3515,-4.7857,-4.9507,-5.1331,-5.5128,-5.7571,-5.9875,-6.2904,-6.4306,-6.5228,-6.5809,-6.6447,-6.6817,-6.6516,-6.6801,-6.7099,-6.7286,-6.7727,-6.816,-6.8741,-6.8886,-6.9118,-6.9699,-6.9815,-6.9844,-6.9786,-6.9786,-6.9525,-6.8886,-6.9098,-6.9106,-6.875,-6.9106,-6.8972,-6.818,-6.8635,-6.8895,-6.8837,-6.9261,-6.9825,-7.0486,-6.9921,-6.9939,-7.0487,-6.9868,-6.9621,-6.9892,-7.1065,-7.1579,-7.1579,-7.1579,-7.139,-7.1137,-7.1761,-7.2161,-7.2508,-7.3099,-7.3893,-7.476,-7.5144,-7.5526,-7.5906,-7.6445,-7.6927,-7.742,-7.746,-7.8163,-7.9095,-7.945,-8.0035,-8.0645,-8.1039,-8.1266,-8.1489,-8.1403,-8.1266,-8.1011,-8.0561,-8.0476,-8.0504,-8.056,-8.0668,-8.0541,-8.0161,-7.9724,-7.9223,-7.8862,-7.8719,-7.8514,-7.8067,-7.837,-7.861,-7.861,-7.861,-7.8254,-7.7294,-7.7204,-7.654,-7.5106,-7.5416,-7.5597,-7.5597,-7.6083,-7.6083,-7.5608,-7.4625,-7.387,-7.3463,-7.354,-7.3851,-7.4451,-7.5422,-7.5327,-4.7892,-4.9535,-5.1745,-5.5704,-5.9419,-6.2435,-6.3651,-6.4845,-6.5751,-6.5896,-6.6447,-6.6883,-6.6817,-6.7658,-6.8238,-6.7861,-6.8238,-6.8683,-6.8799,-6.9263,-6.9612,-6.9757,-7.0221,-7.0308,-6.9815,-6.9786,-6.9525,-6.8886,-6.9098,-6.8931,-6.814,-6.8844,-6.8902,-6.7977,-6.8739,-6.9203,-6.9203,-7.04,-7.1066,-7.1199,-7.1837,-7.2068,-7.188,-7.0558,-7.0533,-7.1611,-7.2157,-7.2345,-7.2345,-7.2057,-7.2229,-7.2572,-7.2907,-7.3414,-7.3965,-7.4868,-7.5335,-7.5602,-7.6057,-7.6312,-7.6445,-7.7043,-7.7275,-7.7442,-7.7805,-7.8459,-7.9242,-7.9368,-8.0064,-8.0777,-8.1093,-8.152,-8.1831,-8.1489,-8.1011,-8.0645,-8.0476,-8.0476,-8.0616,-8.1094,-8.0948,-8.068,-8.0714,-8.0356,-7.9988,-8.0057,-7.9254,-7.8867,-7.9109,-7.8792,-7.861,-7.861,-7.861,-7.8254,-7.7294,-7.7204,-7.6698,-7.563,-7.563,-7.5721,-7.5721,-7.5349,-7.5265,-7.5581,-7.4595,-7.4053,-7.3947,-7.4412,-7.4794,-7.4925,-7.6022,-7.6228,-4.8286,-5.0166,-5.2646,-5.7139,-6.0432,-6.2786,-6.3555,-6.4405,-6.5135,-6.5744,-6.6709,-6.7463,-6.7754,-6.8363,-6.8712,-6.8392,-6.8596,-6.8828,-6.8828,-6.9118,-6.9389,-6.9525,-7.0147,-7.0478,-7.0361,-7.0595,-7.0507,-6.9863,-7.0103,-6.9913,-6.9104,-6.9531,-6.956,-6.9104,-6.9428,-6.967,-6.9803,-7.0881,-7.1473,-7.1642,-7.2528,-7.2872,-7.2832,-7.1637,-7.1561,-7.2345,-7.253,-7.2602,-7.2631,-7.2416,-7.2576,-7.3065,-7.3477,-7.3885,-7.4392,-7.5221,-7.5602,-7.583,-7.6057,-7.6312,-7.6579,-7.7188,-7.7624,-7.7906,-7.8236,-7.8955,-7.9558,-7.9356,-7.9961,-8.0642,-8.0814,-8.1266,-8.1661,-8.1123,-8.0899,-8.0814,-8.0954,-8.0673,-8.0673,-8.1263,-8.1283,-8.1156,-8.12,-8.0885,-8.0472,-8.0074,-7.9767,-7.9578,-7.9551,-7.9488,-7.9479,-7.9479,-7.9207,-7.8686,-7.7721,-7.7364,-7.6751,-7.5813,-7.5721,-7.5721,-7.5721,-7.5328,-7.5326,-7.5641,-7.4899,-7.4664,-7.4933,-7.5243,-7.5745,-7.6288,-7.7072,-7.7297,-4.8402,-5.0986,-5.3939,-5.8635,-6.0837,-6.2206,-6.3169,-6.3762,-6.4294,-6.5519,-6.6796,-6.7928,-6.8683,-6.8828,-6.8857,-6.8973,-6.8886,-6.8828,-6.8895,-6.8895,-6.9001,-6.9337,-6.9872,-7.0388,-7.0872,-7.1343,-7.1432,-7.0931,-7.1207,-7.111,-7.0426,-7.0397,-7.0397,-7.0397,-7.0134,-7.0134,-7.0397,-7.1235,-7.1821,-7.2056,-7.2864,-7.3387,-7.3554,-7.2866,-7.2602,-7.2702,-7.2702,-7.2702,-7.2602,-7.2602,-7.285,-7.3282,-7.3801,-7.4241,-7.4762,-7.5278,-7.5602,-7.5906,-7.5906,-7.6219,-7.6724,-7.7286,-7.7953,-7.8436,-7.8602,-7.9204,-7.9629,-7.925,-7.9712,-8.0336,-8.042,-8.0786,-8.1122,-8.0673,-8.0899,-8.1266,-8.1236,-8.0926,-8.0813,-8.1431,-8.1787,-8.194,-8.194,-8.1642,-8.1127,-8.0334,-8.0436,-8.0382,-7.9989,-8.0209,-8.0428,-8.0428,-7.9967,-7.9254,-7.8266,-7.7721,-7.6948,-7.5905,-7.5721,-7.5721,-7.5721,-7.5721,-7.5721,-7.5721,-7.5458,-7.5466,-7.5906,-7.6114,-7.671,-7.7738,-7.8223,-7.8466,-4.7389,-5.1558,-5.5803,-5.9306,-6.0698,-6.1658,-6.2844,-6.3569,-6.4178,-6.4967,-6.6128,-6.7376,-6.8596,-6.8828,-6.9002,-6.9554,-6.9176,-6.8895,-6.9203,-6.9203,-6.9404,-6.9803,-6.9892,-7.0223,-7.0813,-7.096,-7.096,-7.0901,-7.1207,-7.111,-7.0426,-7.0397,-7.0397,-7.0397,-7.0397,-7.0397,-7.0397,-7.1947,-7.2707,-7.2804,-7.4031,-7.4659,-7.4681,-7.4238,-7.3672,-7.3157,-7.3157,-7.2915,-7.2602,-7.2602,-7.3255,-7.4328,-7.4415,-7.5169,-7.6196,-7.6283,-7.6387,-7.6387,-7.6387,-7.6811,-7.7315,-7.7569,-7.8126,-7.8602,-7.8465,-7.8779,-7.9054,-7.8597,-7.8998,-7.9536,-7.9865,-8.0331,-8.0673,-8.0983,-8.1209,-8.1236,-8.0701,-8.0954,-8.1459,-8.2078,-8.2794,-8.3222,-8.3222,-8.2911,-8.2593,-8.2501,-8.1698,-8.1188,-8.1096,-8.0635,-8.0428,-8.0428,-8.0347,-7.9804,-7.8838,-7.8277,-7.7555,-7.6479,-7.5996,-7.5721,-7.5721,-7.5721,-7.5721,-7.5721,-7.6126,-7.6439,-7.6517,-7.7509,-7.8057,-7.824,-7.8832,-7.9067,-4.8624,-5.2156,-5.5503,-5.7971,-5.9364,-6.0467,-6.1745,-6.279,-6.369,-6.4328,-6.588,-6.7524,-6.8596,-6.9118,-6.9622,-7.0467,-7.0098,-6.9612,-6.9662,-6.947,-6.9353,-6.9368,-6.9987,-7.0829,-7.1613,-7.223,-7.2573,-7.2573,-7.2708,-7.2544,-7.1821,-7.1762,-7.1649,-7.1261,-7.1261,-7.1261,-7.1261,-7.2349,-7.3283,-7.4031,-7.4599,-7.4869,-7.4899,-7.515,-7.4604,-7.348,-7.3298,-7.2986,-7.266,-7.3008,-7.3705,-7.4576,-7.4924,-7.565,-7.6538,-7.6538,-7.6612,-7.682,-7.6944,-7.7311,-7.787,-7.8398,-7.8607,-7.8746,-7.874,-7.8698,-7.8536,-7.813,-7.8726,-7.9488,-7.9654,-8.0391,-8.1151,-8.166,-8.1884,-8.1937,-8.2021,-8.1965,-8.219,-8.3173,-8.3643,-8.3941,-8.4008,-8.3681,-8.3207,-8.2932,-8.2225,-8.1676,-8.1351,-8.1378,-8.1297,-8.0944,-8.0618,-8.0047,-7.9021,-7.8335,-7.7426,-7.6114,-7.6127,-7.6061,-7.5721,-7.5721,-7.5878,-7.6218,-7.6479,-7.6767,-7.7107,-7.7917,-7.8492,-7.8806,-7.9067,-7.9172,-4.9336,-5.188,-5.4206,-5.652,-5.8058,-5.9393,-6.0642,-6.1919,-6.3022,-6.3661,-6.5362,-6.7123,-6.8169,-6.9108,-7.0196,-7.1258,-7.0584,-6.9948,-7.0135,-6.9574,-6.9185,-6.9191,-7.0017,-7.1065,-7.2298,-7.3252,-7.3903,-7.4121,-7.43,-7.4031,-7.3223,-7.3163,-7.2864,-7.2176,-7.2146,-7.2146,-7.2146,-7.2834,-7.3732,-7.4869,-7.4869,-7.4958,-7.5,-7.5508,-7.506,-7.3886,-7.3674,-7.3203,-7.266,-7.3327,-7.3995,-7.4605,-7.5169,-7.5733,-7.6312,-7.641,-7.6532,-7.6804,-7.721,-7.7653,-7.8237,-7.8821,-7.8912,-7.8818,-7.8888,-7.8569,-7.8159,-7.7973,-7.8593,-7.9436,-7.9688,-8.0561,-8.1516,-8.2138,-8.2443,-8.269,-8.3202,-8.3033,-8.3061,-8.4016,-8.4326,-8.44,-8.4399,-8.4029,-8.351,-8.3024,-8.247,-8.2029,-8.1595,-8.1921,-8.2029,-8.1568,-8.1134,-8.0534,-7.9637,-7.8892,-7.7912,-7.6599,-7.6626,-7.6586,-7.614,-7.6179,-7.6375,-7.6819,-7.6976,-7.7263,-7.7682,-7.8257,-7.8753,-7.9172,-7.9172,-7.9093,-4.8155,-5.0039,-5.2203,-5.5623,-5.7419,-5.8697,-5.9974,-6.1222,-6.2325,-6.2993,-6.4183,-6.5525,-6.6738,-6.8613,-7.0341,-7.1579,-7.0223,-6.9427,-7.0665,-6.9752,-6.9162,-6.9752,-6.9869,-7.063,-7.2268,-7.3049,-7.381,-7.4779,-7.5437,-7.5228,-7.3911,-7.3851,-7.3552,-7.2894,-7.2864,-7.2864,-7.2864,-7.3522,-7.418,-7.4869,-7.4869,-7.506,-7.5308,-7.5338,-7.4916,-7.4206,-7.4504,-7.3867,-7.266,-7.3327,-7.3966,-7.4502,-7.4844,-7.5283,-7.5916,-7.6089,-7.6071,-7.6003,-7.6854,-7.7702,-7.8398,-7.8375,-7.8641,-7.8916,-7.8698,-7.8226,-7.7888,-7.8397,-7.8593,-7.8873,-7.988,-8.0786,-8.1489,-8.1973,-8.2808,-8.34,-8.331,-8.3707,-8.4101,-8.4185,-8.4663,-8.4877,-8.4454,-8.4029,-8.351,-8.3024,-8.247,-8.2192,-8.2138,-8.2165,-8.2192,-8.2138,-8.2111,-8.1866,-8.1205,-8.0243,-7.9349,-7.8667,-7.7756,-7.7205,-7.7178,-7.736,-7.7394,-7.742,-7.7943,-7.8257,-7.8283,-7.8858,-7.9145,-7.9172,-7.9172,-7.8884,-4.7213,-4.8072,-4.9457,-5.3071,-5.4923,-5.6316,-5.7971,-5.9974,-6.16,-6.1832,-6.3382,-6.4998,-6.5874,-6.7903,-6.9897,-7.1078,-7.0482,-6.9903,-6.9963,-6.9352,-6.8772,-6.8334,-6.9038,-6.9889,-7.0973,-7.2442,-7.3673,-7.4465,-7.5359,-7.5707,-7.5198,-7.4779,-7.421,-7.3552,-7.3552,-7.3552,-7.3552,-7.421,-7.4493,-7.4525,-7.4525,-7.4813,-7.5298,-7.546,-7.5424,-7.5167,-7.5477,-7.4706,-7.3298,-7.3937,-7.4808,-7.5795,-7.5549,-7.5888,-7.6358,-7.5803,-7.5937,-7.6502,-7.6977,-7.7756,-7.8616,-7.9192,-7.9011,-7.8678,-7.8947,-7.8447,-7.7888,-7.8754,-7.9151,-7.9519,-8.0586,-8.1407,-8.2078,-8.2325,-8.2692,-8.3037,-8.2869,-8.3278,-8.3735,-8.4101,-8.4354,-8.4545,-8.4759,-8.4482,-8.3938,-8.351,-8.2932,-8.2334,-8.128,-8.1762,-8.1936,-8.1187,-8.1438,-8.1449,-8.0863,-8.0436,-7.9875,-7.9037,-7.8619,-7.8273,-7.7877,-7.7623,-7.7629,-7.7995,-7.8204,-7.8309,-7.8309,-7.8884,-7.9172,-7.9172,-7.9172,-7.9067,-4.6376,-4.7167,-4.8287,-5.1454,-5.3065,-5.44,-5.6408,-5.8436,-6.0003,-6.032,-6.2011,-6.3626,-6.4268,-6.6201,-6.8357,-7.0415,-6.9897,-6.9341,-6.9613,-6.8726,-6.7835,-6.7305,-6.8173,-6.9144,-6.9922,-7.1972,-7.3467,-7.412,-7.5289,-7.6006,-7.6006,-7.5379,-7.4693,-7.4036,-7.4172,-7.4142,-7.4006,-7.4591,-7.4731,-7.4525,-7.4625,-7.4931,-7.5442,-7.5736,-7.5742,-7.5626,-7.5817,-7.5115,-7.3966,-7.4955,-7.5827,-7.6491,-7.6443,-7.6646,-7.6788,-7.62,-7.6257,-7.6776,-7.7528,-7.8036,-7.8538,-7.9454,-7.9271,-7.8799,-7.9286,-7.9039,-7.8789,-7.9543,-8.0024,-8.0589,-8.1379,-8.2108,-8.271,-8.2687,-8.2553,-8.2401,-8.237,-8.273,-8.3278,-8.4073,-8.4185,-8.4293,-8.4821,-8.4663,-8.4211,-8.351,-8.3116,-8.2399,-8.0974,-8.1643,-8.1844,-8.0881,-8.1318,-8.1503,-8.116,-8.0944,-8.0463,-7.981,-7.9602,-7.9349,-7.8764,-7.8482,-7.8394,-7.8597,-7.8597,-7.8597,-7.8597,-7.8989,-7.9172,-7.9172,-7.9172,-7.9172,0.0,0.0,0.0,-5.0904,-5.1991,-5.31,-5.5348,-5.6528,-5.748,-5.8464,-5.994,-6.1249,-6.1919,-6.3389,-6.5727,-6.9554,-6.8417,-6.7599,-6.9516,-6.7806,-6.6546,-6.6832,-6.7463,-6.8236,-6.9249,-7.1405,-7.2994,-7.3702,-7.5294,-7.6248,-7.6278,-7.5654,-7.5001,-7.4347,-7.4663,-7.4663,-7.4318,-7.4663,-7.4899,-7.4899,-7.514,-7.5442,-7.5736,-7.5948,-7.5874,-7.5534,-7.5534,-7.5185,-7.4765,-7.6357,-7.6911,-7.6637,-7.7367,-7.7469,-7.7192,-7.7344,-7.7043,-7.6703,-7.8432,-7.854,-7.8147,-7.9023,-7.9338,-7.934,-7.9575,-8.0026,-8.0476,-8.0532,-8.1294,-8.2143,-8.2277,-8.2906,-8.3383,-8.2934,-8.2284,-8.1814,-8.1814,-8.2198,-8.2925,-8.3984,-8.4185,-8.4204,-8.4371,-8.4392,-8.4092,-8.3116,-8.2932,-8.2535,-8.1513,-8.1793,-8.2006,-8.1419,-8.1886,-8.2192,-8.2192,-8.1649,-8.1324,-8.1324,-8.0836,-8.0281,-7.9842,-7.9903,-7.9719,-7.9267,-7.9267,-7.9267,-7.9267,-7.9172,-7.9172,-7.9172,-7.9172,-7.9172,-4.3477,0.0,0.0,0.0,0.0,0.0,-5.1656,-5.354,-5.528,-5.5966,-5.7193,-5.8598,-6.0196,-6.1155,-6.2619,-6.5048,-6.5915,-6.6534,-6.7307,-6.6856,-6.637,-6.6157,-6.7202,-6.8024,-6.8332,-7.039,-7.2002,-7.2677,-7.4473,-7.5632,-7.5892,-7.523,-7.4861,-7.4761,-7.4525,-7.4387,-7.4318,-7.4387,-7.4416,-7.4398,-7.4433,-7.5037,-7.5978,-7.5787,-7.6181,-7.699,-7.6471,-7.6496,-7.6999,-7.6222,-7.7028,-7.8662,-7.7787,-7.7771,-7.8158,-7.7478,-7.7009,-7.6816,-7.7739,-7.819,-7.8557,-7.9292,-7.9546,-7.9575,-8.0111,-8.0335,-8.0758,-8.2,-8.2228,-8.2341,-8.3217,-8.3214,-8.2934,-8.2844,-8.2073,-8.1691,-8.2387,-8.2235,-8.2454,-8.3895,-8.3848,-8.3876,-8.4737,-8.4933,-8.4573,-8.3601,-8.351,-8.284,-8.1138,-8.1326,-8.1419,-8.095,-8.1326,-8.1793,-8.2192,-8.2029,-8.1948,-8.1948,-8.1457,-8.1084,-8.099,-8.0682,-8.0384,-8.0289,-7.9909,-7.9719,-7.9719,-7.9363,-7.9172,-7.9172,-7.9172,-7.9172,-4.3,-4.289,-4.3255,-4.5401,0.0,0.0,-4.9319,-5.0597,-5.1642,-5.2598,-5.4092,-5.568,-5.7025,-5.8463,-6.0112,-6.1899,-6.3222,-6.4517,-6.5919,-6.5932,-6.5711,-6.5548,-6.6447,-6.7057,-6.7057,-6.9136,-7.0741,-7.1207,-7.3131,-7.4484,-7.5064,-7.5383,-7.5268,-7.4693,-7.4594,-7.4387,-7.411,-7.4248,-7.4365,-7.4378,-7.4236,-7.4837,-7.6095,-7.5653,-7.6076,-7.7105,-7.6687,-7.7037,-7.7938,-7.6758,-7.7578,-7.9448,-7.8794,-7.8686,-7.8739,-7.8128,-7.7576,-7.7354,-7.8272,-7.8642,-7.8678,-7.9292,-7.9688,-8.0054,-8.0307,-8.0983,-8.1826,-8.2708,-8.3135,-8.3418,-8.4155,-8.3835,-8.3273,-8.2595,-8.1645,-8.1099,-8.1916,-8.1587,-8.1721,-8.412,-8.4073,-8.396,-8.4944,-8.5112,-8.4843,-8.412,-8.3784,-8.3024,-8.1232,-8.1232,-8.1138,-8.0479,-8.095,-8.1513,-8.1793,-8.2099,-8.2192,-8.2192,-8.17,-8.1419,-8.1419,-8.095,-8.0667,-8.0667,-8.0384,-8.01,-7.9909,-7.9459,-7.9172,-7.9172,-7.9172,-7.9172,-4.3523,-4.3527,-4.4075,-4.5409,-4.4969,0.0,-4.7544,-4.7838,-4.7799,-4.8958,-5.1035,-5.2738,-5.3397,-5.5733,-5.8032,-5.9422,-6.0409,-6.1982,-6.4856,-6.4954,-6.4764,-6.4764,-6.5402,-6.5773,-6.5773,-6.7844,-6.9311,-6.9612,-7.16,-7.3339,-7.4407,-7.5746,-7.5806,-7.4347,-7.4663,-7.4456,-7.3761,-7.4198,-7.4484,-7.471,-7.4483,-7.5012,-7.6183,-7.5843,-7.5985,-7.6612,-7.6538,-7.7066,-7.8114,-7.7572,-7.8223,-7.9521,-8.0024,-7.9841,-7.9181,-7.9101,-7.8565,-7.8055,-7.9413,-7.9423,-7.8901,-7.926,-8.0024,-8.0673,-8.0502,-8.1916,-8.3433,-8.3303,-8.407,-8.4888,-8.492,-8.4635,-8.4023,-8.2491,-8.1344,-8.08,-8.1199,-8.0824,-8.1333,-8.4395,-8.455,-8.4297,-8.5,-8.5112,-8.4905,-8.4371,-8.4001,-8.3116,-8.1525,-8.1272,-8.095,-8.0005,-8.0762,-8.1326,-8.1419,-8.1886,-8.2192,-8.2192,-8.1793,-8.1513,-8.1513,-8.1044,-8.0856,-8.0856,-8.0788,-8.0479,-8.0005,-7.9528,-7.9267,-7.9172,-7.9172,-7.9172,-4.3266,-4.4271,-4.5072,-4.3771,-4.5307,0.0,-4.3697,-4.5582,-4.7738,-4.6914,-4.8815,-5.0876,-5.2006,-5.3996,-5.5752,-5.6261,-5.8203,-6.0555,-6.3233,-6.352,-6.3457,-6.3457,-6.4473,-6.5042,-6.4814,-6.6875,-6.8305,-6.8536,-7.1429,-7.3809,-7.5538,-7.5005,-7.4557,-7.4278,-7.4387,-7.404,-7.334,-7.4473,-7.4923,-7.4591,-7.5408,-7.6124,-7.6885,-7.6811,-7.7018,-7.7328,-7.6762,-7.7357,-7.8757,-7.7776,-7.8529,-8.0235,-8.0044,-7.9986,-7.9978,-7.9632,-7.9254,-7.906,-7.9516,-7.9885,-8.0111,-8.0223,-8.1039,-8.2023,-8.234,-8.3416,-8.4665,-8.4988,-8.5061,-8.5071,-8.4945,-8.4635,-8.4246,-8.348,-8.2878,-8.2484,-8.2576,-8.2749,-8.3294,-8.428,-8.3947,-8.382,-8.4916,-8.5112,-8.4765,-8.3813,-8.3724,-8.2951,-8.0959,-8.075,-8.0573,-8.0005,-8.0479,-8.095,-8.1419,-8.1886,-8.2192,-8.2192,-8.2099,-8.2006,-8.2006,-8.2006,-8.1913,-8.1913,-8.1513,-8.1044,-8.0573,-8.0005,-7.9528,-7.9172,-7.9172,-7.9172,-4.4043,-4.3754,-4.3669,-4.4144,-4.4134,0.0,0.0,-4.4184,-4.4878,-4.5629,-4.6837,-4.8215,-4.9711,-5.1583,-5.3288,-5.4537,-5.5945,-5.7681,-5.9887,-6.1571,-6.2587,-6.2587,-6.3304,-6.3838,-6.3964,-6.5174,-6.6689,-6.8509,-7.1305,-7.3367,-7.4347,-7.4296,-7.4185,-7.407,-7.404,-7.3938,-7.3696,-7.4344,-7.4848,-7.504,-7.5232,-7.583,-7.6762,-7.6442,-7.6471,-7.6658,-7.6631,-7.7152,-7.7914,-7.7655,-7.8513,-7.9898,-7.9666,-7.9763,-8.0007,-8.0057,-7.973,-7.9423,-8.0136,-8.0476,-8.0476,-8.0476,-8.1319,-8.2333,-8.2482,-8.3818,-8.5299,-8.5348,-8.5571,-8.5741,-8.543,-8.5038,-8.4579,-8.3731,-8.3041,-8.2375,-8.2099,-8.243,-8.3037,-8.3918,-8.3936,-8.4045,-8.4944,-8.5112,-8.4826,-8.4031,-8.355,-8.2822,-8.148,-8.0669,-8.0311,-8.0413,-8.0539,-8.0895,-8.1378,-8.2158,-8.2626,-8.2626,-8.2737,-8.267,-8.2653,-8.2439,-8.2211,-8.2192,-8.1913,-8.1513,-8.1044,-8.0573,-8.0005,-7.9528,-7.9363,-7.9172,-4.5717,-4.4362,-4.3624,-4.5505,-4.3827,-4.2232,0.0,0.0,0.0,-4.4349,-4.5265,-4.6194,-4.7763,-4.9449,-5.1225,-5.3102,-5.3921,-5.4807,-5.62,-5.9045,-6.1077,-6.1338,-6.1675,-6.2121,-6.2773,-6.3357,-6.5064,-6.8625,-7.0731,-7.2071,-7.2759,-7.3497,-7.3852,-7.3691,-7.3761,-7.3874,-7.4092,-7.4353,-7.478,-7.5504,-7.5172,-7.5594,-7.6612,-7.6089,-7.5952,-7.6259,-7.6587,-7.6857,-7.704,-7.7491,-7.8252,-7.9229,-7.9307,-7.9449,-7.9769,-8.0127,-7.9987,-7.9675,-8.0558,-8.0814,-8.0645,-8.0645,-8.1573,-8.2616,-8.2652,-8.4018,-8.5614,-8.5329,-8.5737,-8.6152,-8.5798,-8.5353,-8.4793,-8.3779,-8.2947,-8.222,-8.1578,-8.1891,-8.2588,-8.3527,-8.4203,-8.4663,-8.5056,-8.5112,-8.4916,-8.4297,-8.355,-8.2812,-8.2138,-8.1124,-8.0464,-8.0864,-8.0989,-8.1188,-8.168,-8.2576,-8.3115,-8.325,-8.3333,-8.3291,-8.3277,-8.2738,-8.2387,-8.2192,-8.2192,-8.2006,-8.1513,-8.1044,-8.0479,-7.9909,-7.9459,-7.9172,-4.8767,-4.9421,-4.9552,-4.7463,-4.7205,-4.6272,-4.1856,0.0,-4.4276,-4.2439,0.0,-4.6692,-4.7468,0.0,0.0,-5.0925,-5.2514,-5.35,-5.3152,-5.5387,-5.7477,-5.861,-5.9044,-5.9614,-6.0484,-6.1622,-6.4146,-6.8567,-6.8385,-6.9516,-7.2641,-7.257,-7.2654,-7.3269,-7.3521,-7.3703,-7.369,-7.4864,-7.5479,-7.5504,-7.6399,-7.6869,-7.7015,-7.6927,-7.7249,-7.77,-7.6932,-7.6989,-7.7693,-7.7481,-7.8002,-7.876,-7.9151,-7.9714,-8.0136,-7.9427,-7.982,-8.0545,-7.994,-8.0476,-8.1291,-8.1291,-8.2421,-8.3869,-8.441,-8.5178,-8.5802,-8.577,-8.5531,-8.5291,-8.5202,-8.5112,-8.4815,-8.3883,-8.3582,-8.3217,-8.2269,-8.327,-8.4134,-8.3775,-8.4873,-8.5674,-8.5197,-8.5112,-8.4916,-8.4297,-8.3821,-8.3207,-8.223,-8.2037,-8.1775,-8.0988,-8.1621,-8.2156,-8.2266,-8.2792,-8.3305,-8.3874,-8.3861,-8.3888,-8.3902,-8.3359,-8.2789,-8.2192,-8.2192,-8.2192,-8.2099,-8.1606,-8.0856,-7.9909,-7.9459,-7.9172,-5.0328,-5.0146,-4.9811,-4.9345,-4.8526,-4.7148,-4.4594,-4.447,-4.4677,-4.3938,0.0,0.0,0.0,0.0,0.0,0.0,-5.0421,-5.1011,-5.1471,-5.1871,-5.3242,-5.629,-5.7109,-5.7767,-5.8753,-6.0128,-6.236,-6.5514,-6.6504,-6.8137,-7.0907,-7.1472,-7.2006,-7.2815,-7.2957,-7.3382,-7.414,-7.5043,-7.5713,-7.6056,-7.6874,-7.7241,-7.7241,-7.7241,-7.7514,-7.7866,-7.7376,-7.7222,-7.7212,-7.7453,-7.7828,-7.8192,-7.8694,-7.9681,-8.0795,-8.0288,-8.0584,-8.121,-8.1066,-8.1153,-8.1294,-8.177,-8.2729,-8.3749,-8.4341,-8.5139,-8.5709,-8.5442,-8.5442,-8.5531,-8.5531,-8.5291,-8.5023,-8.4573,-8.458,-8.429,-8.2894,-8.4134,-8.5278,-8.4392,-8.5207,-8.5955,-8.5702,-8.5337,-8.4916,-8.4297,-8.3884,-8.3473,-8.3064,-8.2589,-8.2314,-8.2325,-8.2322,-8.2485,-8.2905,-8.3394,-8.3941,-8.4498,-8.4526,-8.4526,-8.4526,-8.3603,-8.2952,-8.2708,-8.2355,-8.2099,-8.17,-8.1513,-8.1044,-8.0384,-7.9814,-7.9624,-5.2448,-5.1817,-5.1273,-5.1655,-5.0162,-4.837,-4.7603,-4.6511,-4.5649,-4.5701,-4.5785,0.0,0.0,0.0,-4.7942,-4.8526,0.0,-4.923,-4.9529,-4.9427,-5.0634,-5.4223,-5.5616,-5.6594,-5.7326,-5.8563,-6.0323,-6.275,-6.4275,-6.6271,-6.9157,-6.9972,-7.0992,-7.2311,-7.2515,-7.3211,-7.4488,-7.5185,-7.5824,-7.6538,-7.6927,-7.713,-7.713,-7.713,-7.7355,-7.7703,-7.7453,-7.7145,-7.6867,-7.7751,-7.7904,-7.769,-7.8746,-7.9935,-8.0852,-8.0694,-8.098,-8.1349,-8.1715,-8.1661,-8.1548,-8.2108,-8.2864,-8.3623,-8.4073,-8.4873,-8.5531,-8.5202,-8.5381,-8.562,-8.562,-8.5381,-8.5112,-8.4933,-8.511,-8.4842,-8.3225,-8.4742,-8.6138,-8.4871,-8.5514,-8.6236,-8.6068,-8.5506,-8.4944,-8.4522,-8.4225,-8.4079,-8.3945,-8.3413,-8.3041,-8.3334,-8.2986,-8.2905,-8.3518,-8.3898,-8.4355,-8.5123,-8.515,-8.5068,-8.4906,-8.3874,-8.325,-8.306,-8.2397,-8.1793,-8.1419,-8.1419,-8.1232,-8.0856,-8.0384,-8.0005,-5.5847,-5.616,-5.6249,-5.4601,-5.2881,-5.1104,-4.9352,-4.8612,-4.798,-4.6889,-4.7693,-4.8509,-4.8297,-4.849,-4.8269,0.0,-4.8446,0.0,0.0,-4.8466,-5.0646,-5.2537,-5.4641,-5.6077,-5.6394,-5.6795,-5.829,-6.1459,-6.1476,-6.3283,-6.7696,-6.7957,-6.9118,-7.1615,-7.2311,-7.3211,-7.4488,-7.5185,-7.5824,-7.6538,-7.6567,-7.6567,-7.6567,-7.6567,-7.684,-7.7391,-7.6782,-7.6642,-7.6896,-7.8601,-7.8434,-7.7356,-7.9616,-8.0311,-8.0044,-8.0044,-8.0445,-8.0963,-8.1149,-8.1718,-8.2274,-8.2302,-8.3145,-8.4157,-8.4185,-8.4635,-8.5112,-8.5112,-8.5112,-8.5112,-8.5112,-8.5112,-8.5023,-8.4573,-8.4838,-8.4842,-8.3225,-8.5166,-8.6667,-8.4982,-8.5877,-8.677,-8.6124,-8.5506,-8.5112,-8.5084,-8.5138,-8.5111,-8.4696,-8.4703,-8.4366,-8.3512,-8.3357,-8.3545,-8.4131,-8.4139,-8.4544,-8.572,-8.5747,-8.5502,-8.4906,-8.4309,-8.3684,-8.3087,-8.1996,-8.1419,-8.1419,-8.1419,-8.1419,-8.1419,-8.0856,-8.0384,-5.768,-5.7885,-5.7837,-5.6623,-5.5845,-5.4607,-5.1827,-5.0852,-5.0032,-4.7975,-4.7991,-4.8162,-4.7798,-4.8115,-4.8317,0.0,0.0,-4.7483,0.0,-4.8731,-4.9921,-5.0709,-5.2344,-5.3629,-5.4182,-5.4722,-5.6474,-5.9826,-6.0379,-6.2325,-6.636,-6.7405,-6.9031,-7.1586,-7.1876,-7.3008,-7.5156,-7.5388,-7.5824,-7.6538,-7.6869,-7.7101,-7.7101,-7.7101,-7.7449,-7.803,-7.7362,-7.7373,-7.7915,-7.8881,-7.885,-7.8351,-8.0006,-7.992,-7.9044,-7.9839,-8.0431,-8.0881,-8.1092,-8.1604,-8.2302,-8.2302,-8.3173,-8.4185,-8.4185,-8.4635,-8.5112,-8.5112,-8.5112,-8.5112,-8.5112,-8.5112,-8.5023,-8.4933,-8.5627,-8.5921,-8.4223,-8.5841,-8.7271,-8.5971,-8.6032,-8.6433,-8.663,-8.6124,-8.573,-8.573,-8.5718,-8.5765,-8.5864,-8.5884,-8.5479,-8.4595,-8.439,-8.4461,-8.4746,-8.5002,-8.5363,-8.5774,-8.5774,-8.5692,-8.5475,-8.4617,-8.3804,-8.3211,-8.2022,-8.1162,-8.0384,-8.0762,-8.0762,-8.0384,-8.0573,-8.0573,-6.009,-6.0159,-6.0002,-5.9244,-5.8513,-5.7513,-5.5305,-5.4021,-5.282,-5.1017,-5.0201,-4.9654,-4.9029,-4.872,-4.8278,0.0,0.0,0.0,0.0,-4.8141,-4.8916,-4.9423,-5.1004,-5.2301,-5.2861,-5.3497,-5.5137,-5.8058,-5.9045,-6.099,-6.4386,-6.6012,-6.8015,-7.057,-7.1324,-7.2805,-7.5127,-7.5621,-7.6056,-7.6538,-7.7333,-7.7507,-7.7072,-7.7304,-7.7653,-7.803,-7.7595,-7.7769,-7.8494,-7.954,-7.9478,-7.8825,-8.0483,-8.0087,-7.8788,-8.001,-8.0832,-8.1371,-8.1405,-8.1802,-8.2302,-8.2302,-8.3173,-8.4185,-8.4185,-8.4635,-8.5112,-8.5112,-8.5112,-8.5112,-8.5112,-8.5112,-8.5169,-8.5393,-8.6068,-8.6342,-8.4984,-8.6208,-8.726,-8.6379,-8.6068,-8.6236,-8.6883,-8.6461,-8.6011,-8.6011,-8.6405,-8.6628,-8.6383,-8.6376,-8.608,-8.511,-8.4871,-8.4773,-8.4969,-8.5358,-8.558,-8.5774,-8.5774,-8.5774,-8.5774,-8.4915,-8.4005,-8.3221,-8.2126,-8.0968,-7.9909,-8.0289,-8.0194,-7.9909,-8.0289,-8.0384]},{"header":{"parameterUnit":"m.s-1","parameterCategory":1,"la1":30.6,"la2":29.2853,"lo1":-89.7004,"lo2":-87.6739,"dy":0.0162,"dx":0.0183,"nx":112,"ny":82,"refTime":"2024-03-23T12:00:00:Z","depth":0,"parameterNumber":3,"parameterNumberName":"V-component_of_WINDS"},"data":[0.0,0.0,0.0,0.0,0.0,0.0,0.0,0.0,0.0,0.0,0.0,0.0,0.0,0.0,0.0,0.0,0.0,0.0,0.0,0.0,0.0,0.0,0.0,0.0,0.0,0.0,0.0,0.0,0.0,0.0,0.0,0.0,0.0,0.0,0.0,0.0,0.0,0.0,0.0,0.0,0.0,0.0,0.0,0.0,0.0,0.0,0.0,0.0,0.0,0.0,0.0,0.0,0.0,0.0,0.0,0.0,0.0,0.0,0.0,0.0,0.0,0.0,0.0,0.0,0.0,0.0,0.0,0.0,0.0,0.0,0.0,0.0,0.0,0.0,0.0,0.0,0.0,0.0,0.0,0.0,0.0,0.0,0.0,0.0,0.0,0.0,0.0,0.0,0.0,0.0,3.5886,3.8105,4.0838,4.2787,4.3507,4.2796,4.1616,4.0018,0.0,0.0,0.0,0.0,0.0,0.0,0.0,0.0,0.0,0.0,0.0,0.0,0.0,0.0,0.0,0.0,0.0,0.0,0.0,0.0,0.0,0.0,0.0,0.0,0.0,0.0,0.0,0.0,0.0,0.0,0.0,0.0,0.0,0.0,0.0,0.0,0.0,0.0,0.0,0.0,0.0,0.0,0.0,0.0,0.0,0.0,0.0,0.0,0.0,0.0,0.0,0.0,0.0,0.0,0.0,0.0,0.0,0.0,0.0,0.0,0.0,0.0,0.0,0.0,0.0,0.0,0.0,0.0,0.0,0.0,0.0,0.0,0.0,0.0,0.0,0.0,0.0,0.0,0.0,0.0,0.0,0.0,0.0,0.0,0.0,0.0,0.0,0.0,0.0,0.0,0.0,0.0,0.0,0.0,0.0,0.0,0.0,0.0,0.0,0.0,0.0,0.0,0.0,0.0,3.7352,4.097,4.246,4.359,4.4761,4.3237,4.1901,4.0973,0.0,0.0,0.0,0.0,0.0,0.0,0.0,0.0,0.0,0.0,0.0,0.0,0.0,0.0,0.0,0.0,0.0,0.0,0.0,0.0,0.0,0.0,0.0,0.0,0.0,0.0,0.0,0.0,0.0,0.0,0.0,0.0,0.0,0.0,0.0,0.0,0.0,0.0,0.0,0.0,0.0,0.0,0.0,0.0,0.0,0.0,0.0,0.0,0.0,0.0,0.0,0.0,0.0,0.0,0.0,0.0,0.0,0.0,0.0,0.0,0.0,0.0,0.0,0.0,0.0,0.0,0.0,0.0,0.0,0.0,0.0,0.0,0.0,0.0,0.0,0.0,0.0,0.0,0.0,0.0,0.0,0.0,0.0,0.0,0.0,0.0,0.0,0.0,0.0,0.0,0.0,0.0,0.0,0.0,0.0,0.0,0.0,0.0,0.0,0.0,0.0,0.0,0.0,3.7882,3.9661,4.2801,4.3813,4.4595,4.5541,4.4538,4.3171,4.1616,4.0426,0.0,0.0,0.0,0.0,0.0,0.0,0.0,0.0,0.0,0.0,0.0,0.0,0.0,0.0,0.0,0.0,0.0,0.0,0.0,0.0,0.0,0.0,0.0,0.0,0.0,0.0,0.0,0.0,0.0,0.0,0.0,0.0,0.0,0.0,0.0,0.0,0.0,0.0,0.0,0.0,0.0,0.0,0.0,0.0,0.0,0.0,0.0,0.0,0.0,0.0,0.0,0.0,0.0,0.0,0.0,0.0,0.0,0.0,0.0,0.0,0.0,0.0,0.0,0.0,0.0,0.0,0.0,0.0,0.0,0.0,0.0,0.0,0.0,0.0,0.0,0.0,0.0,0.0,0.0,0.0,0.0,0.0,0.0,0.0,0.0,0.0,0.0,0.0,0.0,0.0,0.0,0.0,0.0,0.0,0.0,0.0,0.0,0.0,0.0,0.0,0.0,0.0,4.0041,4.171,4.4065,4.4715,4.537,4.6177,4.5595,4.4411,4.257,4.1548,0.0,0.0,0.0,0.0,0.0,0.0,0.0,0.0,0.0,0.0,0.0,0.0,0.0,0.0,0.0,0.0,0.0,0.0,0.0,0.0,0.0,0.0,0.0,0.0,0.0,0.0,0.0,0.0,0.0,0.0,0.0,0.0,0.0,0.0,0.0,0.0,0.0,0.0,0.0,0.0,0.0,0.0,0.0,0.0,0.0,0.0,0.0,0.0,0.0,0.0,0.0,0.0,0.0,0.0,0.0,0.0,0.0,0.0,0.0,0.0,0.0,0.0,0.0,0.0,0.0,0.0,0.0,0.0,0.0,0.0,0.0,0.0,0.0,0.0,0.0,0.0,0.0,0.0,0.0,0.0,0.0,0.0,0.0,0.0,0.0,0.0,0.0,0.0,0.0,0.0,0.0,0.0,0.0,0.0,0.0,0.0,0.0,0.0,0.0,0.0,0.0,0.0,4.1314,4.2981,4.4747,4.5039,4.5487,4.6486,4.587,4.5078,4.4091,4.2197,0.0,0.0,0.0,0.0,0.0,0.0,0.0,0.0,0.0,0.0,0.0,0.0,0.0,0.0,0.0,0.0,0.0,0.0,0.0,0.0,0.0,0.0,0.0,0.0,0.0,0.0,0.0,0.0,0.0,0.0,0.0,0.0,0.0,0.0,0.0,0.0,0.0,0.0,0.0,0.0,0.0,0.0,0.0,0.0,0.0,0.0,0.0,0.0,0.0,0.0,0.0,0.0,0.0,0.0,0.0,0.0,0.0,0.0,0.0,0.0,0.0,0.0,0.0,0.0,0.0,0.0,0.0,0.0,0.0,0.0,0.0,0.0,0.0,0.0,0.0,0.0,0.0,0.0,0.0,0.0,0.0,0.0,0.0,0.0,0.0,0.0,0.0,0.0,0.0,0.0,0.0,0.0,0.0,0.0,0.0,0.0,0.0,0.0,0.0,0.0,0.0,0.0,4.2785,4.4735,4.6288,4.707,4.7477,4.7409,4.7221,4.6427,4.4739,0.0,0.0,0.0,0.0,0.0,0.0,0.0,0.0,0.0,0.0,0.0,0.0,0.0,0.0,0.0,0.0,0.0,0.0,0.0,0.0,0.0,0.0,0.0,0.0,0.0,0.0,0.0,0.0,0.0,0.0,0.0,0.0,0.0,0.0,0.0,0.0,0.0,0.0,0.0,0.0,0.0,0.0,0.0,0.0,0.0,0.0,0.0,0.0,0.0,0.0,0.0,0.0,0.0,0.0,0.0,0.0,0.0,0.0,0.0,0.0,0.0,0.0,0.0,0.0,0.0,0.0,0.0,0.0,0.0,0.0,0.0,0.0,0.0,0.0,0.0,0.0,0.0,0.0,0.0,0.0,0.0,0.0,0.0,0.0,0.0,0.0,0.0,0.0,0.0,0.0,0.0,0.0,0.0,0.0,0.0,0.0,0.0,0.0,0.0,0.0,0.0,0.0,4.2087,4.4267,4.6345,4.7833,4.8816,4.9121,4.8644,4.8489,4.7561,4.5529,0.0,0.0,0.0,0.0,0.0,0.0,0.0,0.0,0.0,0.0,0.0,0.0,0.0,0.0,0.0,0.0,0.0,0.0,0.0,0.0,0.0,0.0,0.0,0.0,0.0,0.0,0.0,0.0,0.0,0.0,0.0,0.0,0.0,0.0,0.0,0.0,0.0,0.0,0.0,0.0,0.0,0.0,0.0,0.0,0.0,0.0,0.0,0.0,0.0,0.0,0.0,0.0,0.0,0.0,0.0,0.0,0.0,0.0,0.0,0.0,0.0,0.0,0.0,0.0,0.0,0.0,0.0,0.0,0.0,0.0,0.0,0.0,0.0,0.0,0.0,0.0,0.0,0.0,0.0,0.0,0.0,0.0,0.0,0.0,0.0,0.0,0.0,0.0,0.0,0.0,0.0,0.0,0.0,0.0,0.0,0.0,0.0,0.0,0.0,0.0,0.0,0.0,4.4037,4.5877,4.7628,4.9317,4.9855,5.0072,5.0234,4.9514,4.8395,0.0,0.0,0.0,0.0,0.0,0.0,0.0,0.0,0.0,0.0,0.0,0.0,0.0,0.0,0.0,0.0,0.0,0.0,0.0,0.0,0.0,0.0,0.0,0.0,0.0,0.0,0.0,0.0,0.0,0.0,0.0,0.0,0.0,0.0,0.0,0.0,0.0,0.0,0.0,0.0,0.0,0.0,0.0,0.0,0.0,0.0,0.0,0.0,0.0,0.0,0.0,0.0,0.0,0.0,0.0,0.0,0.0,0.0,0.0,0.0,0.0,0.0,0.0,0.0,0.0,0.0,0.0,0.0,0.0,0.0,0.0,0.0,0.0,0.0,0.0,0.0,0.0,0.0,0.0,0.0,0.0,0.0,0.0,0.0,0.0,0.0,0.0,0.0,0.0,0.0,0.0,0.0,0.0,0.0,0.0,0.0,0.0,0.0,0.0,0.0,0.0,0.0,0.0,4.6002,4.842,5.0388,5.1348,5.2468,5.256,5.1288,5.1062,4.9946,4.736,0.0,0.0,0.0,0.0,0.0,0.0,0.0,0.0,0.0,0.0,0.0,0.0,0.0,0.0,0.0,0.0,0.0,0.0,0.0,0.0,0.0,0.0,0.0,0.0,0.0,0.0,0.0,0.0,0.0,0.0,0.0,0.0,0.0,0.0,0.0,0.0,0.0,0.0,0.0,0.0,0.0,0.0,0.0,0.0,0.0,0.0,0.0,0.0,0.0,0.0,0.0,0.0,0.0,0.0,0.0,0.0,0.0,0.0,0.0,0.0,0.0,0.0,0.0,0.0,0.0,0.0,0.0,0.0,0.0,0.0,0.0,0.0,0.0,0.0,0.0,0.0,0.0,0.0,0.0,0.0,0.0,0.0,0.0,0.0,0.0,0.0,0.0,0.0,0.0,0.0,0.0,0.0,0.0,0.0,0.0,0.0,0.0,0.0,0.0,0.0,0.0,0.0,4.8026,5.0481,5.2535,5.3811,5.4701,5.4715,5.3581,5.2838,5.1402,4.8988,0.0,0.0,0.0,0.0,0.0,0.0,0.0,0.0,0.0,0.0,0.0,0.0,0.0,0.0,0.0,0.0,0.0,0.0,0.0,0.0,0.0,0.0,0.0,0.0,0.0,0.0,0.0,0.0,0.0,0.0,0.0,0.0,0.0,0.0,0.0,0.0,0.0,0.0,0.0,0.0,0.0,0.0,0.0,0.0,0.0,0.0,0.0,0.0,0.0,0.0,0.0,0.0,0.0,0.0,0.0,0.0,0.0,0.0,0.0,0.0,0.0,0.0,0.0,0.0,0.0,0.0,0.0,0.0,0.0,0.0,0.0,0.0,0.0,0.0,0.0,0.0,0.0,0.0,0.0,0.0,0.0,0.0,0.0,0.0,0.0,0.0,0.0,0.0,0.0,0.0,0.0,0.0,0.0,0.0,0.0,0.0,0.0,0.0,0.0,0.0,0.0,0.0,4.9936,5.2068,5.4145,5.6308,5.6591,5.6566,5.6378,5.4723,5.2959,5.1119,0.0,0.0,0.0,0.0,0.0,0.0,0.0,0.0,0.0,0.0,0.0,0.0,0.0,0.0,0.0,0.0,0.0,0.0,0.0,0.0,0.0,0.0,0.0,0.0,0.0,0.0,0.0,0.0,0.0,0.0,0.0,0.0,0.0,0.0,0.0,0.0,0.0,0.0,0.0,0.0,0.0,0.0,0.0,0.0,0.0,0.0,0.0,0.0,0.0,0.0,0.0,0.0,0.0,0.0,0.0,0.0,0.0,0.0,0.0,0.0,4.0952,3.906,0.0,0.0,0.0,0.0,0.0,0.0,0.0,0.0,0.0,0.0,0.0,0.0,0.0,0.0,0.0,0.0,0.0,0.0,0.0,0.0,0.0,0.0,0.0,0.0,0.0,0.0,0.0,0.0,0.0,0.0,0.0,0.0,0.0,0.0,0.0,0.0,0.0,0.0,0.0,0.0,5.1515,5.3383,5.5279,5.7298,5.797,5.78,5.6702,5.6284,5.5054,5.2515,5.0762,0.0,0.0,0.0,0.0,0.0,0.0,0.0,0.0,0.0,0.0,0.0,0.0,0.0,0.0,0.0,0.0,0.0,0.0,0.0,0.0,0.0,0.0,0.0,0.0,0.0,0.0,0.0,0.0,0.0,0.0,0.0,0.0,0.0,0.0,0.0,0.0,0.0,0.0,0.0,0.0,0.0,0.0,0.0,0.0,0.0,0.0,0.0,0.0,0.0,0.0,0.0,0.0,0.0,0.0,0.0,0.0,0.0,0.0,0.0,4.5484,4.3378,0.0,0.0,0.0,0.0,0.0,0.0,0.0,0.0,0.0,0.0,0.0,0.0,0.0,0.0,0.0,0.0,0.0,0.0,0.0,0.0,0.0,0.0,0.0,0.0,0.0,0.0,0.0,0.0,0.0,0.0,0.0,0.0,0.0,0.0,0.0,0.0,0.0,0.0,0.0,0.0,5.3164,5.5139,5.7139,5.9394,5.9527,5.9364,5.9071,5.8222,5.6866,5.4864,5.296,0.0,0.0,0.0,0.0,0.0,0.0,0.0,0.0,0.0,0.0,0.0,0.0,0.0,0.0,0.0,0.0,0.0,0.0,0.0,0.0,0.0,0.0,0.0,0.0,0.0,0.0,0.0,0.0,0.0,0.0,0.0,0.0,0.0,0.0,0.0,0.0,0.0,0.0,0.0,0.0,0.0,0.0,0.0,0.0,0.0,0.0,0.0,0.0,0.0,0.0,0.0,0.0,0.0,5.1091,5.1699,5.2724,5.2838,5.2918,5.293,5.0223,4.8374,4.7242,4.593,0.0,0.0,0.0,0.0,0.0,0.0,0.0,0.0,0.0,0.0,0.0,0.0,0.0,0.0,0.0,0.0,0.0,0.0,0.0,0.0,0.0,0.0,5.1061,5.222,5.2809,5.2176,4.8769,0.0,0.0,0.0,0.0,0.0,0.0,0.0,0.0,0.0,0.0,0.0,5.4431,5.6622,5.8866,6.1188,6.095,6.0876,6.1434,6.0063,5.8602,5.7309,5.5288,5.3821,0.0,0.0,0.0,0.0,0.0,0.0,0.0,0.0,0.0,0.0,0.0,0.0,0.0,0.0,0.0,0.0,0.0,0.0,0.0,0.0,0.0,0.0,0.0,0.0,0.0,0.0,0.0,0.0,0.0,0.0,0.0,0.0,3.9355,3.9745,0.0,0.0,0.0,0.0,0.0,0.0,0.0,0.0,0.0,0.0,0.0,0.0,0.0,4.9957,5.0494,5.1948,5.2899,5.3312,5.3495,5.3862,5.4309,5.4851,5.4934,5.4722,5.5635,0.0,5.1052,5.0782,0.0,0.0,0.0,0.0,0.0,0.0,0.0,0.0,0.0,0.0,0.0,0.0,0.0,0.0,0.0,0.0,0.0,0.0,0.0,0.0,0.0,0.0,5.4929,5.619,5.6758,5.6699,5.5699,5.2632,4.9815,4.888,4.8777,4.8779,0.0,0.0,0.0,0.0,0.0,0.0,5.4743,5.7138,5.9205,6.0688,6.1729,6.1961,6.1222,6.0992,6.0326,5.8967,5.7555,5.6326,5.5301,5.3638,0.0,0.0,0.0,0.0,0.0,0.0,0.0,0.0,0.0,0.0,0.0,0.0,0.0,0.0,0.0,0.0,0.0,0.0,0.0,0.0,0.0,0.0,0.0,0.0,0.0,0.0,0.0,0.0,0.0,4.1143,4.2317,4.2306,4.2805,4.2796,0.0,0.0,0.0,0.0,0.0,0.0,0.0,0.0,0.0,5.1302,5.2205,5.3246,5.46,5.5225,5.5908,5.6593,5.6507,5.6708,5.7282,5.7542,5.7599,5.7481,5.8146,5.7538,5.5952,5.4778,5.3392,5.2041,0.0,0.0,0.0,0.0,5.0191,5.0191,5.0306,5.0313,5.0316,5.0601,0.0,0.0,0.0,0.0,0.0,0.0,0.0,5.3259,5.4554,5.5742,5.6989,5.8322,5.9135,5.9423,5.8652,5.707,5.5031,5.2625,5.1967,5.1704,5.1309,5.133,0.0,0.0,0.0,5.5045,5.6423,5.8202,5.9988,6.1853,6.203,6.2216,6.2699,6.247,6.1866,6.0852,5.9597,5.8663,5.8187,5.6232,5.4756,0.0,0.0,0.0,0.0,0.0,0.0,0.0,0.0,0.0,0.0,0.0,0.0,0.0,0.0,0.0,0.0,0.0,0.0,0.0,0.0,0.0,0.0,0.0,0.0,0.0,0.0,0.0,0.0,4.3231,4.4518,4.4658,4.5331,4.558,0.0,0.0,0.0,0.0,0.0,0.0,5.1366,5.1424,5.2452,5.4743,5.5193,5.613,5.7624,5.774,5.8144,5.8956,5.8668,5.8813,5.9306,5.9306,5.9306,5.9306,5.951,5.9568,5.9306,5.7856,5.6471,5.523,5.5389,5.4744,5.3772,5.4099,5.393,5.3666,5.3723,5.3699,5.3594,5.3937,5.3928,5.3778,5.36,0.0,0.0,0.0,0.0,5.5656,5.6959,5.7803,5.8679,6.0019,6.0966,6.1437,6.0648,6.0529,5.9533,5.6088,5.5043,5.4619,5.4347,5.4057,0.0,5.4579,5.5672,5.6908,5.7974,5.9387,6.0978,6.2782,6.2687,6.2856,6.3917,6.3603,6.3051,6.2383,6.1515,6.0998,6.0849,5.8974,5.7504,5.6555,0.0,0.0,0.0,0.0,0.0,0.0,0.0,0.0,0.0,0.0,0.0,0.0,0.0,0.0,0.0,0.0,0.0,0.0,0.0,0.0,0.0,0.0,0.0,0.0,0.0,0.0,0.0,0.0,0.0,4.6897,4.6748,0.0,0.0,0.0,0.0,4.9133,5.0252,5.158,5.3257,5.4483,5.5624,5.6726,5.729,5.7837,5.8251,5.8575,5.8898,5.9306,5.9277,5.9277,5.9306,5.9306,5.9306,5.9335,6.0209,6.0297,5.9682,5.9909,5.9411,5.8483,5.9129,5.8745,5.7853,5.7268,5.7297,5.7409,5.6848,5.7024,5.757,5.7833,5.768,5.7298,5.6674,5.6555,0.0,0.0,5.7401,5.8238,5.9553,5.9967,6.0326,6.1672,6.251,6.2901,6.2524,6.2698,6.195,5.8634,5.8048,5.7963,5.7634,0.0,5.7129,5.7102,5.7483,5.8003,5.8665,6.0665,6.2145,6.2558,6.3936,6.4619,6.4033,6.3946,6.3719,6.308,6.3272,6.3256,6.2941,6.2138,6.0976,5.9325,5.742,0.0,0.0,0.0,0.0,0.0,0.0,0.0,0.0,0.0,0.0,0.0,0.0,0.0,0.0,0.0,0.0,0.0,0.0,0.0,0.0,0.0,0.0,0.0,0.0,0.0,0.0,0.0,0.0,4.9634,5.0388,0.0,5.1128,5.0834,5.1109,5.2248,5.2744,5.3687,5.5224,5.5763,5.6694,5.8086,5.8099,5.8884,6.0413,6.032,6.0764,6.1745,6.1745,6.1745,6.1716,6.1309,6.1338,6.1716,6.1226,6.1373,6.1839,6.135,6.0413,5.936,5.9589,5.9358,5.8897,5.8667,5.8377,5.8085,5.7914,5.803,5.8549,5.9734,6.0105,6.0149,5.9688,5.9685,5.9819,5.9458,5.9487,6.0049,6.1616,6.1888,6.2012,6.3051,6.3323,6.3207,6.2704,6.2847,6.2607,6.1023,6.0223,5.9605,5.9096,5.8952,5.8781,5.8638,5.9016,5.9594,6.026,6.1365,6.2438,6.3386,6.4033,6.4444,6.4648,6.4648,6.4561,6.4328,6.4235,6.4194,6.4327,6.3506,6.2428,6.1211,5.9651,5.7828,0.0,0.0,0.0,0.0,0.0,0.0,0.0,0.0,0.0,0.0,0.0,0.0,0.0,0.0,0.0,0.0,0.0,0.0,0.0,0.0,0.0,0.0,0.0,0.0,0.0,4.7796,4.9665,5.1553,5.268,5.347,5.3835,5.3495,5.3804,5.5081,5.4998,5.5478,5.6899,5.6996,5.7692,5.9177,5.9048,5.9838,6.1762,6.1576,6.1963,6.308,6.308,6.308,6.308,6.2645,6.2674,6.3051,6.2209,6.2325,6.3022,6.2395,6.158,6.0793,6.0443,6.018,5.9945,5.9945,5.9655,5.9277,5.9277,5.9423,5.9829,6.094,6.1526,6.1728,6.126,6.1407,6.1669,6.1225,6.1284,6.1757,6.3088,6.3268,6.3239,6.3892,6.3862,6.3535,6.2913,6.2941,6.2911,6.2204,6.1757,6.131,6.0765,6.0794,6.0706,6.0294,6.0787,6.1251,6.1483,6.2238,6.308,6.3888,6.4241,6.4595,6.5129,6.5187,6.5187,6.5187,6.5157,6.5205,6.5329,6.4752,6.398,6.3109,6.1665,6.0096,5.846,0.0,0.0,0.0,0.0,0.0,0.0,0.0,0.0,0.0,0.0,0.0,0.0,0.0,0.0,0.0,0.0,0.0,0.0,0.0,0.0,0.0,0.0,0.0,4.5915,4.814,5.0451,5.2518,5.3388,5.4484,5.6223,5.5383,5.544,5.7238,5.6816,5.7013,5.8221,5.8334,5.8868,6.0104,6.0132,6.0759,6.2108,6.2108,6.2514,6.3138,6.3138,6.3138,6.3138,6.3138,6.3138,6.3138,6.3109,6.3109,6.3138,6.3109,6.3109,6.3055,6.2049,6.1522,6.1251,6.1251,6.1251,6.1222,6.1222,6.1373,6.1642,6.1672,6.1879,6.2028,6.138,6.1615,6.2175,6.2145,6.2558,6.3206,6.3824,6.3971,6.3971,6.3971,6.4062,6.3885,6.3176,6.3059,6.2853,6.2263,6.2673,6.2998,6.2671,6.2878,6.2908,6.2244,6.2674,0.0,6.2238,6.3254,6.3975,6.4067,6.4619,6.5158,6.5475,6.5538,6.5475,6.5538,6.6132,6.6319,6.6007,6.6004,6.5712,6.5054,6.3397,6.2022,6.0994,0.0,0.0,0.0,0.0,0.0,0.0,0.0,0.0,0.0,0.0,0.0,0.0,0.0,0.0,0.0,0.0,0.0,0.0,0.0,0.0,0.0,4.6708,4.8113,4.9039,5.0323,5.1988,5.4109,5.5075,5.5788,5.6288,5.6308,5.6456,5.6987,5.751,5.794,5.8278,5.8727,5.9317,6.0104,6.0385,6.1147,6.2352,6.2864,6.344,6.4092,6.4347,6.4473,6.4444,6.398,6.4038,6.4415,6.3486,6.3603,6.4386,6.3457,6.337,6.369,6.3,6.2619,6.2558,6.2558,6.2267,6.1832,6.1832,6.1893,6.2099,6.3058,6.3535,6.3752,6.3331,6.322,6.3112,6.2582,6.2582,6.2936,6.3854,6.3909,6.3786,6.4001,6.3526,6.2816,6.2142,6.2174,6.247,6.2765,6.2943,6.3031,6.2639,6.3049,6.331,6.288,6.2964,6.3196,6.3457,6.3806,6.4275,6.5027,6.5261,6.5475,6.5819,6.5601,6.5601,6.5882,6.6007,6.6195,6.6382,6.6574,6.6191,6.4994,6.4298,6.3709,0.0,0.0,0.0,0.0,0.0,0.0,0.0,0.0,0.0,0.0,0.0,0.0,0.0,0.0,0.0,0.0,0.0,0.0,0.0,0.0,0.0,0.0,4.8431,4.9913,5.1376,5.2149,5.3199,5.5011,5.6077,5.6845,5.7093,5.7335,5.7459,5.7459,5.7917,5.8299,5.8423,5.9011,5.969,6.0526,6.097,6.1783,6.2875,6.3458,6.398,6.4512,6.4868,6.4996,6.4967,6.4619,6.4648,6.4938,6.4212,6.4299,6.4938,6.4183,6.4096,6.4357,0.0,0.0,0.0,0.0,6.2848,6.2499,6.2499,6.2674,6.3022,6.3777,6.4164,6.426,6.4038,6.3727,6.336,6.3211,6.3182,6.3389,6.4279,6.4126,6.3826,6.3983,6.322,6.2368,6.228,6.2167,6.2288,6.2932,6.3434,0.0,6.3243,6.3658,6.383,6.3549,6.3719,6.3922,6.4009,6.427,6.4624,6.5256,6.5285,6.5412,6.5756,6.5756,0.0,0.0,0.0,6.6624,6.7078,6.7356,0.0,0.0,0.0,6.6548,6.6057,6.6189,0.0,0.0,6.3105,6.3027,0.0,0.0,0.0,0.0,0.0,0.0,0.0,0.0,0.0,0.0,0.0,0.0,0.0,0.0,0.0,0.0,4.9847,5.0993,5.2893,5.3539,5.424,5.5403,5.6617,5.7492,5.8016,5.8135,5.8135,5.8135,5.8253,5.8408,5.8641,5.9281,0.0,0.0,0.0,6.2492,6.3348,6.3769,6.4095,6.4354,6.474,6.4903,6.4932,6.4996,6.4996,6.4996,6.4996,6.4996,6.4996,6.4996,6.4996,6.488,6.3748,6.3312,6.3312,6.3312,6.3341,6.3399,6.3399,0.0,0.0,6.4357,6.4299,6.4178,6.4178,6.3748,6.3312,6.3893,6.3975,6.4183,6.4735,6.4473,6.3975,6.3975,6.3109,6.2383,6.2964,6.2616,6.2412,6.3142,6.3881,6.4352,6.4188,6.4439,6.4502,6.4154,6.4619,6.4793,6.4212,6.4648,6.5025,6.5147,6.5147,0.0,6.5806,6.6088,6.6243,6.6369,6.69,6.7478,6.8076,6.8076,6.8375,6.9004,6.9601,6.9608,6.9002,6.8996,6.9046,6.9074,6.7384,6.6288,0.0,0.0,0.0,0.0,0.0,0.0,0.0,0.0,0.0,0.0,0.0,0.0,0.0,0.0,0.0,5.0463,5.1465,5.2316,5.2729,5.4093,5.5223,5.5778,5.6658,5.7258,5.7367,5.7624,5.7816,5.7816,5.8512,5.8723,5.8289,5.957,6.0431,6.07,6.1807,6.2595,6.298,6.3348,6.3545,6.361,6.3936,0.0,6.4612,6.4868,6.4996,6.4996,6.4996,6.4996,6.4996,6.4996,6.4996,6.4967,6.4706,6.4619,6.4619,6.4619,6.4938,6.5373,6.5373,6.5809,6.6331,6.6331,6.5983,6.5512,6.5512,6.47,0.0,6.3946,6.3975,6.4004,6.4183,6.4062,6.3975,6.3975,6.3457,6.2935,6.3051,6.2993,6.3142,6.4031,6.4139,6.4309,6.5086,6.5299,6.5173,6.4856,6.4909,6.4938,6.4822,6.4909,6.5298,6.6049,6.6108,6.6568,6.7766,6.7634,6.7762,6.8363,6.8552,6.8675,6.8794,6.8794,6.8854,6.9004,6.913,6.9416,6.9761,6.9824,7.0037,7.0459,6.8517,6.8259,0.0,0.0,0.0,0.0,0.0,0.0,0.0,0.0,0.0,0.0,0.0,4.9086,4.9118,0.0,5.1853,5.2182,5.3256,5.4053,5.4053,5.5111,5.5798,5.5652,5.6595,5.7174,5.7174,5.7639,5.7895,5.7895,5.8571,5.8985,5.8879,5.9755,6.0486,6.0988,6.1818,6.2427,6.2914,6.3244,6.3413,6.3413,6.3806,6.4066,6.4224,6.4612,6.474,6.474,6.4932,6.4996,6.4996,6.4996,6.4996,6.4996,6.4996,6.4996,6.5025,6.5344,6.5664,6.5983,6.6302,6.6825,6.7318,6.6999,6.6651,6.636,6.6012,6.5257,6.4502,6.4502,6.4502,6.4502,6.4502,6.427,6.3975,6.3975,6.3545,6.3167,6.3516,6.3574,6.381,6.4576,6.4629,6.4682,6.5163,6.5222,6.5158,6.506,6.4996,6.4996,6.4996,6.4996,6.5292,6.6061,6.6183,6.6639,6.78,6.8052,6.8402,6.894,6.9004,6.9153,6.9482,6.9482,6.9632,6.9961,7.0153,7.0407,7.0693,7.0548,7.086,7.166,7.031,7.0274,0.0,0.0,0.0,0.0,0.0,0.0,0.0,4.9714,5.0574,5.071,5.118,5.151,5.1186,5.2498,5.3588,5.3821,5.4704,5.541,5.541,5.6052,5.6242,5.5654,5.6522,5.7228,5.7336,5.777,5.8189,5.8232,5.8829,5.9261,5.939,5.9913,6.0518,6.1208,6.1705,6.2211,6.2715,6.2886,6.3018,6.3084,6.3413,6.361,6.3834,6.416,6.4354,6.4418,6.4676,6.4804,6.4804,6.4804,6.4868,6.4932,6.4932,6.4932,6.5054,6.5693,6.6099,6.6389,6.6883,6.7522,6.7986,6.7434,6.7086,6.6796,6.6208,6.5448,6.4868,6.4804,6.4868,6.4932,6.4932,6.4555,6.4212,6.4212,6.3835,6.3603,6.3999,6.4086,6.426,6.4688,6.4868,6.4932,6.4932,6.4996,6.4996,6.4996,6.4996,6.4996,6.4996,6.5083,6.5402,6.6041,6.6244,6.6694,6.7764,6.8501,6.9015,6.9363,6.9363,6.9602,7.0141,7.0171,7.038,7.0889,7.1178,7.1431,7.1616,7.1329,7.1737,7.2786,7.2269,7.2182,4.6429,4.6556,4.72,4.7991,4.8761,4.9705,0.0,5.1737,5.1961,5.1679,5.2947,5.3716,5.2376,5.3773,5.5072,5.4828,5.5134,5.541,5.541,5.6429,5.6973,5.626,5.6794,5.7391,5.7933,5.8042,5.8286,5.8856,5.9453,5.9561,5.9085,6.0401,6.0959,6.0532,6.1363,6.1868,6.1951,6.1614,6.1681,6.1991,6.1991,6.242,6.3018,6.3348,6.3675,6.4095,6.4095,6.4095,6.4095,6.4095,6.4289,6.4547,6.4547,6.474,6.5054,6.5693,6.6651,6.7667,6.7754,6.8189,6.8712,6.8625,6.7812,6.6817,6.6496,6.5499,6.4483,6.4224,6.4354,6.4547,6.4547,6.4746,6.488,6.488,6.4822,6.4729,6.4496,6.4461,6.4396,6.416,6.4354,6.4547,6.4547,6.4804,6.4996,6.4996,6.4996,6.4996,6.4996,6.5489,6.607,6.6709,6.7318,6.8165,6.9538,6.9963,7.029,7.0709,7.0679,7.0709,7.0799,7.0799,7.0829,7.0889,7.0919,7.1383,7.2309,7.2219,7.2716,7.3772,7.4066,7.3713,4.7538,4.7921,4.8641,4.9444,5.0488,5.1623,5.2602,5.3107,5.3323,5.3162,5.4006,5.4567,5.3856,5.5024,5.6013,5.5643,5.6036,5.6305,5.6175,5.6594,5.6813,5.6332,5.6821,5.7282,5.7526,5.8205,5.872,5.8992,5.986,6.0294,6.005,6.0497,6.0837,6.0919,6.1146,6.143,6.1789,6.1681,6.1681,6.1789,6.1789,6.2086,6.2648,6.2952,6.3413,6.403,6.4224,6.416,6.403,6.4418,6.4547,6.454,6.4915,6.5326,6.5868,6.6324,6.6825,6.7405,6.816,6.8596,6.877,6.8392,6.7899,6.7339,6.6632,6.6009,6.5454,6.4753,6.4639,6.4683,6.4533,6.4612,6.474,6.4932,6.4996,6.4932,6.4547,6.48,6.49,6.4573,6.4925,6.5248,6.5248,6.5577,6.5839,6.5839,6.5332,6.5112,6.5489,6.5751,6.6331,6.7347,6.8244,6.9073,6.984,7.02,7.0528,7.0919,7.0889,7.0889,7.0889,7.0889,7.0889,7.0889,7.1278,7.1673,7.2073,7.2493,7.3022,7.3592,7.4046,7.4066,4.8207,4.8923,4.9869,5.0796,5.2164,5.3415,5.3951,5.4429,5.47,5.4722,5.5056,5.5292,5.5204,5.6026,5.6608,5.6371,5.6851,5.7104,5.6781,5.6962,5.6823,5.6131,5.6658,5.6912,5.6584,5.803,5.9073,5.9236,6.0185,6.0782,6.0782,6.0648,6.0729,6.1166,6.0999,6.1106,6.1546,6.1546,6.1546,6.1546,6.1546,6.1749,6.2113,6.2554,6.3084,6.3704,6.3965,6.392,6.3829,6.4324,6.4503,6.4442,6.4898,6.5488,6.6118,6.6556,6.6929,6.7418,6.8238,6.8683,6.8741,6.841,6.8082,6.7783,6.7024,6.6499,6.6041,6.5013,6.4841,6.483,6.4461,6.4483,6.4676,6.4932,6.5112,6.5193,6.4807,6.5166,6.5429,6.507,6.5374,6.562,6.562,6.6089,6.6384,6.6384,6.5904,6.5664,6.6128,6.636,6.6912,6.8015,6.8739,6.9337,6.9869,7.0134,7.0462,7.0889,7.0889,7.0889,7.0889,7.0889,7.0889,7.0889,7.1547,7.1966,7.2176,7.2864,7.3387,7.3834,7.4299,7.4658,4.8531,4.9416,5.0768,5.2256,5.3566,5.468,5.5308,5.5937,5.6335,5.6314,5.627,5.6266,5.6269,5.6643,5.6957,5.6957,5.7437,5.7556,5.7037,5.7554,5.732,5.5515,5.6214,5.6314,5.5114,5.7412,5.9236,5.9806,6.043,6.0782,6.0782,6.0824,6.0824,6.0824,6.0824,6.0824,6.0851,6.0851,6.0851,6.0851,6.0851,6.1029,6.137,6.2046,6.2582,6.2914,6.2914,6.3051,6.3341,6.3341,6.3675,6.4109,6.4109,6.4548,6.534,6.5992,6.7096,6.8237,6.7968,6.8305,6.8828,6.9203,6.8631,6.787,6.7878,6.6911,6.5641,6.468,6.4643,6.4736,6.4173,6.4483,6.4996,6.4996,6.546,6.5766,6.5441,6.5601,6.5659,6.5362,6.5284,6.5312,6.5312,6.5917,6.6384,6.6384,6.6657,6.6825,6.6854,6.7434,6.8073,6.8741,6.8828,6.9098,6.9869,6.9936,7.02,7.0854,7.0889,7.0889,7.0889,7.0889,7.0889,7.0889,7.1547,7.2206,7.2894,7.3552,7.418,7.4877,7.5526,7.5863,4.9133,5.0507,5.2198,5.3378,5.4417,5.5393,5.5937,5.6108,5.5902,5.5011,5.5117,5.5231,5.4724,5.543,5.6093,5.6261,5.6746,5.713,5.7191,5.7368,5.7051,5.5736,5.6026,5.602,5.5303,5.7136,5.8476,5.8666,5.9968,6.0782,6.0782,6.0782,6.0782,6.0782,6.0782,6.0782,6.0782,6.0782,6.0782,6.0782,6.1029,6.1166,6.1302,6.1749,6.224,6.2791,6.3034,6.3261,6.357,6.4051,6.4203,6.4192,6.4818,6.5262,6.5565,6.6025,6.6781,6.7638,6.8054,6.8451,6.8828,6.8963,6.875,6.8441,6.7939,6.7426,6.68,6.5561,6.5041,6.4876,6.5117,6.479,6.462,6.5679,6.5904,6.5846,6.5687,6.6261,6.672,6.6354,6.6628,6.6805,6.6599,6.7175,6.7718,6.7988,6.7745,6.7551,6.7551,6.8102,6.8596,6.8799,6.8828,6.9098,6.9869,6.9869,7.02,7.0854,7.0889,7.0889,7.0889,7.0889,7.1098,7.1547,7.2206,7.2894,7.3582,7.424,7.4659,7.4869,7.5346,7.5685,4.9802,5.1566,5.3382,5.423,5.5269,5.6248,5.6651,5.6537,5.5961,5.4793,5.4561,5.4365,5.3528,5.4205,5.4985,5.5403,5.6164,5.6836,5.7251,5.7229,5.6876,5.6064,5.6156,5.6149,5.5627,5.7082,5.815,5.8395,5.967,6.0647,6.1054,6.1081,6.1162,6.1407,6.1407,6.1407,6.1407,6.1407,6.1298,6.1081,6.1138,6.1166,6.1302,6.1726,6.2233,6.2687,6.3155,6.3529,6.3761,6.4249,6.436,6.4232,6.49,6.518,6.5418,6.5656,6.6258,6.7056,6.7547,6.818,6.8625,6.876,6.8828,6.8692,6.8227,6.7885,6.7427,6.6251,6.573,6.5527,6.5639,6.525,6.5114,6.6182,6.6438,6.6409,6.6547,6.7152,6.7612,6.738,6.7559,6.761,6.7431,6.7873,6.8421,6.876,6.8479,6.8218,6.8218,6.8567,6.8828,6.8828,6.8828,6.9098,6.9869,6.9803,7.0068,7.0854,7.0759,7.0789,7.0919,7.1128,7.1457,7.1876,7.2804,7.3462,7.3881,7.454,7.4869,7.4869,7.521,7.555,5.0463,5.2344,5.4169,5.4748,5.6066,5.7216,5.7216,5.6963,5.6537,5.553,5.4592,5.3577,5.2754,5.3018,5.366,5.4536,5.571,5.6739,5.7278,5.7221,5.6983,5.6595,5.6624,5.652,5.5966,5.7196,5.834,5.8992,5.9561,6.0403,6.1542,6.1597,6.1895,6.2448,6.2476,6.2476,6.2476,6.2476,6.2221,6.1597,6.1054,6.1015,6.1289,6.1932,6.2371,6.2729,6.3308,6.3774,6.404,6.404,6.4154,6.431,6.431,6.46,6.4889,6.4961,6.5605,6.6581,6.6708,6.7387,6.8284,6.8663,6.8731,6.876,6.8731,6.8227,6.7496,6.6457,6.6452,6.6543,6.5635,6.5879,6.6384,6.6441,6.6902,6.7468,6.7861,6.8152,6.8313,6.8313,6.7982,6.7747,6.7747,6.8079,6.8421,6.876,6.8828,6.8828,6.8828,6.8828,6.8828,6.8828,6.8828,6.9098,6.9869,6.9537,6.9737,7.0884,7.0623,7.0587,7.0944,7.1541,7.19,7.193,7.3253,7.3911,7.3941,7.4569,7.4869,7.4869,7.521,7.5376,5.0319,5.1471,5.2814,5.369,5.4898,5.5826,5.5635,5.5534,5.5168,5.3717,5.2678,5.1793,5.1129,5.196,5.306,5.4158,5.5677,5.7066,5.8088,5.8158,5.7877,5.7146,5.7138,5.7157,5.71,5.7512,5.8238,5.9589,5.9806,6.0403,6.1542,6.1597,6.1895,6.2448,6.2476,6.2476,6.2476,6.2476,6.2221,6.1597,6.1461,6.1476,6.1545,6.1681,6.2322,6.3264,6.3401,6.3738,6.421,6.421,6.4247,6.431,6.4672,6.4817,6.4961,6.5275,6.5561,6.5747,6.5821,6.6762,6.7845,6.7953,6.7953,6.7913,6.7707,6.75,6.7195,6.6677,6.6241,6.6097,6.6615,6.6332,6.6184,6.7129,6.7536,6.7814,6.8171,6.8441,6.8692,6.8692,6.8421,6.8216,6.8489,6.8421,6.8421,6.876,6.8828,6.8828,6.8828,6.8828,6.8828,6.8828,6.8828,6.9098,6.9869,6.9537,6.9876,7.1176,7.094,7.0947,7.1516,7.1761,7.2087,7.256,7.3159,7.3712,7.4218,7.4642,7.4869,7.4869,7.5006,7.5412,5.1177,5.1815,5.2451,5.2955,5.3946,5.4652,5.4093,5.4029,5.3529,5.1567,5.0751,5.0148,4.942,5.0488,5.2056,5.3602,5.5247,5.6741,5.8132,5.8482,5.849,5.8164,5.8249,5.8312,5.8039,5.8255,5.8725,5.9535,5.9657,6.0374,6.1949,6.189,6.2199,6.3279,6.3306,6.3306,6.3306,6.3062,6.2763,6.2411,6.2139,6.2004,6.2031,6.2275,6.2763,6.3442,6.3686,6.4012,6.431,6.431,6.4473,6.4663,6.4609,6.5,6.5409,6.5108,6.5225,6.5633,6.5529,6.6059,6.6735,6.6916,6.7195,6.7403,6.7014,6.7084,6.7084,6.6735,6.6482,6.6521,6.7069,6.6781,6.6685,6.7702,6.786,6.7959,6.8431,6.8692,6.8828,6.8828,6.8625,6.8557,6.876,6.8625,6.8557,6.876,6.8828,6.8828,6.8828,6.8828,6.8828,6.8828,6.8828,6.903,6.9604,6.9533,6.9989,7.111,7.104,7.1228,7.1747,7.2042,7.2434,7.2788,7.3399,7.3931,7.4318,7.4961,7.5318,7.5347,7.5617,7.6085,5.2149,5.2245,5.2194,5.2281,5.2948,5.3432,5.2562,5.2394,5.1738,4.9583,4.8979,4.87,4.7967,4.9191,5.0933,5.3041,5.4599,5.617,5.7989,5.8461,5.8795,5.9175,5.9457,5.9402,5.894,5.9177,5.9424,5.9424,5.9505,6.0396,6.2394,6.2192,6.2732,6.4256,6.431,6.431,6.431,6.3794,6.3496,6.3415,6.2899,6.2584,6.2611,6.3197,6.3469,6.3577,6.4093,6.431,6.431,6.431,6.4609,6.5043,6.4581,6.507,6.5884,6.4907,6.5099,6.5774,6.5644,6.554,6.5529,6.5917,6.6553,6.7029,6.6778,6.7072,6.7241,6.6806,6.6988,6.7197,6.7112,6.7154,6.7431,6.8079,6.8051,6.8051,6.8692,6.8828,6.8828,6.8828,6.8828,6.8828,6.8828,6.8828,6.8828,6.8828,6.8828,6.8828,6.8828,6.8828,6.8828,6.8828,6.8828,6.8963,6.927,6.9613,7.0088,7.0825,7.12,7.1541,7.1875,7.2503,7.2797,7.2797,7.3744,7.4248,7.4248,7.5349,7.5916,7.5916,7.6544,7.6874,5.0548,5.0211,5.0307,5.0608,5.1046,5.1223,5.0614,5.029,4.9913,4.8954,4.7998,4.7492,4.8,4.9133,5.0594,5.2413,5.4079,5.5924,5.8122,5.8507,5.89,5.9876,5.9921,5.9792,5.9686,5.9894,6.0016,6.0016,6.05,6.1286,6.2421,6.2476,6.3018,6.4256,6.431,6.431,6.431,6.4201,6.3903,6.3415,6.3306,6.3279,6.3279,6.3387,6.3686,6.4147,6.4256,6.431,6.431,6.431,6.4364,6.45,6.488,6.5178,6.5395,6.5694,6.5884,6.604,6.6005,6.5698,6.54,6.6241,6.672,6.7097,6.7283,6.779,6.81,6.7494,6.7425,6.7312,6.6806,6.7154,6.761,6.7747,6.8187,6.8625,6.876,6.8828,6.8828,6.8828,6.8828,6.8828,6.8828,6.8828,6.8828,6.8828,6.8828,6.8828,6.8828,6.8828,6.8828,6.8828,6.8828,6.8963,6.927,6.9613,7.0195,7.1161,7.1458,7.1871,7.2424,7.254,7.2599,7.2599,7.3492,7.3901,7.3901,7.521,7.5916,7.5916,7.6544,7.7113,5.0664,4.9979,4.9707,4.9779,4.9925,4.9836,4.9009,4.847,4.7944,4.7244,4.6464,4.63,4.733,4.8421,4.9962,5.2164,5.3462,5.5087,5.7502,5.8009,5.8392,5.9228,5.9477,5.9515,5.9226,5.9571,5.99,5.99,6.0812,6.1685,6.2421,6.3259,6.4,6.4573,6.46,6.4528,6.431,6.431,6.4147,6.3876,6.3876,6.3876,6.3876,6.3659,6.3821,6.431,6.4092,6.4092,6.431,6.431,6.45,6.4771,6.4744,6.5314,6.6101,6.5775,6.6047,6.6535,6.6461,6.5869,6.5372,6.6186,6.6441,6.6402,6.6591,6.7179,6.7759,6.7333,6.7209,6.714,6.6974,6.7154,6.7569,6.7913,6.8421,6.8915,6.9263,6.906,6.9031,6.967,6.9292,6.8944,6.9263,6.9321,6.9321,6.9321,6.9612,6.9815,6.9815,6.9815,6.9554,6.8886,6.8828,6.8895,6.903,6.9767,7.0464,7.0923,7.1714,7.2311,7.2602,7.2602,7.2602,7.2602,7.341,7.3938,7.4262,7.5687,7.6574,7.6904,7.7562,7.8011,5.123,5.0345,4.9696,4.9334,4.913,4.8798,4.781,4.7102,4.6424,4.5848,4.534,4.5421,4.6634,4.7683,4.9159,5.1777,5.2749,5.4184,5.6799,5.7502,5.7974,5.8641,5.9033,5.9104,5.8589,5.907,5.9438,5.9578,6.0989,6.2085,6.2638,6.4,6.4745,6.4745,6.4745,6.46,6.431,6.431,6.431,6.431,6.431,6.431,6.431,6.3946,6.3946,6.4165,6.38,6.3873,6.4165,6.4165,6.4508,6.4961,6.4636,6.545,6.6725,6.5884,6.6264,6.7105,6.6883,6.6134,6.5442,6.5993,6.6048,6.6011,6.6084,6.6872,6.7755,6.7268,6.7218,6.7265,6.7072,6.7154,6.739,6.8108,6.8672,6.9176,6.9601,6.9427,6.9456,7.0373,6.9833,6.9379,6.9902,6.9989,6.9989,6.9989,7.0395,7.0715,7.0715,7.0715,7.0337,6.935,6.9234,6.9234,6.9234,7.0279,7.0918,7.0918,7.1992,7.2689,7.2834,7.2834,7.2892,7.3008,7.3679,7.4268,7.4768,7.62,7.7151,7.7688,7.8489,7.8789,5.1443,5.071,5.0025,4.9152,4.8387,4.7782,4.7418,4.6514,4.5752,4.5899,4.5287,4.5156,4.6634,4.7197,4.823,5.0559,5.1894,5.3556,5.6474,5.7364,5.8191,5.9471,5.9139,5.8828,5.8776,5.8668,5.8876,5.9578,6.1323,6.2709,6.3306,6.3957,6.4383,6.4383,6.4383,6.431,6.431,6.431,6.431,6.431,6.431,6.431,6.431,6.4237,6.4092,6.3726,6.3726,6.3726,6.3726,6.3726,6.3973,6.4446,6.4907,6.5558,6.6264,6.6698,6.7268,6.7729,6.7208,6.6535,6.5938,6.5442,6.5881,6.6715,6.7056,6.8254,6.9217,6.8121,6.8077,6.8112,6.6975,6.6945,6.739,6.8108,6.899,6.963,6.9315,6.9887,7.0431,7.0169,7.0349,7.057,7.0628,7.0628,7.0628,7.0628,7.0686,7.0715,7.0715,7.0715,7.0686,7.057,7.0541,7.0541,7.0541,7.1179,7.1586,7.1586,7.2224,7.2892,7.3501,7.3531,7.3792,7.4314,7.4737,7.4983,7.5042,7.6454,7.7169,7.7258,7.8346,7.8789,5.0401,4.9918,4.9323,4.8817,4.8207,4.7596,4.7133,4.6031,4.5054,4.5232,4.4648,4.4466,4.5602,4.6353,4.7524,4.9639,5.0333,5.1643,5.4564,5.545,5.6271,5.7436,5.7979,5.8321,5.8393,5.8505,5.9236,6.0944,6.2104,6.3019,6.393,6.4635,6.506,6.506,6.506,6.4745,6.431,6.431,6.431,6.431,6.431,6.431,6.431,6.38,6.3653,6.3653,6.3238,6.3312,6.3653,6.3653,6.3946,6.4337,6.4554,6.5043,6.564,6.6264,6.6617,6.6915,6.7376,6.6915,6.6155,6.6237,6.6753,6.7189,6.6684,6.7544,6.8483,6.7718,6.7709,6.7856,6.7252,6.7693,6.8499,6.9199,6.965,7.0008,7.0272,7.0313,7.0457,7.0879,7.0604,7.0412,7.0505,7.0803,7.0944,7.0944,7.1262,7.1593,7.1776,7.1847,7.1847,7.1847,7.0969,7.0436,7.0645,7.1085,7.1461,7.1673,7.2282,7.2747,7.3008,7.3414,7.3734,7.3966,7.4707,7.5334,7.5715,7.6489,7.7249,7.7823,7.8235,7.8717,4.9658,4.9541,4.9272,4.8843,4.8116,4.7339,4.6977,4.5635,4.4444,4.4435,4.3959,4.3855,4.489,4.5807,4.6957,4.8779,4.9497,5.0669,5.3162,5.4209,5.5044,5.5743,5.6791,5.7544,5.7772,5.8543,5.9718,6.1496,6.2346,6.3226,6.4283,6.4961,6.5275,6.5132,6.5132,6.4889,6.431,6.431,6.431,6.431,6.431,6.431,6.431,6.37,6.348,6.3506,6.3091,6.3165,6.3506,6.3653,6.3946,6.431,6.431,6.4663,6.5233,6.5694,6.6074,6.6481,6.7132,6.7018,6.6576,6.6821,6.7312,6.7667,6.6957,6.7531,6.8284,6.7717,6.7533,6.7505,6.7452,6.8256,6.9138,6.9635,7.006,7.0518,7.1037,7.0807,7.0764,7.1418,7.1051,7.0564,7.0735,7.1037,7.118,7.118,7.1654,7.2071,7.2504,7.2533,7.2533,7.2533,7.1539,7.0964,7.1254,7.1593,7.1969,7.2253,7.2834,7.3269,7.3472,7.3937,7.4256,7.4459,7.5188,7.5773,7.6211,7.6608,7.7137,7.7843,7.8209,7.8878,4.9429,4.9904,5.0209,4.9558,4.8144,4.6925,4.6898,4.5272,4.3824,4.3824,4.3397,4.3429,4.4837,4.5601,4.652,4.7969,4.9636,5.1262,5.2634,5.4143,5.5112,5.5115,5.5963,5.6596,5.6823,5.889,6.0367,6.0757,6.2057,6.3226,6.4283,6.4672,6.4745,6.431,6.431,6.431,6.431,6.431,6.431,6.431,6.431,6.431,6.431,6.431,6.3873,6.3111,6.3506,6.3433,6.3111,6.3506,6.3946,6.431,6.431,6.4663,6.5178,6.5205,6.5965,6.6915,6.6345,6.6733,6.749,6.6915,6.7357,6.8197,6.8197,6.891,6.9495,6.8437,6.7755,6.7313,6.7285,6.816,6.9024,6.9024,7.0078,7.1137,7.1307,7.1478,7.1532,7.179,7.1613,7.1507,7.1507,7.1507,7.1507,7.1507,7.1507,7.1707,7.2307,7.2392,7.2392,7.2392,7.2563,7.2644,7.2575,7.3211,7.3589,7.3589,7.4169,7.4779,7.5446,7.5475,7.5795,7.6479,7.6508,7.6508,7.6538,7.6911,7.709,7.7164,7.8311,7.9581,4.7351,4.7722,4.768,4.7671,4.701,4.6242,4.6016,4.4951,4.3972,4.357,4.3406,4.3493,4.412,4.5181,4.6494,4.7969,4.9213,5.0544,5.2078,5.3582,5.4551,5.4493,5.6251,5.7592,5.7843,5.9532,6.0645,6.0996,6.2232,6.3292,6.3873,6.469,6.5009,6.4745,6.4745,6.46,6.431,6.431,6.431,6.431,6.431,6.4527,6.4907,6.4613,6.4392,6.4096,6.3649,6.3511,6.3506,6.3359,6.3726,6.431,6.431,6.4663,6.5233,6.5667,6.6074,6.6481,6.7407,6.7716,6.7702,6.8174,6.8741,6.9207,6.9207,6.9243,6.9129,6.8559,6.839,6.8447,6.879,6.9198,6.9714,7.0545,7.0833,7.0959,7.1085,7.1381,7.1676,7.14,7.185,7.2102,7.1379,7.1886,7.2176,7.175,7.2063,7.2478,7.2918,7.3021,7.3021,7.3021,7.3072,7.2918,7.253,7.3075,7.3596,7.3788,7.4255,7.4605,7.4808,7.5272,7.5592,7.5795,7.623,7.6538,7.6538,7.6612,7.722,7.8152,8.0072,8.1202,4.5929,4.6571,4.6834,4.7177,4.6618,4.5898,4.5461,4.4799,4.4008,4.3258,4.3258,4.3477,4.378,4.4914,4.614,4.7195,4.8446,4.9801,5.1228,5.2741,5.4082,5.5076,5.6791,5.8051,5.8375,5.9768,6.0733,6.0814,6.2128,6.3064,6.3433,6.4223,6.4617,6.4672,6.4891,6.4745,6.431,6.431,6.431,6.431,6.431,6.45,6.4853,6.4559,6.4439,6.4217,6.4134,6.382,0.0,6.3794,6.3988,6.4119,6.4481,6.488,6.526,6.5884,6.6264,6.6562,6.7598,6.8065,6.8311,6.8895,6.9484,6.9933,6.9933,6.9559,6.9033,6.8579,6.8607,6.8761,6.9148,6.9634,7.0156,7.0849,7.0996,7.1036,7.1517,7.1567,7.1672,7.185,7.2198,7.2349,7.1653,7.2133,7.2425,7.2029,7.2312,7.2698,7.3151,7.3255,7.3255,7.3255,7.3454,7.334,7.2716,7.3478,7.408,7.4304,7.4905,7.5243,7.5243,7.565,7.5882,7.5882,7.6259,7.6538,7.6538,7.6845,7.7691,7.8893,8.0801,8.2013,0.0,4.633,4.7242,4.7535,4.6756,4.5793,4.5281,4.4703,0.0,4.2884,4.3069,4.3519,4.3885,4.4824,4.5709,4.6129,4.76,4.91,5.0434,5.1987,5.3952,5.6543,5.7496,5.8102,5.8452,5.9794,6.0683,6.0544,6.1835,6.272,6.3037,6.3533,6.3927,6.431,6.488,6.4907,6.431,6.431,6.431,6.431,6.4337,6.4364,6.4364,6.4419,6.42,6.3834,6.4741,6.4412,6.3312,6.4613,6.4606,6.3934,6.4841,6.5233,6.5395,6.5965,6.6562,6.7078,6.7078,6.7962,6.9108,6.9108,6.9634,7.023,7.023,6.9709,6.9033,6.8655,6.8579,6.8579,6.8579,6.9409,7.0304,7.036,7.0684,7.1217,7.2434,7.1963,7.1709,7.2945,7.2721,7.2327,7.2327,7.2327,7.2299,7.2271,7.2299,7.2524,7.3086,7.317,7.317,7.317,7.3676,7.3788,7.3226,7.4212,7.4937,7.4937,7.5889,7.6538,7.6538,7.6538,7.6538,7.6538,7.6538,7.6567,7.6596,7.7612,7.846,7.9337,8.0805,8.2201,4.4388,0.0,4.5156,4.5662,4.5447,4.4942,0.0,4.4572,4.4177,4.3618,4.3617,4.3991,4.4905,4.5511,4.6324,4.7684,4.8781,4.9944,5.1421,5.3647,5.5725,5.7232,5.8051,5.8656,5.9009,6.0099,6.0685,6.0633,6.1894,6.272,6.3037,6.3935,6.4331,6.431,6.488,6.4907,6.431,6.431,6.431,6.431,6.4771,6.4988,6.4988,6.5477,6.5376,6.4841,6.4755,6.4485,6.4019,6.4034,6.4351,6.4841,6.5151,6.5748,6.6589,6.6752,6.7186,6.7751,6.8056,6.8366,6.8731,6.9334,6.9709,6.9858,6.9858,6.9709,6.9484,6.9108,6.8958,6.9033,6.9334,6.9634,7.0119,7.1192,7.1305,7.1381,7.217,7.2516,7.2889,7.3648,7.3676,7.3592,7.3592,7.3592,7.3423,7.2973,7.3283,7.3648,7.3788,7.3816,7.3816,7.3816,7.3929,7.3957,7.3816,7.4638,7.5173,7.5173,7.5999,7.6538,7.6538,7.6538,7.6538,7.6538,7.6538,7.6695,7.7188,7.8208,7.9325,8.0281,8.1735,8.2949,4.4517,4.4415,4.4282,4.5048,4.5072,4.4861,4.46,4.4415,4.4204,4.3913,4.4045,4.444,4.521,4.6126,4.7111,4.812,4.9271,5.0727,5.2939,5.4978,5.6692,5.7924,5.8631,5.9085,5.9337,6.0023,6.0508,6.066,6.1521,6.2273,6.2842,6.3383,6.3707,6.3726,6.4243,6.4416,6.431,6.431,6.431,6.431,6.4636,6.4798,6.4798,6.5151,6.5097,6.4798,6.4849,6.4559,6.4073,6.4613,6.4883,6.4964,6.5505,6.6126,6.6747,6.7017,6.7314,6.7661,6.8122,6.8351,6.8655,6.9484,6.9709,6.9709,6.9709,6.9559,6.9409,6.9184,6.9259,6.9409,6.9409,6.9709,7.0147,7.1091,7.1081,7.1238,7.2441,7.2749,7.3057,7.3952,7.4278,7.4435,7.4435,7.4688,7.4772,7.4435,7.4817,7.5171,7.5171,7.5171,7.5171,7.5171,7.4963,7.4884,7.4884,7.564,7.5849,7.5278,7.601,7.6538,7.6538,7.6538,7.6538,7.6538,7.6753,7.7072,7.7391,7.8733,7.9836,8.0647,8.2031,8.3011,4.4881,4.4678,4.4492,4.5204,4.5337,4.5126,4.4625,4.4494,4.444,4.42,4.4591,4.5109,4.5585,4.6849,4.8058,4.8643,5.0111,5.2128,5.4629,5.6091,5.7338,5.8454,5.9212,5.9515,5.9486,5.9996,6.0456,6.066,6.1193,6.1823,6.2598,6.2598,6.272,6.3111,6.3433,6.38,6.4165,6.4237,6.431,6.431,6.4391,6.4391,6.431,6.4419,6.4391,6.441,6.4826,6.4679,6.4088,6.541,6.5552,6.5065,6.6088,6.6545,6.668,6.7192,6.7353,6.743,6.7738,6.8198,6.8655,6.9409,6.9615,6.9698,6.9773,6.9604,6.9309,6.9385,6.9528,6.9698,6.9322,6.9904,7.0707,7.1003,7.1018,7.1492,7.3214,7.3186,7.308,7.4302,7.4759,7.4997,7.5193,7.5587,7.5896,7.5976,7.6215,7.6425,7.6504,7.6425,7.6425,7.6425,7.6135,7.5896,7.5896,7.6662,7.6571,7.5438,7.6299,7.6753,7.6753,7.6753,7.6753,7.6753,7.7275,7.7595,7.7682,7.9141,8.014,8.0795,8.1938,8.292,4.4674,4.5395,4.6111,4.6278,4.5901,4.5535,4.543,4.5404,4.5404,4.5349,4.582,4.6569,4.7788,4.8187,4.9162,5.1471,5.3772,5.5446,5.5977,5.7726,5.8724,5.8283,5.9718,6.0378,5.9414,6.061,6.1198,6.0686,6.142,6.2123,6.2598,6.2598,6.272,6.3111,6.3185,6.3359,6.38,6.4165,6.431,6.431,6.4826,6.4798,6.4337,6.4826,6.499,6.4817,6.4537,6.4836,6.5464,6.5407,6.5884,6.6677,6.6866,6.7246,6.7707,6.7788,6.7815,6.7815,6.7892,6.8198,6.8579,6.9033,6.9288,6.9549,7.0234,7.0318,7.0219,7.0501,7.0269,6.993,6.9854,7.0879,7.2187,7.3233,7.3175,7.3214,7.4367,7.4321,7.4302,7.5455,7.5226,7.5278,7.6345,7.6177,7.6056,7.6346,7.6215,7.6135,7.6425,7.6215,7.5976,7.5976,7.5896,7.5896,7.5896,7.6662,7.6864,7.63,7.7472,7.8117,7.8117,7.8117,7.8117,7.8117,7.8204,7.8494,7.9017,7.9269,8.0036,8.1396,8.1562,8.2809,4.5205,4.6089,4.7123,4.7889,4.7841,4.7427,4.7136,4.6708,4.6514,4.7175,4.7083,4.7304,4.8622,4.9577,5.0992,5.3504,5.5405,5.6757,5.7551,5.8648,5.9435,5.9555,6.0635,6.0889,5.982,6.0914,6.1452,6.0737,6.1553,6.2135,6.2299,6.2273,6.2347,6.247,6.2693,6.2943,6.3091,6.3653,6.4092,6.431,6.4581,6.4581,6.431,6.48,6.4845,6.46,6.5172,6.5546,6.5847,6.6282,6.6808,6.7326,6.7197,6.7215,6.7225,6.7225,6.7353,6.7584,6.7815,6.8263,6.8738,6.9121,6.956,6.9977,7.0363,7.0401,7.0259,7.0259,7.0351,7.0517,7.049,7.1422,7.2504,7.3164,7.3372,7.3713,7.4683,7.4627,7.4763,7.5952,7.6303,7.6791,7.7964,7.7717,7.752,7.7925,7.7723,7.7604,7.7844,7.7685,7.7746,7.7978,7.7319,7.6992,7.7329,7.7614,7.769,7.7583,7.7837,7.8147,7.8407,7.8407,7.8407,7.8407,7.8727,7.9017,7.9307,7.9656,8.0698,8.2326,8.2326,8.356,4.5925,4.6865,4.79,4.9044,4.9155,4.8957,4.8855,4.8228,4.7999,4.8969,4.874,4.8695,4.9871,5.1659,5.3581,5.5386,5.6778,5.7983,5.8915,5.9653,6.031,6.0811,6.1531,6.1582,6.0532,6.1322,6.1658,6.089,6.1682,6.2114,6.1999,6.1973,6.1973,6.1973,6.2273,6.2523,6.2598,6.3165,6.3653,6.4165,6.4237,6.431,6.431,6.46,6.4672,6.4627,6.5764,6.6239,6.6359,6.7236,6.7681,6.7798,6.7576,6.7225,6.6837,6.6759,6.7073,6.7568,6.7878,6.8411,6.9082,6.9443,6.9958,7.0372,7.0451,7.056,7.0512,7.0196,7.07,7.1199,7.1052,7.1861,7.2817,7.3083,7.3558,7.414,7.4966,7.5021,7.5241,7.6484,7.7259,7.8088,7.9312,7.9149,7.8956,7.9391,7.9129,7.8921,7.894,7.8973,7.9096,7.9743,7.8834,7.8395,7.8956,7.8613,7.8499,7.8743,7.8278,7.8192,7.8688,7.8688,7.8765,7.8843,7.9307,7.954,7.954,8.0033,8.1244,8.2925,8.2925,8.4145,4.641,4.7646,4.8608,4.8731,4.8516,4.8635,4.9983,4.9988,4.9879,5.0533,5.0969,5.1648,5.2877,5.5181,5.7104,5.7442,5.9052,6.0155,5.9834,6.1258,6.204,6.142,6.2251,6.2535,6.1557,6.1891,6.194,6.1396,6.1773,6.2025,6.1973,6.1973,6.1973,6.1973,6.2048,6.2198,6.2598,6.2672,6.3017,6.3726,6.4092,6.431,6.431,6.431,6.4745,6.5446,6.5736,6.6532,6.7724,6.7624,6.7928,6.8448,6.8018,6.7584,6.7225,6.6837,6.734,6.8109,6.8188,6.8827,6.9707,7.0099,7.0351,7.0683,7.1,7.1224,7.1419,7.1365,7.1826,7.2151,7.1353,7.2326,7.3694,7.4301,7.4609,7.4965,7.5986,7.5873,7.6038,7.7483,7.7844,7.8401,7.9852,7.9827,7.9629,7.9886,7.9224,7.8752,7.8997,7.8774,7.8813,7.9309,7.946,7.9603,8.0048,7.9151,7.8921,7.9735,7.9192,7.9118,7.9488,7.9488,7.9754,8.0149,8.0207,8.0236,8.0236,8.0265,8.1087,8.2565,8.2565,8.4104,4.5978,4.7108,4.8337,4.9499,5.0033,5.0463,5.1088,5.1549,5.1987,5.2565,5.269,5.3086,5.4236,5.6378,5.7946,5.8175,5.9579,6.069,6.0624,6.1542,6.2254,6.2216,6.3026,6.313,6.2045,6.2742,6.2716,6.1523,6.206,6.2339,6.1999,6.1973,6.1973,6.1973,6.1973,6.2048,6.2198,6.2523,6.2746,6.3017,6.3653,6.4092,6.431,6.46,6.5008,6.5709,6.6678,6.7505,6.8115,6.8426,6.8511,6.8427,6.7738,6.743,6.733,6.755,6.7897,6.8295,6.8908,6.9606,7.0253,7.0411,7.0819,7.1148,7.096,7.1203,7.1555,7.1582,7.2016,7.2424,7.2365,7.3293,7.4527,7.5159,7.5596,7.603,7.6519,7.6911,7.7529,7.8449,7.8901,7.952,8.1096,8.0391,7.9828,8.0609,7.9615,7.8934,7.9186,7.9086,7.9145,7.9227,7.9095,7.9211,7.9771,7.9042,7.8928,7.9682,7.9023,7.8779,7.9232,7.9472,7.9884,8.0448,8.0687,8.1004,8.1271,8.1679,8.2526,8.386,8.4588,8.5977,4.6079,4.684,4.7771,4.9652,5.0743,5.1459,5.1866,5.286,5.3801,5.4353,5.4603,5.5061,5.5887,5.7282,5.8456,5.8892,5.9883,6.0723,6.1032,6.1764,6.2443,6.3018,6.3544,6.3545,6.2766,6.3233,6.3025,6.1674,6.2162,6.2467,6.2224,6.2048,6.2123,6.2321,6.2123,6.2048,6.2198,6.2347,6.2422,6.2422,6.3138,6.3726,6.4092,6.4718,6.5309,6.5893,6.723,6.7958,6.8252,6.8709,6.8655,6.8274,6.7584,6.741,6.7625,6.7845,6.8326,6.8861,6.9371,7.0043,7.0609,7.0529,7.0745,7.1069,7.0717,7.1014,7.1583,7.1496,7.2337,7.3293,7.3376,7.414,7.4987,7.5615,7.6051,7.643,7.6711,7.7252,7.7961,7.871,7.9245,8.0127,8.1575,8.0758,8.0195,8.1039,8.024,7.9502,7.9564,7.9626,7.9712,7.991,7.966,7.9745,8.0363,7.98,7.9546,7.9966,7.9171,7.8905,7.9348,7.9753,8.0191,8.0582,8.0955,8.1433,8.1858,8.2297,8.3342,8.4857,8.5462,8.6627,4.7067,4.7082,4.6937,4.8986,5.0165,5.11,5.225,5.387,5.5255,5.5804,5.685,5.78,5.8121,5.8412,5.8848,5.9755,6.0073,6.0457,6.1032,6.2104,6.3045,6.362,6.3672,6.3698,6.3672,6.3175,6.26,6.2025,6.1973,6.2198,6.2571,6.2198,6.2321,6.3037,6.2396,6.2198,6.2598,6.2198,6.1947,6.1921,6.2667,6.3286,6.3753,6.4714,6.5426,6.5902,6.7079,6.7824,6.8178,6.8408,6.8274,6.7815,6.7457,6.7652,6.8163,6.7692,6.8598,6.9965,6.9481,6.999,7.0717,7.0308,7.0171,7.0171,7.0171,7.09,7.1603,7.1133,7.2976,7.4944,7.4487,7.4743,7.5191,7.5788,7.5924,7.6087,7.6711,7.6846,7.7123,7.8218,7.8907,7.9729,8.1146,8.1031,8.0836,8.118,8.0814,8.042,8.0218,8.0335,8.0701,8.1319,8.1375,8.1575,8.2086,8.1519,8.1147,8.0934,7.9896,7.9564,8.0159,8.0602,8.0837,8.064,8.0983,8.1462,8.1888,8.1888,8.3007,8.507,8.4673,8.5635,4.6684,4.7323,4.8074,5.0181,5.1496,5.266,5.404,5.502,5.5961,5.6928,5.7739,5.8201,5.7878,5.9195,6.0274,6.0158,6.087,6.1529,6.1685,6.2365,6.3045,6.362,6.4038,6.4116,6.3724,6.3515,6.3018,6.2051,6.1973,6.2014,6.1964,6.1962,6.2014,6.2085,6.2062,6.2048,6.2198,6.1823,6.1571,6.1571,6.177,6.2369,6.3286,6.4613,6.5496,6.6005,6.6821,6.7317,6.7571,6.758,6.7584,6.7561,6.8121,6.8469,6.8662,6.9077,6.9455,6.9911,6.9935,7.0093,7.039,7.0253,7.0171,7.0251,7.0677,7.1,7.154,7.2965,7.3944,7.4927,7.6342,7.6579,7.6546,7.7058,7.7172,7.7335,7.7959,7.8332,7.865,7.9016,7.9444,7.9991,8.0773,8.0668,8.0813,8.169,8.0982,8.0334,8.042,8.0054,8.0223,8.1291,8.0616,8.0645,8.2029,8.1519,8.1545,8.222,8.1965,8.1088,7.9593,7.9548,7.9987,8.0755,8.1025,8.1825,8.3066,8.3478,8.4288,8.5544,8.5834,8.6558,4.6657,4.754,4.848,5.0631,5.2305,5.3877,5.589,5.6605,5.7216,5.8157,5.8784,5.9169,5.8971,5.9902,6.0718,6.0807,6.1237,6.1711,6.1947,6.226,6.2705,6.328,6.3646,6.3724,6.3358,6.3332,6.2966,6.2051,6.1823,6.1741,6.1747,6.1764,6.1865,6.2017,6.2014,6.1973,6.1947,6.1571,6.1193,6.0889,6.1167,6.1799,6.2813,6.437,6.5301,6.5678,6.6541,6.6953,6.707,6.707,6.7148,6.7356,6.8233,6.8767,6.9276,6.9907,7.0233,7.0233,7.0202,7.0062,6.9898,6.9677,6.9836,7.0074,7.0444,7.1278,7.2302,7.3539,7.4799,7.5953,7.7093,7.7552,7.7714,7.7979,7.7728,7.7559,7.8088,7.8434,7.8671,7.8671,7.9241,7.9904,8.034,8.0466,8.0868,8.1689,8.1181,8.0758,8.1153,8.0702,8.056,8.1319,8.0729,8.0843,8.2284,8.2,8.2193,8.2921,8.2755,8.2072,8.0652,8.0645,8.098,8.1496,8.1991,8.2744,8.3873,8.4227,8.5019,8.6191,8.6229,8.6648,4.6824,4.7704,4.8393,5.0737,5.2754,5.4865,5.7515,5.8412,5.8732,5.9255,5.983,6.0295,6.0684,6.0545,6.0682,6.1521,6.1385,6.1372,6.1894,6.2025,6.2234,6.2757,6.2862,6.2888,6.2835,6.2835,6.26,6.2025,6.1672,6.1545,6.1767,6.1545,6.1695,6.2338,6.207,6.1898,6.1846,6.1547,6.0966,6.0201,6.0915,6.1606,6.2225,6.4023,6.4923,6.5033,6.6124,6.6603,6.6603,6.6603,6.6864,6.736,6.795,6.8778,6.9715,7.0283,7.0583,7.0635,7.0226,6.9816,6.9403,6.8983,6.9265,6.971,6.9899,7.1623,7.3435,7.3282,7.529,7.737,7.7071,7.7795,7.8521,7.861,7.7795,7.7213,7.7627,7.7715,7.7742,7.7796,7.8583,7.9493,7.9987,8.0423,8.0971,8.1486,8.1516,8.1659,8.2086,8.1688,8.1403,8.1403,8.1403,8.1745,8.2707,8.2791,8.2981,8.3231,8.2845,8.268,8.268,8.303,8.303,8.2512,8.3244,8.3863,8.4323,8.4412,8.5331,8.6979,8.6191,8.6273,4.6451,4.7731,4.9319,5.138,5.409,5.6463,5.7564,5.8515,5.9202,5.9333,5.983,6.0222,6.0295,6.1053,6.1577,6.1237,6.1577,6.1842,6.1947,6.2365,6.2679,6.2809,6.3227,6.3306,6.2862,6.2835,6.26,6.2025,6.1672,6.1389,6.1219,6.1311,6.1363,6.1341,6.1487,6.1495,6.1495,6.1198,6.0965,6.081,6.1084,6.1416,6.1936,6.367,6.4916,6.5763,6.5687,6.5713,6.5713,6.6028,6.6476,6.7084,6.7987,6.876,6.9428,6.9663,6.9792,6.9733,6.9237,6.9014,6.8983,6.937,6.9579,7.0036,7.1608,7.2052,7.2295,7.4174,7.5316,7.6154,7.6787,7.7529,7.8165,7.8521,7.8061,7.7539,7.7715,7.7715,7.785,7.8312,7.8856,7.9631,8.0539,8.1061,8.1753,8.2721,8.2789,8.2565,8.2278,8.177,8.1403,8.1403,8.1403,8.1745,8.2707,8.2791,8.3154,8.3811,8.3811,8.3729,8.3729,8.259,8.2137,8.2483,8.2483,8.297,8.3951,8.4478,8.5287,8.6572,8.6496,8.6731,4.6325,4.7919,4.9959,5.2704,5.4892,5.6657,5.7729,5.8245,5.8777,5.9326,6.0065,6.0744,6.1006,6.1555,6.1868,6.1581,6.1764,6.1973,6.1973,6.2234,6.2342,6.219,6.2608,6.2766,6.225,6.2457,6.2379,6.181,6.1479,6.1043,6.0603,6.0709,6.0735,6.0603,6.0886,6.0965,6.0813,6.094,6.0909,6.065,6.0993,6.1555,6.2205,6.3519,6.4717,6.5713,6.545,6.5371,6.5397,6.5634,6.6213,6.6952,6.7773,6.8598,6.9372,6.9686,6.9733,6.9485,6.9237,6.9014,6.8952,6.9501,6.9893,7.0455,7.2005,7.2666,7.3222,7.4814,7.588,7.6694,7.7194,7.7795,7.8173,7.8169,7.7783,7.7532,7.8006,7.7905,7.7905,7.8475,7.9183,7.9926,8.0494,8.1416,8.2427,8.3464,8.3326,8.3128,8.31,8.2673,8.2302,8.2302,8.2021,8.2197,8.3164,8.2963,8.3211,8.4014,8.4097,8.4097,8.4097,8.3294,8.2927,8.3274,8.3366,8.3838,8.4696,8.5047,8.5803,8.699,8.6923,8.6985,4.6033,4.7963,5.0409,5.3847,5.526,5.6134,5.763,5.7791,5.8018,5.8993,6.0143,6.1163,6.1842,6.1973,6.1999,6.2104,6.2025,6.1973,6.1898,6.1898,6.1721,6.1344,6.1682,6.1865,6.1608,6.2018,6.2095,6.1659,6.122,6.0733,6.015,6.0125,6.0125,6.0125,6.0431,6.0431,6.0125,6.0706,6.0801,6.0462,6.114,6.1853,6.2683,6.3481,6.4374,6.5318,6.5318,6.5318,6.5371,6.5371,6.6028,6.7004,6.7478,6.8328,6.9261,6.9739,6.9733,6.9403,6.9403,6.9233,6.9082,6.9742,7.0344,7.1091,7.2184,7.3376,7.4581,7.5041,7.6141,7.7241,7.7153,7.7844,7.8339,7.7735,7.7444,7.7456,7.8277,7.8149,7.804,7.8637,7.9673,8.0522,8.0522,8.1821,8.3098,8.3918,8.3658,8.3602,8.3924,8.3605,8.3286,8.3286,8.2808,8.2789,8.3564,8.3164,8.3242,8.3932,8.4097,8.4097,8.4097,8.4097,8.4097,8.4097,8.4543,8.5111,8.5608,8.5842,8.6514,8.7482,8.7258,8.7145,4.4774,4.7347,5.0577,5.3517,5.4773,5.5517,5.6709,5.7364,5.7913,5.8497,5.9542,6.0666,6.1764,6.1973,6.213,6.2626,6.2287,6.1898,6.1495,6.1495,6.1268,6.0813,6.089,6.1044,6.1557,6.1685,6.1685,6.1634,6.122,6.0733,6.015,6.0125,6.0125,6.0125,6.0125,6.0125,6.0125,6.0773,6.1144,6.109,6.2119,6.2647,6.2803,6.3265,6.4042,6.4866,6.4866,6.5079,6.5371,6.5371,6.6104,6.7072,6.7151,6.7831,6.8909,6.8988,6.893,6.893,6.893,6.9161,6.9768,7.0768,7.1432,7.2184,7.3652,7.3946,7.388,7.4423,7.4966,7.5477,7.5129,7.6398,7.7735,7.7186,7.7741,7.8277,7.7932,7.8176,7.8664,7.9261,8.0655,8.1782,8.1782,8.3092,8.4231,8.4321,8.4232,8.4073,8.4161,8.3683,8.3286,8.3286,8.3202,8.3182,8.3078,8.3393,8.3532,8.3462,8.3849,8.4097,8.4097,8.4097,8.4097,8.4097,8.4732,8.508,8.5168,8.6272,8.6882,8.7085,8.7552,8.7813,4.5741,4.7793,4.9976,5.2197,5.3452,5.4445,5.5595,5.6536,5.7346,5.7921,5.9059,6.0267,6.1764,6.2234,6.255,6.2894,6.2428,6.1858,6.1092,6.1193,6.1089,6.0301,6.0839,6.13,6.1706,6.1827,6.1847,6.1847,6.1688,6.1277,6.0801,6.0751,6.0521,6.0193,6.0193,6.0193,6.0193,6.0842,6.1492,6.2119,6.2596,6.2822,6.2847,6.3338,6.3859,6.4441,6.4707,6.5,6.5423,6.5737,6.6364,6.7148,6.7462,6.8115,6.8764,6.8764,6.868,6.8565,6.9129,6.9306,6.9501,7.09,7.1716,7.2316,7.3587,7.4032,7.4203,7.463,7.5364,7.6093,7.592,7.6958,7.8196,7.8343,7.873,7.9126,7.9207,7.9153,7.937,8.032,8.1126,8.1772,8.2375,8.3317,8.412,8.4392,8.4591,8.4578,8.4241,8.4269,8.4185,8.382,8.3483,8.3436,8.3819,8.382,8.3758,8.3795,8.4362,8.4474,8.4097,8.4097,8.4271,8.4649,8.4939,8.5258,8.5636,8.6536,8.7174,8.7523,8.7813,8.7929,4.641,4.7748,4.9022,5.089,5.2276,5.3478,5.4602,5.5752,5.6745,5.732,5.8466,5.9778,6.1245,6.1953,6.2377,6.2768,6.2174,6.1478,6.0967,6.1015,6.0807,6.0147,6.0865,6.1504,6.1748,6.2013,6.215,6.2195,6.2345,6.2119,6.1441,6.1391,6.114,6.0563,6.0537,6.0537,6.0537,6.1115,6.1868,6.2822,6.2822,6.2898,6.3212,6.364,6.4107,6.4511,6.4753,6.505,6.5423,6.6024,6.6625,6.7174,6.7831,6.849,6.9014,6.9254,6.9061,6.8701,6.9826,6.9919,6.9676,7.1596,7.2309,7.2699,7.3887,7.4396,7.4657,7.5133,7.5897,7.6543,7.6618,7.7627,7.8719,7.8974,7.9614,8.0202,8.0347,8.0184,8.0211,8.1134,8.1432,8.1861,8.2757,8.3299,8.3875,8.4301,8.4843,8.4944,8.4494,8.4831,8.4944,8.4466,8.4016,8.3943,8.4472,8.4048,8.3733,8.3776,8.4543,8.4685,8.4192,8.442,8.4823,8.5316,8.549,8.581,8.6274,8.6913,8.7464,8.7929,8.7929,8.7842,4.5498,4.6459,4.7626,5.0193,5.1701,5.2851,5.4001,5.5125,5.6118,5.6719,5.7791,5.8869,6.0091,6.057,6.1147,6.2223,6.1044,6.0352,6.1429,6.0634,6.0122,6.0634,6.0737,6.0993,6.1723,6.2252,6.2623,6.2747,6.3299,6.3124,6.2019,6.1969,6.1718,6.1165,6.114,6.114,6.114,6.1692,6.2245,6.2822,6.2822,6.3262,6.4178,6.4203,6.4695,6.5508,6.5051,6.5066,6.5423,6.6024,6.6599,6.7229,6.8132,6.8984,6.9565,7.0645,7.0319,6.9644,7.1199,7.1201,7.09,7.3406,7.3978,7.3913,7.5337,7.5377,7.5052,7.5707,7.5897,7.6001,7.6135,7.7336,7.8521,7.813,7.9967,8.16,8.0628,8.0835,8.1215,8.1297,8.1758,8.2323,8.2812,8.3299,8.3875,8.4301,8.4843,8.5112,8.5056,8.5084,8.5112,8.5056,8.5028,8.4775,8.4274,8.4006,8.3616,8.3079,8.3932,8.4439,8.441,8.5354,8.5955,8.5984,8.6565,8.6913,8.6942,8.7581,8.79,8.7929,8.7929,8.761,4.422,4.473,4.5419,4.789,4.9453,5.0707,5.2197,5.4001,5.5465,5.5674,5.6695,5.7759,5.8537,6.0076,6.1298,6.1787,6.0865,6.01,6.0151,6.0022,5.9915,6.0059,6.0678,6.1426,6.1968,6.242,6.2784,6.3179,6.3514,6.3525,6.3099,6.2747,6.227,6.1718,6.1718,6.1718,6.1718,6.227,6.2784,6.323,6.323,6.3615,6.431,6.5021,6.5421,6.5775,6.6192,6.624,6.5998,6.6573,6.7357,6.8246,6.8925,6.9538,7.0123,7.0379,7.0349,7.0255,7.1469,7.1719,7.188,7.3847,7.4326,7.4337,7.5246,7.526,7.5052,7.5391,7.5937,7.6456,7.664,7.793,7.9261,7.9848,8.1261,8.2136,8.1081,8.0773,8.0862,8.1215,8.1459,8.1823,8.2388,8.284,8.3391,8.3875,8.4392,8.4703,8.4906,8.5038,8.5033,8.4994,8.47,8.4527,8.4655,8.4577,8.4355,8.4019,8.5049,8.542,8.4988,8.5643,8.6216,8.6623,8.6855,8.6971,8.6971,8.761,8.7929,8.7929,8.7929,8.7813,4.3341,4.3696,4.4441,4.6533,4.778,4.8982,5.1014,5.2732,5.4027,5.4551,5.5591,5.6539,5.711,5.8698,6.0211,6.0942,6.0227,5.9616,5.9718,5.9611,5.9621,5.9809,6.0713,6.1443,6.1862,6.2426,6.3025,6.3584,6.4019,6.4201,6.4201,6.3672,6.3092,6.2538,6.2376,6.2351,6.2512,6.2728,6.2985,6.323,6.3595,6.4139,6.4862,6.5836,6.6424,6.6615,6.7225,6.719,6.6599,6.7194,6.7976,6.8873,6.9741,7.0387,7.0982,7.1213,7.1267,7.1282,7.2138,7.2452,7.26,7.4254,7.4734,7.4778,7.5569,7.5828,7.5919,7.598,7.6607,7.7316,7.7733,7.9118,8.0573,8.1434,8.2014,8.2222,8.1477,8.0944,8.0773,8.1188,8.1297,8.1578,8.2269,8.2655,8.3116,8.3875,8.4211,8.4585,8.5143,8.5099,8.5122,8.5231,8.4761,8.4583,8.4966,8.474,8.4605,8.4471,8.5362,8.5651,8.5393,8.6024,8.6684,8.729,8.729,8.729,8.729,8.7726,8.7929,8.7929,8.7929,8.7929,0.0,0.0,0.0,4.6035,4.6813,4.7916,5.0496,5.1347,5.1983,5.3456,5.4446,5.527,5.5752,5.6453,5.7641,5.9668,5.8952,5.8763,6.0429,5.9595,5.9134,6.0044,6.0744,6.1171,6.1266,6.2483,6.3453,6.4068,6.4735,6.5122,6.5148,6.4615,6.4057,6.3499,6.3067,6.3067,6.3473,6.3067,6.2847,6.2847,6.3893,6.4862,6.5836,6.6899,6.7572,6.8011,6.8011,6.7697,6.7171,6.7852,6.8345,6.9004,7.0583,7.1455,7.1983,7.3076,7.3111,7.2788,7.3459,7.34,7.3192,7.4826,7.5289,7.5456,7.651,7.7281,7.7715,7.7769,7.7822,7.8121,7.928,8.0764,8.2119,8.2573,8.2284,8.1814,8.1814,8.1484,8.1136,8.128,8.1297,8.167,8.273,8.2932,8.318,8.4211,8.4392,8.4725,8.5709,8.5442,8.5291,8.5798,8.5353,8.5112,8.5112,8.455,8.4213,8.4213,8.4627,8.5154,8.562,8.6628,8.738,8.7843,8.7843,8.7843,8.7843,8.7929,8.7929,8.7929,8.7929,8.7929,4.1349,0.0,0.0,0.0,0.0,0.0,4.8276,5.0036,5.1549,5.2418,5.345,5.4405,5.4919,5.5549,5.6259,5.7171,5.7426,5.7965,5.9157,5.9019,5.8978,5.9568,6.0509,6.1115,6.1122,6.2276,6.3283,6.3876,6.4312,6.4881,6.5537,6.5109,6.422,6.3011,6.323,6.3392,6.3473,6.3392,6.3839,6.4816,6.5132,6.5806,6.6925,6.7494,6.7697,6.7667,6.8253,6.8576,6.8423,6.818,6.8449,6.9137,6.9886,7.0952,7.209,7.2249,7.2919,7.3857,7.4419,7.4851,7.5202,7.6072,7.6315,7.651,7.7193,7.7579,7.7817,7.8327,7.8202,7.8139,7.9315,8.1063,8.2573,8.2663,8.3154,8.3311,8.2567,8.2056,8.1559,8.1371,8.0971,8.0998,8.2187,8.2378,8.2747,8.3784,8.3875,8.4482,8.6064,8.5887,8.5798,8.6241,8.5887,8.5442,8.5112,8.4944,8.4859,8.4859,8.5277,8.5631,8.572,8.6332,8.6769,8.6856,8.7206,8.738,8.738,8.7756,8.7929,8.7929,8.7929,8.7929,4.0717,4.1058,4.1862,4.2896,0.0,0.0,4.7109,4.8542,4.9653,5.0462,5.1669,5.2608,5.2598,5.3689,5.4722,5.5247,5.5934,5.6829,5.8192,5.8589,5.8778,5.9019,5.983,6.0378,6.0378,6.1571,6.2586,6.3415,6.3712,6.4179,6.4822,6.4811,6.4285,6.3092,6.3148,6.3392,6.3716,6.3554,6.4077,6.5372,6.5534,6.621,6.7323,6.782,6.805,6.8067,6.8597,6.8909,6.8954,6.8811,6.9241,7.0135,7.0636,7.163,7.2785,7.2697,7.3456,7.4537,7.4765,7.5283,7.5978,7.6072,7.6618,7.7139,7.7045,7.7864,7.8847,7.883,7.8892,7.9161,7.986,8.149,8.273,8.2415,8.3082,8.3615,8.2815,8.1765,8.1188,8.1589,8.1188,8.1079,8.2029,8.2192,8.247,8.3207,8.3601,8.4301,8.5975,8.5975,8.6064,8.6681,8.6241,8.5709,8.5442,8.5202,8.5112,8.5112,8.5531,8.5798,8.5798,8.6241,8.6505,8.6505,8.6769,8.7031,8.7206,8.7669,8.7929,8.7929,8.7929,8.7929,4.0674,4.1126,4.2193,4.2717,4.3237,0.0,4.6417,4.701,4.7383,4.8322,4.9607,5.0486,4.9903,5.1406,5.2944,5.3621,5.4393,5.5565,5.7506,5.8101,5.8314,5.8314,5.8889,5.9352,5.9352,6.0553,6.1726,6.2679,6.3207,6.3473,6.3549,6.4266,6.4316,6.3499,6.3067,6.3311,6.4119,6.3793,6.4179,6.5231,6.5608,6.6365,6.7401,6.7841,6.8268,6.868,6.8764,6.8935,6.9109,6.9541,7.0278,7.1288,7.1896,7.2682,7.3515,7.3601,7.423,7.5048,7.4868,7.5369,7.6028,7.571,7.6607,7.7735,7.6728,7.8246,8.0219,7.9225,7.9779,8.0732,8.0586,8.1731,8.275,8.2132,8.2776,8.3306,8.2809,8.1532,8.0803,8.2034,8.1649,8.1405,8.2083,8.2192,8.235,8.273,8.3272,8.4211,8.5535,8.583,8.6241,8.7119,8.6417,8.5887,8.5798,8.5353,8.5112,8.5112,8.5442,8.5709,8.5709,8.6152,8.6329,8.6329,8.6446,8.6681,8.7119,8.7554,8.7843,8.7929,8.7929,8.7929,4.0434,4.1646,4.2959,4.2733,4.3562,0.0,4.4467,4.6284,4.8052,4.8369,4.935,5.0105,4.9894,5.0463,5.0864,5.0769,5.2406,5.4524,5.6686,5.7068,5.7137,5.7137,5.8052,5.8822,5.9131,6.0347,6.1502,6.2527,6.3753,6.4302,6.3665,6.4771,6.4811,6.358,6.3392,6.3797,6.4601,6.4312,6.4986,6.6721,6.6862,6.7349,6.8022,6.8106,6.799,6.7815,6.8513,6.9195,6.9678,6.9723,6.9936,7.0364,7.0817,7.1705,7.2647,7.2969,7.4067,7.5354,7.612,7.6808,7.7362,7.7302,7.8088,7.9036,7.848,7.9332,8.0344,7.9774,8.072,8.1616,8.0786,8.1731,8.2969,8.3298,8.3787,8.412,8.403,8.3474,8.2931,8.2822,8.1599,8.0944,8.2002,8.2192,8.2214,8.2183,8.2997,8.4044,8.4942,8.5839,8.6593,8.7119,8.6681,8.6241,8.5798,8.5353,8.5112,8.5112,8.5202,8.5291,8.5291,8.5291,8.5381,8.5381,8.5709,8.6152,8.6593,8.7119,8.7554,8.7929,8.7929,8.7929,4.0803,4.0712,4.126,4.2629,4.3088,0.0,0.0,4.5356,4.6371,4.6839,4.735,4.7796,4.811,4.8525,4.9044,4.9646,5.0594,5.1936,5.3922,5.5438,5.6353,5.6353,5.7249,5.8114,5.8613,5.9721,6.0842,6.2093,6.3363,6.3918,6.3499,6.4158,6.4346,6.3822,6.3797,6.4273,6.5201,6.5055,6.5784,6.7566,6.7294,6.768,6.8513,6.8227,6.8253,6.857,6.9302,6.9774,7.0154,7.0382,7.0539,7.0688,7.0949,7.1661,7.2673,7.3198,7.4187,7.5369,7.6546,7.7208,7.7715,7.7715,7.8529,7.9334,7.8615,7.9193,8.0241,8.0815,8.1204,8.1365,8.107,8.1762,8.2573,8.2823,8.3404,8.4008,8.4277,8.3516,8.2856,8.3189,8.1946,8.1161,8.2029,8.2192,8.2095,8.1681,8.3005,8.428,8.493,8.6129,8.7261,8.8333,8.7317,8.656,8.6696,8.6011,8.5562,8.5562,8.6052,8.617,8.559,8.5742,8.5691,8.5112,8.5381,8.5709,8.6152,8.6593,8.7119,8.7554,8.7756,8.7929,4.1984,4.0918,4.068,4.29,4.2787,4.2509,0.0,0.0,0.0,4.5031,4.5167,4.5395,4.6023,4.6517,4.7248,4.8553,4.8872,4.9348,5.0603,5.3164,5.4994,5.5229,5.6022,5.6924,5.7773,5.8695,6.0013,6.179,6.2303,6.2789,6.3248,6.3469,6.3776,6.42,6.4119,6.4643,6.5696,6.5637,6.6451,6.7985,6.7537,6.7768,6.868,6.8211,6.8538,6.9421,6.9873,7.0272,7.0594,7.0852,7.1235,7.1495,7.1409,7.2009,7.2935,7.3584,7.4426,7.5444,7.6613,7.7363,7.7878,7.7878,7.8603,7.9434,7.8605,7.9209,8.0362,8.1685,8.154,8.1044,8.1419,8.1886,8.2242,8.2329,8.2947,8.3667,8.4293,8.3333,8.2588,8.3527,8.2566,8.1758,8.2138,8.2192,8.2002,8.1405,8.3005,8.4454,8.5056,8.6238,8.7811,8.9612,8.7805,8.6874,8.7591,8.6638,8.6068,8.6208,8.705,8.7198,8.6236,8.643,8.6063,8.5112,8.5112,8.5291,8.5709,8.6152,8.6681,8.7206,8.7669,8.7929,4.4785,4.5286,4.5605,4.4067,4.3827,4.3624,4.2223,0.0,4.3891,4.3947,0.0,4.46,4.5144,0.0,0.0,4.5954,4.7283,4.8172,4.7858,4.9871,5.1753,5.2772,5.3632,5.4746,5.6279,5.7464,5.9166,6.1738,6.0769,6.0964,6.3146,6.3642,6.4138,6.4681,6.4335,6.4779,6.6205,6.5943,6.6486,6.7985,6.8039,6.8158,6.8287,6.8209,6.8494,6.9046,6.8967,6.9779,7.1037,7.0225,7.0697,7.2012,7.1581,7.1775,7.2472,7.3422,7.4434,7.5603,7.6525,7.7546,7.8502,7.8502,7.9074,7.9763,8.0102,8.0654,8.1245,8.1392,8.17,8.2006,8.2099,8.2192,8.2443,8.3336,8.3582,8.3946,8.4821,8.4552,8.4134,8.3775,8.3222,8.2735,8.2273,8.2192,8.2002,8.1405,8.2731,8.412,8.4966,8.6073,8.7502,8.9552,8.7912,8.7144,8.8219,8.6864,8.6264,8.6854,8.703,8.7058,8.6883,8.6321,8.573,8.5112,8.5112,8.5112,8.5202,8.562,8.6329,8.7206,8.7669,8.7929,4.6319,4.5649,4.5146,4.5714,4.4758,4.3774,4.4014,4.4083,4.4096,4.3842,0.0,0.0,0.0,0.0,0.0,0.0,4.6101,4.6845,4.7268,4.816,4.9324,5.0795,5.2217,5.3751,5.527,5.6316,5.7645,5.9639,5.9357,6.0283,6.2871,6.3233,6.3986,6.5133,6.4974,6.5496,6.6756,6.6978,6.7576,6.8481,6.8915,6.9091,6.9091,6.9091,6.9488,7.0265,7.0283,7.0452,7.0752,7.0662,7.1005,7.1649,7.1795,7.2219,7.2908,7.4217,7.4817,7.5234,7.6929,7.7517,7.7822,7.8792,7.9542,8.0172,8.0739,8.1148,8.1513,8.1793,8.1793,8.17,8.17,8.2006,8.2285,8.2747,8.3298,8.3923,8.4538,8.4686,8.4537,8.4208,8.3551,8.3006,8.2762,8.2409,8.2002,8.1405,8.2612,8.4021,8.5082,8.6086,8.7693,9.0237,8.8861,8.8068,8.8905,8.8071,8.7495,8.7501,8.7529,8.7529,8.7529,8.6573,8.5899,8.5646,8.5281,8.5202,8.5531,8.5709,8.6152,8.6769,8.7293,8.7467,4.8801,4.7585,4.6675,4.7645,4.6268,4.4811,4.557,4.5014,4.4276,4.3941,4.4022,0.0,0.0,0.0,4.3835,4.4758,0.0,4.6009,4.649,4.711,4.805,4.9469,5.1186,5.2775,5.4164,5.473,5.5762,5.7625,5.7747,5.9149,6.2133,6.2452,6.3363,6.5109,6.5292,6.592,6.707,6.7697,6.8272,6.8764,6.9265,6.9448,6.9448,6.9448,6.9957,7.0736,7.0662,7.0536,7.0435,7.109,7.1385,7.1502,7.2316,7.2927,7.3602,7.4756,7.5021,7.5198,7.7038,7.7663,7.7895,7.9118,8.0021,8.0754,8.1188,8.1426,8.17,8.2099,8.1913,8.1606,8.1606,8.1913,8.2192,8.2378,8.3092,8.3922,8.4322,8.4742,8.4833,8.4502,8.3851,8.3277,8.3115,8.2572,8.2029,8.1622,8.2767,8.4079,8.5423,8.6377,8.8082,9.0744,8.9577,8.8905,8.9562,8.8992,8.8504,8.8147,8.8175,8.8091,8.7922,8.6854,8.6208,8.6011,8.5511,8.5442,8.5798,8.5798,8.5975,8.6329,8.6769,8.7119,5.3113,5.3294,5.2914,4.9923,4.8563,4.7551,4.5821,4.4838,4.4255,4.4109,4.399,4.3966,4.4256,4.4045,4.394,0.0,4.5474,0.0,0.0,4.6701,4.8378,4.8992,5.04,5.1724,5.2703,5.2501,5.353,5.6317,5.5718,5.6981,6.0953,6.1189,6.2234,6.4482,6.5109,6.592,6.707,6.7697,6.8272,6.8764,6.879,6.879,6.879,6.879,6.9187,6.9684,6.9135,6.9464,7.0462,7.1084,7.1558,7.1978,7.3275,7.4077,7.4479,7.4479,7.4852,7.5499,7.6671,7.8057,7.9451,7.9479,8.0293,8.1269,8.1297,8.1731,8.2192,8.2192,8.2192,8.2192,8.2192,8.2192,8.2285,8.2747,8.337,8.3922,8.4322,8.4981,8.5353,8.4612,8.4207,8.3793,8.3169,8.2572,8.2192,8.2165,8.3119,8.4372,8.5999,8.714,8.871,9.0739,8.9978,8.9591,9.0219,8.9247,8.8702,8.8765,8.8793,8.854,8.7922,8.7304,8.6658,8.604,8.5842,8.5798,8.5798,8.5798,8.5798,8.5798,8.6329,8.6769,5.5096,5.5051,5.4646,5.2571,5.1284,5.0148,4.8436,4.742,4.6351,4.4835,4.5047,4.5207,4.3991,4.3993,4.4177,0.0,0.0,4.5356,0.0,4.665,4.727,4.7287,4.8281,4.925,4.9976,5.0254,5.1523,5.4223,5.4485,5.6118,5.9751,6.0692,6.2156,6.4456,6.4717,6.5737,6.7671,6.788,6.8272,6.8764,6.9213,6.9422,6.9422,6.9422,6.9736,7.0259,6.9657,6.982,7.0618,7.1181,7.1623,7.2111,7.3312,7.4039,7.4519,7.527,7.5496,7.5587,7.6618,7.8119,7.9479,7.9479,8.032,8.1297,8.1297,8.1731,8.2192,8.2192,8.2192,8.2192,8.2192,8.2192,8.2285,8.2378,8.3232,8.3883,8.3492,8.4355,8.5016,8.4668,8.3992,8.3467,8.3657,8.3169,8.2789,8.2789,8.3139,8.4098,8.6051,8.6637,8.7747,8.973,8.9709,8.9588,8.9695,8.9183,8.8783,8.8821,8.8821,8.8737,8.8512,8.82,8.7734,8.7113,8.7002,8.6845,8.6769,8.6417,8.6417,8.6769,8.6593,8.6593,5.7775,5.759,5.7189,5.5488,5.4326,5.3048,5.1235,5.0265,4.9147,4.6954,4.6915,4.6812,4.5422,4.4546,4.4046,0.0,0.0,0.0,0.0,4.5684,4.5715,4.6088,4.6737,4.7403,4.8121,4.87,4.9973,5.2276,5.3164,5.4916,5.7974,5.9437,6.1241,6.3541,6.4221,6.5554,6.7645,6.8089,6.8481,6.8764,6.9631,6.9788,6.9396,6.9605,6.9919,7.0259,6.9866,7.0023,7.0677,7.1618,7.2035,7.223,7.3427,7.4032,7.4278,7.5431,7.6039,7.6379,7.7082,7.8308,7.9479,7.9479,8.032,8.1297,8.1297,8.1731,8.2192,8.2192,8.2192,8.2192,8.2192,8.2192,8.2246,8.2463,8.3115,8.3562,8.3332,8.398,8.4635,8.4699,8.3844,8.3277,8.3902,8.3494,8.306,8.306,8.344,8.4389,8.6195,8.6754,8.7596,8.9296,8.9631,8.9723,8.9538,8.9167,8.9008,8.8821,8.8821,8.8821,8.8821,8.851,8.8137,8.7696,8.7494,8.7399,8.7206,8.6856,8.6944,8.7206,8.6856,8.6769]}]]